Darstellungsparameter: Aktuell verwendete Einstellungen:
Skalierung der Graphiken ... ?
xyx+y,   Skalierungsfaktor:      Skalierung: Modus: x, Faktor: 1
Darstellungszeitraum ... ?
Vom - - bis: - -   Zeitraum: 18.02.2019 - 17.05.2019
Min/Max/Avg-Anzeige ... ?
Zeige MMA aktuell
Zeige MMA Monat
Zeige MMA alles
Zeige --A aktuell
Zeige --A Monat
Zeige --A alles
Keine MMA-Anzeige
MMA:
Minimum Maximum Average (ber die Originaldaten)
MMA-Basis: 23.02.2003 - 18.05.2019
Quicknavigation für Darstellung... ?
Tage:      1T, 2T, 3T, 5T -1T -2T -3T -5T +1T +2T +3T +5T
Wochen: 1W, 2W, 3W -1W -2W -3W +1W +2W +3W
Monate: 1M, 3M, 6M -1M -3M -6M +1M +3M +6M
Jahre:    1J, 3J, 5J, 10J -1J -3J -5J -10J +1J +3J +5J +10J
Nutze für die Darstellung ... ?
Originaldaten oder ...
Mittelwerte Minima Maxima auf...
Stundenbasis Tagesbasis Wochenbasis
Monatsbasis Jahresbasis      Datenbasis: Mittelwerte auf Stundenbasis
Darstellen als:
Statistik (Auto) Statistik J:M      Darstellung:
Zur Graphik,    zurück zur Übersicht aller Sensoren.
 
Tabellarische Datenbersicht: ?
 
Sensor: Nr:Datum:Temp:Abs-Feuchte:Windchill:Wind:
Aussen-T/F 1 18-02-2019 00:00:00 1.46667 C 4.91 g/m*3 1.47 C 0 km/h
2 18-02-2019 01:00:00 0.49167 C 4.64 g/m*3 0.49 C 0 km/h
3 18-02-2019 02:00:00 0.08333 C 4.57 g/m*3 0.08 C 0.13333 km/h
4 18-02-2019 03:00:00 -0.41667 C 4.43 g/m*3 -0.42 C 0 km/h
5 18-02-2019 04:00:00 -0.775 C 4.34 g/m*3 -0.78 C 0 km/h
6 18-02-2019 05:00:00 -1.21667 C 4.23 g/m*3 -1.22 C 0 km/h
7 18-02-2019 06:00:00 -1.475 C 4.15 g/m*3 -1.48 C 0 km/h
8 18-02-2019 07:00:00 -1.65 C 4.11 g/m*3 -1.65 C 0 km/h
9 18-02-2019 08:00:00 -1.63333 C 4.13 g/m*3 -1.63 C 0.13333 km/h
10 18-02-2019 09:00:00 -0.56667 C 4.47 g/m*3 -0.57 C 0.66667 km/h
11 18-02-2019 10:00:00 0.19167 C 4.72 g/m*3 0.19 C 0.8 km/h
12 18-02-2019 11:00:00 2.84167 C 5.69 g/m*3 2.84 C 0 km/h
13 18-02-2019 12:00:00 6.04167 C 6.76 g/m*3 6.04 C 0 km/h
14 18-02-2019 13:00:00 9.59167 C 7.36 g/m*3 9.59 C 0 km/h
15 18-02-2019 14:00:00 11.34167 C 7.36 g/m*3 11.34 C 0 km/h
16 18-02-2019 15:00:00 12.05833 C 7.16 g/m*3 12.06 C 0 km/h
17 18-02-2019 16:00:00 11.84167 C 6.81 g/m*3 11.84 C 0 km/h
18 18-02-2019 17:00:00 10.425 C 6.72 g/m*3 10.43 C 0 km/h
19 18-02-2019 18:00:00 8.41667 C 6.35 g/m*3 8.42 C 0 km/h
20 18-02-2019 19:00:00 7 C 6.2 g/m*3 7 C 0 km/h
21 18-02-2019 20:00:00 5.65833 C 5.77 g/m*3 5.66 C 0.4 km/h
22 18-02-2019 21:00:00 4.1 C 5.5 g/m*3 4.1 C 0 km/h
23 18-02-2019 22:00:00 2.76667 C 5.19 g/m*3 2.77 C 0 km/h
24 18-02-2019 23:00:00 2.13333 C 5.09 g/m*3 2.13 C 0 km/h
25 19-02-2019 00:00:00 1.725 C 5.02 g/m*3 1.73 C 0 km/h
Sensor: Nr:Datum:Temp:Abs-Feuchte:Windchill:Wind:
Aussen-T/F 26 19-02-2019 01:00:00 1.83333 C 5.1 g/m*3 1.83 C 0 km/h
27 19-02-2019 02:00:00 1.85 C 5.13 g/m*3 1.85 C 0 km/h
28 19-02-2019 03:00:00 2.34167 C 5.37 g/m*3 2.34 C 0.93333 km/h
29 19-02-2019 04:00:00 3.7 C 5.86 g/m*3 3.7 C 4.41667 km/h
30 19-02-2019 05:00:00 4.04167 C 5.79 g/m*3 4.04 C 2.93333 km/h
31 19-02-2019 06:00:00 4.99167 C 5.96 g/m*3 4.99 C 4.41667 km/h
32 19-02-2019 07:00:00 5.2 C 6.21 g/m*3 5.2 C 2.93333 km/h
33 19-02-2019 08:00:00 4.89167 C 6.27 g/m*3 4.89 C 1.06667 km/h
34 19-02-2019 09:00:00 5.25 C 6.55 g/m*3 4.28 C 5.225 km/h
35 19-02-2019 10:00:00 6.34167 C 7 g/m*3 4.59 C 8.48333 km/h
36 19-02-2019 11:00:00 7.28333 C 7.31 g/m*3 5.93 C 7.53333 km/h
37 19-02-2019 12:00:00 8.71667 C 7.61 g/m*3 8.07 C 5.75833 km/h
38 19-02-2019 13:00:00 9.94167 C 7.5 g/m*3 8.69 C 9.29167 km/h
39 19-02-2019 14:00:00 10.65 C 7.29 g/m*3 9.26 C 10.9 km/h
40 19-02-2019 15:00:00 10.94167 C 7.23 g/m*3 10.05 C 8.34167 km/h
41 19-02-2019 16:00:00 10.9 C 7.18 g/m*3 10.28 C 6.98333 km/h
42 19-02-2019 17:00:00 9.69167 C 6.87 g/m*3 9.69 C 4.15833 km/h
43 19-02-2019 18:00:00 7.28333 C 6.56 g/m*3 7.28 C 4.54167 km/h
44 19-02-2019 19:00:00 6.225 C 6.41 g/m*3 6.23 C 4.13333 km/h
45 19-02-2019 20:00:00 5.44167 C 6.24 g/m*3 5.44 C 3.33333 km/h
46 19-02-2019 21:00:00 4.85 C 6.03 g/m*3 4.85 C 0.53333 km/h
47 19-02-2019 22:00:00 3.46667 C 5.6 g/m*3 3.47 C 0.66667 km/h
48 19-02-2019 23:00:00 3.05 C 5.53 g/m*3 3.05 C 0.66667 km/h
49 20-02-2019 00:00:00 2.6 C 5.4 g/m*3 2.6 C 0.8 km/h
50 20-02-2019 01:00:00 1.78333 C 5.11 g/m*3 1.78 C 0 km/h
Sensor: Nr:Datum:Temp:Abs-Feuchte:Windchill:Wind:
Aussen-T/F 51 20-02-2019 02:00:00 1.19167 C 4.96 g/m*3 1.19 C 0.13333 km/h
52 20-02-2019 03:00:00 1.1 C 4.96 g/m*3 1.1 C 1.2 km/h
53 20-02-2019 04:00:00 0.875 C 4.89 g/m*3 0.88 C 0.66667 km/h
54 20-02-2019 05:00:00 1 C 4.96 g/m*3 1 C 1.06667 km/h
55 20-02-2019 06:00:00 0.86667 C 4.92 g/m*3 0.87 C 0.4 km/h
56 20-02-2019 07:00:00 0.73333 C 4.89 g/m*3 0.73 C 1.2 km/h
57 20-02-2019 08:00:00 1.30833 C 5.11 g/m*3 1.31 C 2.41667 km/h
58 20-02-2019 09:00:00 3.09167 C 5.78 g/m*3 0.06 C 11.43333 km/h
59 20-02-2019 10:00:00 4.40833 C 6.25 g/m*3 1.7 C 11.16667 km/h
60 20-02-2019 11:00:00 6.075 C 6.72 g/m*3 3.9 C 10.225 km/h
61 20-02-2019 12:00:00 7.49167 C 7.04 g/m*3 6.21 C 7.36667 km/h
62 20-02-2019 13:00:00 9.86667 C 7.29 g/m*3 8.2 C 11.7 km/h
63 20-02-2019 14:00:00 10.85833 C 7.37 g/m*3 9.95 C 8.325 km/h
64 20-02-2019 15:00:00 11.08333 C 7.35 g/m*3 11.08 C 6.15833 km/h
65 20-02-2019 16:00:00 11.375 C 7.3 g/m*3 11.38 C 6.84167 km/h
66 20-02-2019 17:00:00 10.35 C 7.12 g/m*3 10.35 C 3.875 km/h
67 20-02-2019 18:00:00 7.29167 C 6.63 g/m*3 7.29 C 3.86667 km/h
68 20-02-2019 19:00:00 6.16667 C 6.43 g/m*3 6.17 C 2.53333 km/h
69 20-02-2019 20:00:00 4.86667 C 6.04 g/m*3 4.87 C 0.26667 km/h
70 20-02-2019 21:00:00 3.775 C 5.73 g/m*3 3.78 C 0 km/h
71 20-02-2019 22:00:00 2.7 C 5.41 g/m*3 2.7 C 0 km/h
72 20-02-2019 23:00:00 2.10833 C 5.28 g/m*3 2.11 C 0.13333 km/h
73 21-02-2019 00:00:00 1.575 C 5.1 g/m*3 1.58 C 0 km/h
74 21-02-2019 01:00:00 1.58333 C 5.14 g/m*3 1.58 C 0.26667 km/h
75 21-02-2019 02:00:00 1.06667 C 4.96 g/m*3 1.07 C 0 km/h
Sensor: Nr:Datum:Temp:Abs-Feuchte:Windchill:Wind:
Aussen-T/F 76 21-02-2019 03:00:00 0.74167 C 4.89 g/m*3 0.74 C 0.26667 km/h
77 21-02-2019 04:00:00 0.91667 C 4.95 g/m*3 0.92 C 1.33333 km/h
78 21-02-2019 05:00:00 1.06667 C 5.02 g/m*3 1.07 C 1.2 km/h
79 21-02-2019 06:00:00 1.25 C 5.08 g/m*3 1.25 C 0.93333 km/h
80 21-02-2019 07:00:00 1.21667 C 5.08 g/m*3 1.22 C 0.4 km/h
81 21-02-2019 08:00:00 2.10833 C 5.43 g/m*3 2.11 C 0.4 km/h
82 21-02-2019 09:00:00 2.84167 C 5.71 g/m*3 2.84 C 0.66667 km/h
83 21-02-2019 10:00:00 3.91667 C 6.13 g/m*3 3.92 C 1.2 km/h
84 21-02-2019 11:00:00 5.725 C 6.76 g/m*3 5.73 C 0.93333 km/h
85 21-02-2019 12:00:00 8.33333 C 7.59 g/m*3 8.33 C 2.94167 km/h
86 21-02-2019 13:00:00 11.3 C 8.35 g/m*3 11.3 C 6.29167 km/h
87 21-02-2019 14:00:00 12.6 C 8.52 g/m*3 12.6 C 6.30833 km/h
88 21-02-2019 15:00:00 13.325 C 8.59 g/m*3 13.33 C 6.44167 km/h
89 21-02-2019 16:00:00 13.34167 C 8.58 g/m*3 13.34 C 5.49167 km/h
90 21-02-2019 17:00:00 12.48333 C 8.77 g/m*3 12.48 C 2.13333 km/h
91 21-02-2019 18:00:00 10.56667 C 8.39 g/m*3 10.57 C 2.4 km/h
92 21-02-2019 19:00:00 9.74167 C 8.06 g/m*3 9.74 C 3.46667 km/h
93 21-02-2019 20:00:00 9.18333 C 7.98 g/m*3 9.18 C 0.53333 km/h
94 21-02-2019 21:00:00 9.325 C 8.15 g/m*3 9.32 C 0.66667 km/h
95 21-02-2019 22:00:00 9.275 C 8.01 g/m*3 9.28 C 0.13333 km/h
96 21-02-2019 23:00:00 9.21667 C 7.99 g/m*3 9.22 C 1.6 km/h
97 22-02-2019 00:00:00 9.575 C 8.12 g/m*3 9.57 C 2.675 km/h
98 22-02-2019 01:00:00 9.76667 C 8.17 g/m*3 9.77 C 0.4 km/h
99 22-02-2019 02:00:00 9.325 C 8.12 g/m*3 9.32 C 0.53333 km/h
100 22-02-2019 03:00:00 9.55 C 8.41 g/m*3 9.55 C 0.53333 km/h
Sensor: Nr:Datum:Temp:Abs-Feuchte:Windchill:Wind:
Aussen-T/F 101 22-02-2019 04:00:00 9.66667 C 8.55 g/m*3 9.67 C 0.53333 km/h
102 22-02-2019 05:00:00 9.34167 C 8.49 g/m*3 9.34 C 0.53333 km/h
103 22-02-2019 06:00:00 9.34167 C 8.56 g/m*3 9.34 C 2.13333 km/h
104 22-02-2019 07:00:00 9.225 C 8.53 g/m*3 9.23 C 0.53333 km/h
105 22-02-2019 08:00:00 9.16667 C 8.55 g/m*3 9.17 C 0.66667 km/h
106 22-02-2019 09:00:00 9.50833 C 8.74 g/m*3 9.51 C 0.13333 km/h
107 22-02-2019 10:00:00 9.93333 C 8.98 g/m*3 9.93 C 0 km/h
108 22-02-2019 11:00:00 10.64167 C 9.28 g/m*3 10.64 C 1.86667 km/h
109 22-02-2019 12:00:00 11.6 C 9.14 g/m*3 11.6 C 5.1 km/h
110 22-02-2019 13:00:00 12.46667 C 9.01 g/m*3 12.47 C 4.26667 km/h
111 22-02-2019 14:00:00 12.83333 C 8.75 g/m*3 12.83 C 2.8 km/h
112 22-02-2019 15:00:00 13.275 C 8.57 g/m*3 13.28 C 1.33333 km/h
113 22-02-2019 16:00:00 12.84167 C 8.24 g/m*3 12.84 C 1.86667 km/h
114 22-02-2019 17:00:00 11.825 C 8.03 g/m*3 11.83 C 0.26667 km/h
115 22-02-2019 18:00:00 9.075 C 7.36 g/m*3 9.07 C 1.73333 km/h
116 22-02-2019 19:00:00 8.55 C 7.38 g/m*3 8.55 C 4.13333 km/h
117 22-02-2019 20:00:00 8.99167 C 7.52 g/m*3 8.99 C 1.46667 km/h
118 22-02-2019 21:00:00 8.475 C 7.35 g/m*3 8.48 C 2.53333 km/h
119 22-02-2019 22:00:00 6.94167 C 6.86 g/m*3 6.94 C 3.06667 km/h
120 22-02-2019 23:00:00 5.95 C 6.63 g/m*3 5.95 C 2.66667 km/h
121 23-02-2019 00:00:00 5.31667 C 6.41 g/m*3 5.32 C 0.8 km/h
122 23-02-2019 01:00:00 4.55 C 6.15 g/m*3 4.55 C 0 km/h
123 23-02-2019 02:00:00 4.18333 C 6.05 g/m*3 4.18 C 0 km/h
124 23-02-2019 03:00:00 3.81667 C 5.96 g/m*3 3.82 C 0.93333 km/h
125 23-02-2019 04:00:00 4.26667 C 6.15 g/m*3 4.27 C 1.33333 km/h
Sensor: Nr:Datum:Temp:Abs-Feuchte:Windchill:Wind:
Aussen-T/F 126 23-02-2019 05:00:00 4.525 C 6.16 g/m*3 4.53 C 4.025 km/h
127 23-02-2019 06:00:00 4.83333 C 6.04 g/m*3 4.83 C 0.93333 km/h
128 23-02-2019 07:00:00 4.79167 C 5.83 g/m*3 4.79 C 1.6 km/h
129 23-02-2019 08:00:00 4.85 C 5.72 g/m*3 4.85 C 3.74167 km/h
130 23-02-2019 09:00:00 4.775 C 5.58 g/m*3 2.75 C 8.48333 km/h
131 23-02-2019 10:00:00 4.95 C 5.54 g/m*3 3.9 C 5.34167 km/h
132 23-02-2019 11:00:00 6.125 C 5.78 g/m*3 5.05 C 5.89167 km/h
133 23-02-2019 12:00:00 7.625 C 5.84 g/m*3 6.17 C 8.20833 km/h
134 23-02-2019 13:00:00 9.05833 C 5.91 g/m*3 7.61 C 9.41667 km/h
135 23-02-2019 14:00:00 10.01667 C 5.59 g/m*3 9.38 C 6.43333 km/h
136 23-02-2019 15:00:00 10.78333 C 4.42 g/m*3 10.58 C 5.21667 km/h
137 23-02-2019 16:00:00 10.71667 C 4.63 g/m*3 10.72 C 3.2 km/h
138 23-02-2019 17:00:00 7.99167 C 5.22 g/m*3 7.99 C 2.13333 km/h
139 23-02-2019 18:00:00 5.45833 C 4.97 g/m*3 5.46 C 0 km/h
140 23-02-2019 19:00:00 4.36667 C 4.82 g/m*3 4.37 C 0 km/h
141 23-02-2019 20:00:00 3.38333 C 4.64 g/m*3 3.38 C 0 km/h
142 23-02-2019 21:00:00 2.03333 C 4.42 g/m*3 2.03 C 0 km/h
143 23-02-2019 22:00:00 0.98333 C 4.29 g/m*3 0.98 C 0 km/h
144 23-02-2019 23:00:00 0.45833 C 4.18 g/m*3 0.46 C 0 km/h
145 24-02-2019 00:00:00 -0.25833 C 4.07 g/m*3 -0.26 C 0 km/h
146 24-02-2019 01:00:00 -0.66667 C 4.03 g/m*3 -0.67 C 0 km/h
147 24-02-2019 02:00:00 -1.16667 C 3.93 g/m*3 -1.17 C 0 km/h
148 24-02-2019 03:00:00 -1.5 C 3.89 g/m*3 -1.5 C 0 km/h
149 24-02-2019 04:00:00 -1.73333 C 3.87 g/m*3 -1.73 C 0 km/h
150 24-02-2019 05:00:00 -1.875 C 3.83 g/m*3 -1.88 C 0 km/h
Sensor: Nr:Datum:Temp:Abs-Feuchte:Windchill:Wind:
Aussen-T/F 151 24-02-2019 06:00:00 -2.06667 C 3.8 g/m*3 -2.07 C 0 km/h
152 24-02-2019 07:00:00 -2.35833 C 3.75 g/m*3 -2.36 C 0 km/h
153 24-02-2019 08:00:00 -2.10833 C 3.85 g/m*3 -2.11 C 0 km/h
154 24-02-2019 09:00:00 -1.49167 C 4.01 g/m*3 -1.49 C 0 km/h
155 24-02-2019 10:00:00 0.36667 C 4.41 g/m*3 0.37 C 0 km/h
156 24-02-2019 11:00:00 4.09167 C 4.98 g/m*3 4.09 C 0 km/h
157 24-02-2019 12:00:00 7.35 C 5.24 g/m*3 7.35 C 0 km/h
158 24-02-2019 13:00:00 10.45833 C 4.27 g/m*3 10.46 C 4.40833 km/h
159 24-02-2019 14:00:00 11.89167 C 3.86 g/m*3 11.89 C 6.7 km/h
160 24-02-2019 15:00:00 12.41667 C 4.27 g/m*3 12.42 C 2.8 km/h
161 24-02-2019 16:00:00 11.80833 C 4.9 g/m*3 11.81 C 3.2 km/h
162 24-02-2019 17:00:00 10.3 C 5.02 g/m*3 10.3 C 0.4 km/h
163 24-02-2019 18:00:00 8.44167 C 4.82 g/m*3 8.44 C 4 km/h
164 24-02-2019 19:00:00 6.86667 C 4.69 g/m*3 6.87 C 3.73333 km/h
165 24-02-2019 20:00:00 4.93333 C 4.49 g/m*3 4.93 C 0.26667 km/h
166 24-02-2019 21:00:00 3.36667 C 4.36 g/m*3 3.37 C 0 km/h
167 24-02-2019 22:00:00 2.54167 C 4.29 g/m*3 2.54 C 0 km/h
168 24-02-2019 23:00:00 1.81667 C 4.23 g/m*3 1.82 C 0 km/h
169 25-02-2019 00:00:00 1.175 C 4.15 g/m*3 1.18 C 0 km/h
170 25-02-2019 01:00:00 0.925 C 4.18 g/m*3 0.93 C 0 km/h
171 25-02-2019 02:00:00 0.13333 C 4.09 g/m*3 0.13 C 0 km/h
172 25-02-2019 03:00:00 -0.00833 C 4.07 g/m*3 -0.01 C 0 km/h
173 25-02-2019 04:00:00 -0.58333 C 4.01 g/m*3 -0.58 C 0 km/h
174 25-02-2019 05:00:00 -0.70833 C 4.02 g/m*3 -0.71 C 0.66667 km/h
175 25-02-2019 06:00:00 -0.86667 C 4.01 g/m*3 -0.87 C 0.13333 km/h
Sensor: Nr:Datum:Temp:Abs-Feuchte:Windchill:Wind:
Aussen-T/F 176 25-02-2019 07:00:00 -1.21667 C 3.93 g/m*3 -1.22 C 0 km/h
177 25-02-2019 08:00:00 -1.2 C 4 g/m*3 -1.2 C 0 km/h
178 25-02-2019 09:00:00 -0.69167 C 4.1 g/m*3 -0.69 C 0 km/h
179 25-02-2019 10:00:00 0.81667 C 4.46 g/m*3 0.82 C 0 km/h
180 25-02-2019 11:00:00 4.675 C 5.17 g/m*3 4.68 C 1.06667 km/h
181 25-02-2019 12:00:00 8.70833 C 5.81 g/m*3 8.71 C 1.06667 km/h
182 25-02-2019 13:00:00 12.55 C 5.88 g/m*3 12.55 C 0.26667 km/h
183 25-02-2019 14:00:00 14.74167 C 5.89 g/m*3 14.74 C 1.86667 km/h
184 25-02-2019 15:00:00 14.175 C 6.05 g/m*3 14.18 C 1.73333 km/h
185 25-02-2019 16:00:00 14.375 C 6.12 g/m*3 14.38 C 2.13333 km/h
186 25-02-2019 17:00:00 13.64167 C 6.24 g/m*3 13.64 C 5.6 km/h
187 25-02-2019 18:00:00 11.1 C 6.03 g/m*3 11.1 C 5.6 km/h
188 25-02-2019 19:00:00 9.075 C 5.92 g/m*3 9.07 C 0.4 km/h
189 25-02-2019 20:00:00 7.04167 C 5.67 g/m*3 7.04 C 0 km/h
190 25-02-2019 21:00:00 5.575 C 5.41 g/m*3 5.58 C 0 km/h
191 25-02-2019 22:00:00 4.55 C 5.24 g/m*3 4.55 C 0 km/h
192 25-02-2019 23:00:00 3.25 C 5.05 g/m*3 3.25 C 0 km/h
193 26-02-2019 00:00:00 2.425 C 4.92 g/m*3 2.42 C 0 km/h
194 26-02-2019 01:00:00 1.93333 C 4.91 g/m*3 1.93 C 0 km/h
195 26-02-2019 02:00:00 1.39167 C 4.78 g/m*3 1.39 C 0 km/h
196 26-02-2019 03:00:00 0.63333 C 4.61 g/m*3 0.63 C 0 km/h
197 26-02-2019 04:00:00 0.325 C 4.56 g/m*3 0.33 C 0 km/h
198 26-02-2019 05:00:00 0.21667 C 4.58 g/m*3 0.22 C 0.8 km/h
199 26-02-2019 06:00:00 -0.31667 C 4.4 g/m*3 -0.32 C 0.13333 km/h
200 26-02-2019 07:00:00 -0.48333 C 4.39 g/m*3 -0.48 C 0.13333 km/h
Sensor: Nr:Datum:Temp:Abs-Feuchte:Windchill:Wind:
Aussen-T/F 201 26-02-2019 08:00:00 -0.10833 C 4.54 g/m*3 -0.11 C 0.53333 km/h
202 26-02-2019 09:00:00 0.80833 C 4.85 g/m*3 0.81 C 0.13333 km/h
203 26-02-2019 10:00:00 2.60833 C 5.47 g/m*3 2.61 C 0.13333 km/h
204 26-02-2019 11:00:00 5.75 C 6.19 g/m*3 5.75 C 0 km/h
205 26-02-2019 12:00:00 9.50833 C 6.6 g/m*3 9.51 C 0 km/h
206 26-02-2019 13:00:00 13.85833 C 7.8 g/m*3 13.86 C 0 km/h
207 26-02-2019 14:00:00 16.15833 C 7.61 g/m*3 16.16 C 0 km/h
208 26-02-2019 15:00:00 15.49167 C 7.3 g/m*3 15.49 C 0 km/h
209 26-02-2019 16:00:00 15.44167 C 7.31 g/m*3 15.44 C 3.33333 km/h
210 26-02-2019 17:00:00 14.75833 C 7.39 g/m*3 14.76 C 6.13333 km/h
211 26-02-2019 18:00:00 12.56667 C 7.02 g/m*3 12.57 C 4.93333 km/h
212 26-02-2019 19:00:00 10.34167 C 6.85 g/m*3 10.34 C 0.53333 km/h
213 26-02-2019 20:00:00 8.18333 C 6.39 g/m*3 8.18 C 0 km/h
214 26-02-2019 21:00:00 6.8 C 6.19 g/m*3 6.8 C 0 km/h
215 26-02-2019 22:00:00 5.61667 C 5.93 g/m*3 5.62 C 0 km/h
216 26-02-2019 23:00:00 4.56667 C 5.74 g/m*3 4.57 C 0 km/h
217 27-02-2019 00:00:00 3.55833 C 5.51 g/m*3 3.56 C 0 km/h
218 27-02-2019 01:00:00 2.85 C 5.36 g/m*3 2.85 C 0 km/h
219 27-02-2019 02:00:00 2.25 C 5.22 g/m*3 2.25 C 0 km/h
220 27-02-2019 03:00:00 1.45833 C 4.98 g/m*3 1.46 C 0 km/h
221 27-02-2019 04:00:00 0.78333 C 4.8 g/m*3 0.78 C 0 km/h
222 27-02-2019 05:00:00 0.5 C 4.74 g/m*3 0.5 C 0 km/h
223 27-02-2019 06:00:00 0.125 C 4.64 g/m*3 0.13 C 0 km/h
224 27-02-2019 07:00:00 -0.375 C 4.49 g/m*3 -0.38 C 0 km/h
225 27-02-2019 08:00:00 -0.25833 C 4.55 g/m*3 -0.26 C 0 km/h
Sensor: Nr:Datum:Temp:Abs-Feuchte:Windchill:Wind:
Aussen-T/F 226 27-02-2019 09:00:00 0.41667 C 4.79 g/m*3 0.42 C 0 km/h
227 27-02-2019 10:00:00 2.4 C 5.52 g/m*3 2.4 C 0 km/h
228 27-02-2019 11:00:00 5.5 C 6.68 g/m*3 5.5 C 0 km/h
229 27-02-2019 12:00:00 9.75833 C 7.66 g/m*3 9.76 C 0 km/h
230 27-02-2019 13:00:00 14.69167 C 8.26 g/m*3 14.69 C 0 km/h
231 27-02-2019 14:00:00 17.19167 C 7.64 g/m*3 17.19 C 0 km/h
232 27-02-2019 15:00:00 16.10833 C 7.05 g/m*3 16.11 C 0.93333 km/h
233 27-02-2019 16:00:00 16.25 C 7 g/m*3 16.25 C 4.4 km/h
234 27-02-2019 17:00:00 15.71667 C 6.83 g/m*3 15.72 C 6.13333 km/h
235 27-02-2019 18:00:00 13.55833 C 6.44 g/m*3 13.56 C 4.55833 km/h
236 27-02-2019 19:00:00 10.89167 C 6.35 g/m*3 10.89 C 0 km/h
237 27-02-2019 20:00:00 8.7 C 6.09 g/m*3 8.7 C 0 km/h
238 27-02-2019 21:00:00 6.8 C 5.79 g/m*3 6.8 C 0 km/h
239 27-02-2019 22:00:00 5.55 C 5.67 g/m*3 5.55 C 0 km/h
240 27-02-2019 23:00:00 4.83333 C 5.55 g/m*3 4.83 C 0 km/h
241 28-02-2019 00:00:00 5.35 C 5.77 g/m*3 5.35 C 2.4 km/h
242 28-02-2019 01:00:00 4.93333 C 5.54 g/m*3 4.93 C 0.4 km/h
243 28-02-2019 02:00:00 3.675 C 5.4 g/m*3 3.68 C 3.20833 km/h
244 28-02-2019 03:00:00 2.94167 C 5.27 g/m*3 2.94 C 2.66667 km/h
245 28-02-2019 04:00:00 2.275 C 5.11 g/m*3 2.28 C 2.53333 km/h
246 28-02-2019 05:00:00 2.35833 C 5.18 g/m*3 2.36 C 3.35 km/h
247 28-02-2019 06:00:00 3.21667 C 5.45 g/m*3 1.38 C 6.85833 km/h
248 28-02-2019 07:00:00 3.75 C 5.43 g/m*3 2.47 C 5.5 km/h
249 28-02-2019 08:00:00 3.075 C 5.38 g/m*3 3.08 C 3.075 km/h
250 28-02-2019 09:00:00 4.68333 C 5.92 g/m*3 4.68 C 3.34167 km/h
Sensor: Nr:Datum:Temp:Abs-Feuchte:Windchill:Wind:
Aussen-T/F 251 28-02-2019 10:00:00 7.65833 C 6.83 g/m*3 6.03 C 9.01667 km/h
252 28-02-2019 11:00:00 11.56667 C 7.5 g/m*3 11.57 C 12.63333 km/h
253 28-02-2019 12:00:00 13.26667 C 7.75 g/m*3 13.27 C 11.16667 km/h
254 28-02-2019 13:00:00 14.95833 C 8.12 g/m*3 14.96 C 11.56667 km/h
255 28-02-2019 14:00:00 16.61667 C 8.6 g/m*3 16.62 C 12.89167 km/h
256 28-02-2019 15:00:00 16.76667 C 8.7 g/m*3 16.77 C 11.15 km/h
257 28-02-2019 16:00:00 15.20833 C 8.3 g/m*3 15.21 C 17.175 km/h
258 28-02-2019 17:00:00 12.73333 C 7.56 g/m*3 12.73 C 18.10833 km/h
259 28-02-2019 18:00:00 12.13333 C 7.68 g/m*3 12.13 C 9.425 km/h
260 28-02-2019 19:00:00 11.26667 C 7.7 g/m*3 11.27 C 8.86667 km/h
261 28-02-2019 20:00:00 11.09167 C 7.91 g/m*3 11.09 C 11.43333 km/h
262 28-02-2019 21:00:00 10.975 C 8.07 g/m*3 9.52 C 11.83333 km/h
263 28-02-2019 22:00:00 10.84167 C 8.1 g/m*3 9.6 C 10.20833 km/h
264 28-02-2019 23:00:00 10.26667 C 8.27 g/m*3 9.03 C 9.525 km/h
265 01-03-2019 00:00:00 9.075 C 8.14 g/m*3 9.07 C 4.68333 km/h
266 01-03-2019 01:00:00 8.68333 C 8.1 g/m*3 8.68 C 4.675 km/h
267 01-03-2019 02:00:00 8.69167 C 8.07 g/m*3 7.15 C 9.55 km/h
268 01-03-2019 03:00:00 8.8 C 7.96 g/m*3 7.33 C 9.275 km/h
269 01-03-2019 04:00:00 8.75833 C 7.9 g/m*3 8.12 C 5.75 km/h
270 01-03-2019 05:00:00 8.63333 C 7.9 g/m*3 8.63 C 3.60833 km/h
271 01-03-2019 06:00:00 8.20833 C 7.84 g/m*3 8.21 C 3.475 km/h
272 01-03-2019 07:00:00 8.21667 C 7.96 g/m*3 8.22 C 3.60833 km/h
273 01-03-2019 08:00:00 8.53333 C 8.13 g/m*3 8.53 C 2.8 km/h
274 01-03-2019 09:00:00 8.68333 C 8.21 g/m*3 8.68 C 0.8 km/h
275 01-03-2019 10:00:00 8.66667 C 8.28 g/m*3 8.67 C 0.26667 km/h
Sensor: Nr:Datum:Temp:Abs-Feuchte:Windchill:Wind:
Aussen-T/F 276 01-03-2019 11:00:00 8.75833 C 8.25 g/m*3 8.76 C 2.66667 km/h
277 01-03-2019 12:00:00 9.01667 C 8.07 g/m*3 7.09 C 12.21667 km/h
278 01-03-2019 13:00:00 8.49167 C 7.81 g/m*3 6.79 C 10.19167 km/h
279 01-03-2019 14:00:00 8.38333 C 7.66 g/m*3 7 C 8.475 km/h
280 01-03-2019 15:00:00 8.325 C 7.57 g/m*3 7.65 C 5.63333 km/h
281 01-03-2019 16:00:00 8.34167 C 7.65 g/m*3 8.34 C 4.68333 km/h
282 01-03-2019 17:00:00 8.28333 C 7.66 g/m*3 8.28 C 3.21667 km/h
283 01-03-2019 18:00:00 7.61667 C 7.21 g/m*3 5.35 C 12.5 km/h
284 01-03-2019 19:00:00 6.9 C 6.92 g/m*3 5.29 C 8.31667 km/h
285 01-03-2019 20:00:00 6.625 C 6.88 g/m*3 6.63 C 1.73333 km/h
286 01-03-2019 21:00:00 6.45 C 6.78 g/m*3 6.45 C 1.2 km/h
287 01-03-2019 22:00:00 6.375 C 6.71 g/m*3 6.38 C 1.73333 km/h
288 01-03-2019 23:00:00 6.53333 C 6.66 g/m*3 6.53 C 0.93333 km/h
289 02-03-2019 00:00:00 6.19167 C 6.55 g/m*3 6.19 C 4.30833 km/h
290 02-03-2019 01:00:00 5.85 C 6.4 g/m*3 5.85 C 1.6 km/h
291 02-03-2019 02:00:00 5.64167 C 6.43 g/m*3 5.64 C 0.93333 km/h
292 02-03-2019 03:00:00 5.65 C 6.43 g/m*3 5.65 C 1.46667 km/h
293 02-03-2019 04:00:00 5.7 C 6.47 g/m*3 5.7 C 0.26667 km/h
294 02-03-2019 05:00:00 6.10833 C 6.65 g/m*3 6.11 C 4.80833 km/h
295 02-03-2019 06:00:00 6.30833 C 6.74 g/m*3 6.31 C 3.73333 km/h
296 02-03-2019 07:00:00 6.65 C 6.89 g/m*3 6.65 C 4.68333 km/h
297 02-03-2019 08:00:00 7.01667 C 7.01 g/m*3 7.02 C 4.94167 km/h
298 02-03-2019 09:00:00 7.66667 C 7.19 g/m*3 5.96 C 9.41667 km/h
299 02-03-2019 10:00:00 8.05 C 7.28 g/m*3 6.73 C 7.925 km/h
300 02-03-2019 11:00:00 8.99167 C 7.53 g/m*3 7.61 C 9.025 km/h
Sensor: Nr:Datum:Temp:Abs-Feuchte:Windchill:Wind:
Aussen-T/F 301 02-03-2019 12:00:00 9.94167 C 7.75 g/m*3 8.71 C 9.16667 km/h
302 02-03-2019 13:00:00 10.63333 C 7.82 g/m*3 9.66 C 8.475 km/h
303 02-03-2019 14:00:00 11.40833 C 7.76 g/m*3 11.41 C 6.975 km/h
304 02-03-2019 15:00:00 11.925 C 7.67 g/m*3 11.93 C 8.75 km/h
305 02-03-2019 16:00:00 12.35 C 7.67 g/m*3 12.35 C 10.625 km/h
306 02-03-2019 17:00:00 11.35833 C 7.73 g/m*3 11.36 C 14.5 km/h
307 02-03-2019 18:00:00 10.55 C 7.84 g/m*3 9.09 C 11.28333 km/h
308 02-03-2019 19:00:00 9.84167 C 8 g/m*3 8.11 C 12.1 km/h
309 02-03-2019 20:00:00 9.53333 C 7.96 g/m*3 7.84 C 11.41667 km/h
310 02-03-2019 21:00:00 9.83333 C 8.13 g/m*3 7.98 C 12.9 km/h
311 02-03-2019 22:00:00 10.25 C 8.11 g/m*3 8.53 C 12.61667 km/h
312 02-03-2019 23:00:00 9.96667 C 7.8 g/m*3 8.58 C 10.08333 km/h
313 03-03-2019 00:00:00 9.05833 C 7.33 g/m*3 8.49 C 5.63333 km/h
314 03-03-2019 01:00:00 9.175 C 7.6 g/m*3 7.47 C 11.00833 km/h
315 03-03-2019 02:00:00 9.98333 C 7.63 g/m*3 8.19 C 12.74167 km/h
316 03-03-2019 03:00:00 10 C 7.61 g/m*3 8.3 C 12.09167 km/h
317 03-03-2019 04:00:00 10.225 C 7.71 g/m*3 8.5 C 12.63333 km/h
318 03-03-2019 05:00:00 10.20833 C 7.6 g/m*3 8.39 C 13.28333 km/h
319 03-03-2019 06:00:00 10.10833 C 7.65 g/m*3 8.51 C 11.55 km/h
320 03-03-2019 07:00:00 10.13333 C 7.68 g/m*3 8.28 C 13.425 km/h
321 03-03-2019 08:00:00 10.31667 C 7.81 g/m*3 7.58 C 22.11667 km/h
322 03-03-2019 09:00:00 10.875 C 8.06 g/m*3 8.13 C 24.125 km/h
323 03-03-2019 10:00:00 11.15833 C 8.19 g/m*3 11.16 C 26.01667 km/h
324 03-03-2019 11:00:00 11.00833 C 8.21 g/m*3 11.01 C 15.16667 km/h
325 03-03-2019 12:00:00 11.225 C 8.33 g/m*3 11.23 C 16.36667 km/h
Sensor: Nr:Datum:Temp:Abs-Feuchte:Windchill:Wind:
Aussen-T/F 326 03-03-2019 13:00:00 11.73333 C 8.44 g/m*3 11.73 C 11.15833 km/h
327 03-03-2019 14:00:00 11.79167 C 8.42 g/m*3 11.79 C 13.15833 km/h
328 03-03-2019 15:00:00 11.7 C 8.5 g/m*3 11.7 C 14.625 km/h
329 03-03-2019 16:00:00 11.7 C 8.52 g/m*3 11.7 C 14.36667 km/h
330 03-03-2019 17:00:00 11.9 C 8.41 g/m*3 11.9 C 13.43333 km/h
331 03-03-2019 18:00:00 12.18333 C 8.35 g/m*3 12.18 C 14.5 km/h
332 03-03-2019 19:00:00 12.28333 C 8.23 g/m*3 12.28 C 13.83333 km/h
333 03-03-2019 20:00:00 12.33333 C 8.27 g/m*3 12.33 C 14.36667 km/h
334 03-03-2019 21:00:00 12.33333 C 8.39 g/m*3 12.33 C 21.05 km/h
335 03-03-2019 22:00:00 12.525 C 8.43 g/m*3 12.53 C 18.36667 km/h
336 03-03-2019 23:00:00 12.75833 C 8.24 g/m*3 12.76 C 6.43333 km/h
337 04-03-2019 00:00:00 13.10833 C 8.13 g/m*3 13.11 C 8.33333 km/h
338 04-03-2019 01:00:00 13.50833 C 8.02 g/m*3 13.51 C 13.54167 km/h
339 04-03-2019 02:00:00 12.66667 C 8.38 g/m*3 12.67 C 27.74167 km/h
340 04-03-2019 03:00:00 11.79167 C 8.46 g/m*3 11.79 C 18.10833 km/h
341 04-03-2019 04:00:00 11.675 C 8.51 g/m*3 11.68 C 10.75 km/h
342 04-03-2019 05:00:00 11.63333 C 8.34 g/m*3 11.63 C 9.26667 km/h
343 04-03-2019 06:00:00 11.45 C 8.13 g/m*3 11.45 C 12.20833 km/h
344 04-03-2019 07:00:00 12 C 7.87 g/m*3 12 C 16.9 km/h
345 04-03-2019 08:00:00 11.49167 C 7.55 g/m*3 11.49 C 31.91667 km/h
346 04-03-2019 09:00:00 9.39167 C 6.9 g/m*3 6.12 C 25.475 km/h
347 04-03-2019 10:00:00 9.90833 C 7.15 g/m*3 6.92 C 23.85833 km/h
348 04-03-2019 11:00:00 11.23333 C 7.03 g/m*3 11.23 C 27.36667 km/h
349 04-03-2019 12:00:00 10.98333 C 7.29 g/m*3 8.02 C 27.63333 km/h
350 04-03-2019 13:00:00 9.73333 C 7.77 g/m*3 6.6 C 24.925 km/h
Sensor: Nr:Datum:Temp:Abs-Feuchte:Windchill:Wind:
Aussen-T/F 351 04-03-2019 14:00:00 9.44167 C 7.56 g/m*3 6.35 C 23.44167 km/h
352 04-03-2019 15:00:00 7.1 C 6.58 g/m*3 4.35 C 14.9 km/h
353 04-03-2019 16:00:00 7.54167 C 6.39 g/m*3 4.79 C 15.7 km/h
354 04-03-2019 17:00:00 7.4 C 6.26 g/m*3 5.15 C 12.1 km/h
355 04-03-2019 18:00:00 6.96667 C 6.22 g/m*3 4.79 C 11.15 km/h
356 04-03-2019 19:00:00 6.86667 C 6.25 g/m*3 4.1 C 14.63333 km/h
357 04-03-2019 20:00:00 6.95 C 6.29 g/m*3 4.51 C 12.625 km/h
358 04-03-2019 21:00:00 6.61667 C 6.29 g/m*3 4.54 C 10.225 km/h
359 04-03-2019 22:00:00 7.09167 C 6.45 g/m*3 4.2 C 15.96667 km/h
360 04-03-2019 23:00:00 6.7 C 6.36 g/m*3 4.47 C 11.13333 km/h
361 05-03-2019 00:00:00 6.875 C 6.26 g/m*3 4.45 C 12.475 km/h
362 05-03-2019 01:00:00 6.875 C 6.19 g/m*3 4.38 C 12.9 km/h
363 05-03-2019 02:00:00 6.79167 C 6.11 g/m*3 3.57 C 17.96667 km/h
364 05-03-2019 03:00:00 6.74167 C 6.13 g/m*3 3.6 C 17.16667 km/h
365 05-03-2019 04:00:00 6.425 C 6.04 g/m*3 3.58 C 14.49167 km/h
366 05-03-2019 05:00:00 6.35 C 6.01 g/m*3 3.45 C 14.76667 km/h
367 05-03-2019 06:00:00 6.24167 C 5.88 g/m*3 3.46 C 13.83333 km/h
368 05-03-2019 07:00:00 6.475 C 5.93 g/m*3 3.06 C 18.90833 km/h
369 05-03-2019 08:00:00 6.64167 C 6.07 g/m*3 3.23 C 19.16667 km/h
370 05-03-2019 09:00:00 6.50833 C 6.25 g/m*3 3.51 C 15.7 km/h
371 05-03-2019 10:00:00 6.625 C 6.44 g/m*3 4.3 C 11.56667 km/h
372 05-03-2019 11:00:00 6.99167 C 6.53 g/m*3 4.61 C 12.36667 km/h
373 05-03-2019 12:00:00 7.3 C 6.45 g/m*3 4.77 C 13.7 km/h
374 05-03-2019 13:00:00 7.96667 C 6.58 g/m*3 5.81 C 12.23333 km/h
375 05-03-2019 14:00:00 8.65 C 6.68 g/m*3 6.48 C 13.3 km/h
Sensor: Nr:Datum:Temp:Abs-Feuchte:Windchill:Wind:
Aussen-T/F 376 05-03-2019 15:00:00 8.95833 C 6.59 g/m*3 7.12 C 11.55833 km/h
377 05-03-2019 16:00:00 9.81667 C 6.76 g/m*3 8.31 C 10.625 km/h
378 05-03-2019 17:00:00 9.34167 C 6.68 g/m*3 7.93 C 9.54167 km/h
379 05-03-2019 18:00:00 7.13333 C 6.3 g/m*3 6.21 C 5.89167 km/h
380 05-03-2019 19:00:00 6.55 C 6.21 g/m*3 5.54 C 5.88333 km/h
381 05-03-2019 20:00:00 5.46667 C 5.97 g/m*3 5.47 C 1.46667 km/h
382 05-03-2019 21:00:00 4.275 C 5.8 g/m*3 4.28 C 0.66667 km/h
383 05-03-2019 22:00:00 4.70833 C 6.13 g/m*3 4.71 C 0.26667 km/h
384 05-03-2019 23:00:00 5.26667 C 6.36 g/m*3 5.27 C 0 km/h
385 06-03-2019 00:00:00 5.65 C 6.5 g/m*3 5.65 C 0.66667 km/h
386 06-03-2019 01:00:00 6.15 C 6.71 g/m*3 6.15 C 0.4 km/h
387 06-03-2019 02:00:00 7.03333 C 6.98 g/m*3 7.03 C 3.46667 km/h
388 06-03-2019 03:00:00 7 C 6.93 g/m*3 7 C 0.26667 km/h
389 06-03-2019 04:00:00 6.81667 C 6.97 g/m*3 6.82 C 2.675 km/h
390 06-03-2019 05:00:00 7.175 C 6.99 g/m*3 6.1 C 6.43333 km/h
391 06-03-2019 06:00:00 6.40833 C 6.68 g/m*3 6.41 C 2.675 km/h
392 06-03-2019 07:00:00 5.44167 C 6.38 g/m*3 5.44 C 1.2 km/h
393 06-03-2019 08:00:00 6.43333 C 6.8 g/m*3 6.43 C 2.93333 km/h
394 06-03-2019 09:00:00 8.15833 C 7.04 g/m*3 8.16 C 2.66667 km/h
395 06-03-2019 10:00:00 10.00833 C 7.18 g/m*3 10.01 C 4.025 km/h
396 06-03-2019 11:00:00 12.275 C 7.09 g/m*3 12.28 C 7.24167 km/h
397 06-03-2019 12:00:00 13.31667 C 6.85 g/m*3 13.32 C 6.58333 km/h
398 06-03-2019 13:00:00 13.375 C 7.08 g/m*3 13.38 C 5.35 km/h
399 06-03-2019 14:00:00 13.7 C 7.31 g/m*3 13.7 C 2.66667 km/h
400 06-03-2019 15:00:00 14.56667 C 7.34 g/m*3 14.57 C 3.875 km/h
Sensor: Nr:Datum:Temp:Abs-Feuchte:Windchill:Wind:
Aussen-T/F 401 06-03-2019 16:00:00 15.19167 C 7.45 g/m*3 15.19 C 4.14167 km/h
402 06-03-2019 17:00:00 13.93333 C 8.2 g/m*3 13.93 C 3.475 km/h
403 06-03-2019 18:00:00 13.00833 C 8.24 g/m*3 13.01 C 4.26667 km/h
404 06-03-2019 19:00:00 11.65833 C 8.48 g/m*3 11.66 C 1.86667 km/h
405 06-03-2019 20:00:00 10.65 C 8.31 g/m*3 10.65 C 0.4 km/h
406 06-03-2019 21:00:00 10.675 C 8.25 g/m*3 10.68 C 0.4 km/h
407 06-03-2019 22:00:00 10.66667 C 8.25 g/m*3 10.67 C 1.33333 km/h
408 06-03-2019 23:00:00 11.175 C 8.23 g/m*3 11.18 C 3.475 km/h
409 07-03-2019 00:00:00 11.05833 C 8.41 g/m*3 11.06 C 3.33333 km/h
410 07-03-2019 01:00:00 10.93333 C 8.72 g/m*3 10.93 C 2.26667 km/h
411 07-03-2019 02:00:00 10.025 C 8.63 g/m*3 10.03 C 0.53333 km/h
412 07-03-2019 03:00:00 9.58333 C 8.47 g/m*3 9.58 C 1.33333 km/h
413 07-03-2019 04:00:00 10.08333 C 8.37 g/m*3 10.08 C 3.46667 km/h
414 07-03-2019 05:00:00 11.45 C 8.2 g/m*3 11.45 C 9.40833 km/h
415 07-03-2019 06:00:00 12.05833 C 7.91 g/m*3 12.06 C 17.16667 km/h
416 07-03-2019 07:00:00 11.325 C 7.59 g/m*3 11.33 C 24.53333 km/h
417 07-03-2019 08:00:00 10.69167 C 7.45 g/m*3 7.94 C 23.58333 km/h
418 07-03-2019 09:00:00 10.06667 C 7.8 g/m*3 7.2 C 22.90833 km/h
419 07-03-2019 10:00:00 10.225 C 7.83 g/m*3 7.22 C 25.19167 km/h
420 07-03-2019 11:00:00 9.8 C 7.79 g/m*3 6.61 C 25.88333 km/h
421 07-03-2019 12:00:00 10.78333 C 7.37 g/m*3 8.11 C 22.94167 km/h
422 07-03-2019 13:00:00 12 C 7.32 g/m*3 12 C 19.70833 km/h
423 07-03-2019 14:00:00 10.40833 C 7.53 g/m*3 8.26 C 16.36667 km/h
424 07-03-2019 15:00:00 10.825 C 7.33 g/m*3 8.72 C 16.9 km/h
425 07-03-2019 16:00:00 9.88333 C 7.38 g/m*3 7.88 C 14.09167 km/h
Sensor: Nr:Datum:Temp:Abs-Feuchte:Windchill:Wind:
Aussen-T/F 426 07-03-2019 17:00:00 10.14167 C 7.11 g/m*3 8.18 C 14.23333 km/h
427 07-03-2019 18:00:00 9.45 C 6.57 g/m*3 7.2 C 15.3 km/h
428 07-03-2019 19:00:00 8.46667 C 6.77 g/m*3 6.09 C 14.5 km/h
429 07-03-2019 20:00:00 8.64167 C 6.6 g/m*3 5.82 C 18.5 km/h
430 07-03-2019 21:00:00 9.23333 C 6.67 g/m*3 6.58 C 18.36667 km/h
431 07-03-2019 22:00:00 9.2 C 6.67 g/m*3 6.59 C 17.83333 km/h
432 07-03-2019 23:00:00 8.64167 C 6.63 g/m*3 6.51 C 13.03333 km/h
433 08-03-2019 00:00:00 7.65833 C 6.81 g/m*3 5.87 C 9.80833 km/h
434 08-03-2019 01:00:00 7.05833 C 6.68 g/m*3 4.88 C 11.275 km/h
435 08-03-2019 02:00:00 8.15833 C 6.46 g/m*3 5.35 C 17.3 km/h
436 08-03-2019 03:00:00 8.15 C 6.27 g/m*3 5.34 C 17.3 km/h
437 08-03-2019 04:00:00 8.05 C 6.32 g/m*3 5.45 C 15.43333 km/h
438 08-03-2019 05:00:00 7.8 C 6.38 g/m*3 4.91 C 17.3 km/h
439 08-03-2019 06:00:00 7.60833 C 6.44 g/m*3 4.49 C 18.775 km/h
440 08-03-2019 07:00:00 7.7 C 6.52 g/m*3 4.39 C 20.775 km/h
441 08-03-2019 08:00:00 7.85 C 6.69 g/m*3 5.2 C 15.43333 km/h
442 08-03-2019 09:00:00 7.68333 C 6.91 g/m*3 5.2 C 13.96667 km/h
443 08-03-2019 10:00:00 7.75 C 6.92 g/m*3 5.57 C 12.1 km/h
444 08-03-2019 11:00:00 8.65833 C 6.84 g/m*3 6.53 C 13.03333 km/h
445 08-03-2019 12:00:00 9.21667 C 6.44 g/m*3 7.03 C 14.36667 km/h
446 08-03-2019 13:00:00 9.8 C 6.39 g/m*3 7.63 C 15.3 km/h
447 08-03-2019 14:00:00 10.34167 C 6.17 g/m*3 8.32 C 15.16667 km/h
448 08-03-2019 15:00:00 11.25 C 6.3 g/m*3 11.25 C 14.5 km/h
449 08-03-2019 16:00:00 10.26667 C 6.7 g/m*3 8.71 C 11.53333 km/h
450 08-03-2019 17:00:00 9.15833 C 6.91 g/m*3 7.81 C 9.00833 km/h
Sensor: Nr:Datum:Temp:Abs-Feuchte:Windchill:Wind:
Aussen-T/F 451 08-03-2019 18:00:00 7.425 C 6.79 g/m*3 6.63 C 5.625 km/h
452 08-03-2019 19:00:00 6.83333 C 6.73 g/m*3 6.83 C 1.06667 km/h
453 08-03-2019 20:00:00 6.3 C 6.63 g/m*3 6.3 C 0 km/h
454 08-03-2019 21:00:00 6.525 C 6.71 g/m*3 6.53 C 2.54167 km/h
455 08-03-2019 22:00:00 7.025 C 6.63 g/m*3 7.03 C 4.41667 km/h
456 08-03-2019 23:00:00 8.25833 C 6.55 g/m*3 7.31 C 6.56667 km/h
457 09-03-2019 00:00:00 8.56667 C 6.47 g/m*3 6.58 C 11.96667 km/h
458 09-03-2019 01:00:00 9.15833 C 6.47 g/m*3 6.65 C 16.9 km/h
459 09-03-2019 02:00:00 9.375 C 6.54 g/m*3 6.32 C 22.91667 km/h
460 09-03-2019 03:00:00 9.03333 C 6.75 g/m*3 5.29 C 30.29167 km/h
461 09-03-2019 04:00:00 7.95833 C 7 g/m*3 4.14 C 27.08333 km/h
462 09-03-2019 05:00:00 7.775 C 7.12 g/m*3 4.54 C 20.24167 km/h
463 09-03-2019 06:00:00 8.08333 C 7.31 g/m*3 5.71 C 13.83333 km/h
464 09-03-2019 07:00:00 8.63333 C 7.51 g/m*3 6.69 C 11.83333 km/h
465 09-03-2019 08:00:00 9.45 C 7.73 g/m*3 7.42 C 13.55833 km/h
466 09-03-2019 09:00:00 10.15833 C 7.94 g/m*3 7.91 C 16.76667 km/h
467 09-03-2019 10:00:00 10.50833 C 7.9 g/m*3 8.79 C 13.03333 km/h
468 09-03-2019 11:00:00 10.925 C 7.95 g/m*3 9.07 C 14.9 km/h
469 09-03-2019 12:00:00 11.71667 C 8.03 g/m*3 11.72 C 19.98333 km/h
470 09-03-2019 13:00:00 12.525 C 8.21 g/m*3 12.53 C 17.7 km/h
471 09-03-2019 14:00:00 13.48333 C 8.15 g/m*3 13.48 C 25.86667 km/h
472 09-03-2019 15:00:00 13.30833 C 7.96 g/m*3 13.31 C 26.675 km/h
473 09-03-2019 16:00:00 13.39167 C 7.37 g/m*3 13.39 C 29.625 km/h
474 09-03-2019 17:00:00 13.05833 C 6.9 g/m*3 13.06 C 23.46667 km/h
475 09-03-2019 18:00:00 12.01667 C 6.68 g/m*3 12.02 C 23.46667 km/h
Sensor: Nr:Datum:Temp:Abs-Feuchte:Windchill:Wind:
Aussen-T/F 476 09-03-2019 19:00:00 10.65833 C 7.27 g/m*3 8.99 C 12.89167 km/h
477 09-03-2019 20:00:00 9.45 C 7.46 g/m*3 9.45 C 3.89167 km/h
478 09-03-2019 21:00:00 9.66667 C 7.56 g/m*3 8.81 C 7.11667 km/h
479 09-03-2019 22:00:00 9.60833 C 7.33 g/m*3 8.74 C 7.125 km/h
480 09-03-2019 23:00:00 10.34167 C 6.85 g/m*3 8.48 C 13.83333 km/h
481 10-03-2019 00:00:00 10.11667 C 6.59 g/m*3 8.44 C 12.08333 km/h
482 10-03-2019 01:00:00 9.66667 C 6.48 g/m*3 8.91 C 6.70833 km/h
483 10-03-2019 02:00:00 9.40833 C 6.66 g/m*3 8.71 C 6.29167 km/h
484 10-03-2019 03:00:00 9.1 C 6.86 g/m*3 9.1 C 1.06667 km/h
485 10-03-2019 04:00:00 8.325 C 7.18 g/m*3 8.32 C 0 km/h
486 10-03-2019 05:00:00 7.8 C 7.42 g/m*3 7.8 C 0 km/h
487 10-03-2019 06:00:00 7.475 C 7.47 g/m*3 7.48 C 0 km/h
488 10-03-2019 07:00:00 7.675 C 7.68 g/m*3 7.68 C 0 km/h
489 10-03-2019 08:00:00 8.86667 C 8.38 g/m*3 7.69 C 7.925 km/h
490 10-03-2019 09:00:00 10.58333 C 9.28 g/m*3 9.25 C 10.475 km/h
491 10-03-2019 10:00:00 11.95833 C 9.92 g/m*3 11.96 C 9.825 km/h
492 10-03-2019 11:00:00 13.14167 C 9.01 g/m*3 13.14 C 21.175 km/h
493 10-03-2019 12:00:00 14.125 C 8.78 g/m*3 14.13 C 24.65833 km/h
494 10-03-2019 13:00:00 14.4 C 7.98 g/m*3 14.4 C 30.575 km/h
495 10-03-2019 14:00:00 14.40833 C 6.43 g/m*3 14.41 C 39.13333 km/h
496 10-03-2019 15:00:00 13.55833 C 5.9 g/m*3 13.56 C 37 km/h
497 10-03-2019 16:00:00 12.53333 C 5.53 g/m*3 12.53 C 36.475 km/h
498 10-03-2019 17:00:00 10.38333 C 6.06 g/m*3 7.75 C 21.19167 km/h
499 10-03-2019 18:00:00 7.69167 C 6.5 g/m*3 4.44 C 20.25 km/h
500 10-03-2019 19:00:00 6.94167 C 6.07 g/m*3 3.5 C 20.10833 km/h
Sensor: Nr:Datum:Temp:Abs-Feuchte:Windchill:Wind:
Aussen-T/F 501 10-03-2019 20:00:00 6.075 C 5.5 g/m*3 1.97 C 24.26667 km/h
502 10-03-2019 21:00:00 5.21667 C 5.46 g/m*3 2.27 C 13.43333 km/h
503 10-03-2019 22:00:00 5.05833 C 5.45 g/m*3 2.79 C 9.7 km/h
504 10-03-2019 23:00:00 4.85833 C 5.41 g/m*3 2.72 C 8.99167 km/h
505 11-03-2019 00:00:00 4.34167 C 5.27 g/m*3 3.1 C 5.61667 km/h
506 11-03-2019 01:00:00 4.50833 C 5.24 g/m*3 2.11 C 9.80833 km/h
507 11-03-2019 02:00:00 5.10833 C 5.4 g/m*3 1.94 C 14.63333 km/h
508 11-03-2019 03:00:00 3.65833 C 5.3 g/m*3 0.78 C 11.26667 km/h
509 11-03-2019 04:00:00 2.36667 C 5.27 g/m*3 2.37 C 1.86667 km/h
510 11-03-2019 05:00:00 2.20833 C 5.23 g/m*3 -1.96 C 16.63333 km/h
511 11-03-2019 06:00:00 1.74167 C 5.05 g/m*3 -0.9 C 8.71667 km/h
512 11-03-2019 07:00:00 1.525 C 5.07 g/m*3 1.53 C 3.33333 km/h
513 11-03-2019 08:00:00 2.31667 C 5.39 g/m*3 2.32 C 4.28333 km/h
514 11-03-2019 09:00:00 3.34167 C 5.44 g/m*3 -0.07 C 13.7 km/h
515 11-03-2019 10:00:00 3.925 C 5.59 g/m*3 0.76 C 13.03333 km/h
516 11-03-2019 11:00:00 4.875 C 5.55 g/m*3 1.72 C 14.23333 km/h
517 11-03-2019 12:00:00 5.60833 C 5.4 g/m*3 2.36 C 15.96667 km/h
518 11-03-2019 13:00:00 6.575 C 5.41 g/m*3 3.23 C 18.5 km/h
519 11-03-2019 14:00:00 7.04167 C 5.45 g/m*3 3.75 C 19.04167 km/h
520 11-03-2019 15:00:00 7.63333 C 5.39 g/m*3 4.12 C 22.64167 km/h
521 11-03-2019 16:00:00 7.26667 C 5.38 g/m*3 4.04 C 19.03333 km/h
522 11-03-2019 17:00:00 7.175 C 5.5 g/m*3 4.88 C 12.08333 km/h
523 11-03-2019 18:00:00 6.93333 C 5.3 g/m*3 4.6 C 11.96667 km/h
524 11-03-2019 19:00:00 5.83333 C 5.22 g/m*3 2.89 C 14.23333 km/h
525 11-03-2019 20:00:00 5.68333 C 5.22 g/m*3 2.75 C 13.96667 km/h
Sensor: Nr:Datum:Temp:Abs-Feuchte:Windchill:Wind:
Aussen-T/F 526 11-03-2019 21:00:00 5.28333 C 5.19 g/m*3 3.06 C 9.69167 km/h
527 11-03-2019 22:00:00 5.34167 C 5.17 g/m*3 3.32 C 8.86667 km/h
528 11-03-2019 23:00:00 4.75 C 5.08 g/m*3 3.52 C 5.75833 km/h
529 12-03-2019 00:00:00 4.19167 C 5.16 g/m*3 2.61 C 6.55833 km/h
530 12-03-2019 01:00:00 3.225 C 5.08 g/m*3 3.23 C 4.41667 km/h
531 12-03-2019 02:00:00 2.15833 C 4.89 g/m*3 2.16 C 3.875 km/h
532 12-03-2019 03:00:00 1.65833 C 4.82 g/m*3 1.66 C 4.41667 km/h
533 12-03-2019 04:00:00 1.33333 C 4.75 g/m*3 1.33 C 4.40833 km/h
534 12-03-2019 05:00:00 1.625 C 4.88 g/m*3 1.63 C 3.6 km/h
535 12-03-2019 06:00:00 1.76667 C 4.9 g/m*3 1.77 C 2.93333 km/h
536 12-03-2019 07:00:00 1.93333 C 5.02 g/m*3 1.93 C 0 km/h
537 12-03-2019 08:00:00 3.25 C 5.38 g/m*3 3.25 C 1.33333 km/h
538 12-03-2019 09:00:00 5.20833 C 5.68 g/m*3 5.21 C 2.28333 km/h
539 12-03-2019 10:00:00 7.4 C 5.75 g/m*3 5.31 C 11.16667 km/h
540 12-03-2019 11:00:00 8.78333 C 5.53 g/m*3 6.67 C 13.16667 km/h
541 12-03-2019 12:00:00 9.40833 C 5.54 g/m*3 7.58 C 12.09167 km/h
542 12-03-2019 13:00:00 9.74167 C 5.49 g/m*3 8.26 C 10.35 km/h
543 12-03-2019 14:00:00 10.18333 C 5.48 g/m*3 9.15 C 8.34167 km/h
544 12-03-2019 15:00:00 10.56667 C 5.26 g/m*3 9.15 C 11.025 km/h
545 12-03-2019 16:00:00 10.33333 C 4.82 g/m*3 9.47 C 7.65833 km/h
546 12-03-2019 17:00:00 9.34167 C 5 g/m*3 9.34 C 1.6 km/h
547 12-03-2019 18:00:00 8.1 C 5.1 g/m*3 8.1 C 2.275 km/h
548 12-03-2019 19:00:00 8.725 C 4.69 g/m*3 8.73 C 4.01667 km/h
549 12-03-2019 20:00:00 9.425 C 4.21 g/m*3 8.69 C 6.45 km/h
550 12-03-2019 21:00:00 10.74167 C 4.5 g/m*3 9.26 C 11.68333 km/h
Sensor: Nr:Datum:Temp:Abs-Feuchte:Windchill:Wind:
Aussen-T/F 551 12-03-2019 22:00:00 11.14167 C 5.45 g/m*3 11.14 C 22.93333 km/h
552 12-03-2019 23:00:00 8.53333 C 6.56 g/m*3 5.7 C 18.36667 km/h
553 13-03-2019 00:00:00 6.53333 C 6.06 g/m*3 3.69 C 14.63333 km/h
554 13-03-2019 01:00:00 5.74167 C 5.67 g/m*3 2.62 C 15.3 km/h
555 13-03-2019 02:00:00 5.425 C 5.6 g/m*3 3.01 C 10.75833 km/h
556 13-03-2019 03:00:00 5.74167 C 5.51 g/m*3 3.16 C 11.95 km/h
557 13-03-2019 04:00:00 5.53333 C 5.61 g/m*3 3.01 C 11.40833 km/h
558 13-03-2019 05:00:00 5.34167 C 5.77 g/m*3 2.33 C 13.95833 km/h
559 13-03-2019 06:00:00 5.16667 C 5.69 g/m*3 1.53 C 17.96667 km/h
560 13-03-2019 07:00:00 5.46667 C 5.65 g/m*3 1.69 C 19.71667 km/h
561 13-03-2019 08:00:00 6.08333 C 5.85 g/m*3 2.68 C 17.96667 km/h
562 13-03-2019 09:00:00 6.5 C 5.84 g/m*3 2.96 C 19.975 km/h
563 13-03-2019 10:00:00 6.94167 C 5.96 g/m*3 3.09 C 24.125 km/h
564 13-03-2019 11:00:00 7.81667 C 6.14 g/m*3 4.23 C 23.98333 km/h
565 13-03-2019 12:00:00 8.15833 C 6.22 g/m*3 4.85 C 21.975 km/h
566 13-03-2019 13:00:00 7.95833 C 6.31 g/m*3 4.31 C 25.075 km/h
567 13-03-2019 14:00:00 8.05 C 6.48 g/m*3 4.83 C 20.775 km/h
568 13-03-2019 15:00:00 7.79167 C 6.54 g/m*3 4.68 C 19.175 km/h
569 13-03-2019 16:00:00 6.825 C 6.69 g/m*3 4.15 C 13.96667 km/h
570 13-03-2019 17:00:00 6.65833 C 6.66 g/m*3 3.48 C 17.3 km/h
571 13-03-2019 18:00:00 6.55 C 6.6 g/m*3 3.45 C 16.5 km/h
572 13-03-2019 19:00:00 4.95833 C 6.23 g/m*3 2.34 C 11.29167 km/h
573 13-03-2019 20:00:00 4.94167 C 6.24 g/m*3 1.91 C 13.56667 km/h
574 13-03-2019 21:00:00 4.94167 C 6.27 g/m*3 2.24 C 11.7 km/h
575 13-03-2019 22:00:00 5.04167 C 6.34 g/m*3 2.97 C 8.86667 km/h
Sensor: Nr:Datum:Temp:Abs-Feuchte:Windchill:Wind:
Aussen-T/F 576 13-03-2019 23:00:00 4.725 C 6.18 g/m*3 2.91 C 7.65 km/h
577 14-03-2019 00:00:00 4.65 C 6.14 g/m*3 1.57 C 13.43333 km/h
578 14-03-2019 01:00:00 5.13333 C 6.21 g/m*3 2.95 C 9.39167 km/h
579 14-03-2019 02:00:00 4.81667 C 6.17 g/m*3 3.01 C 7.66667 km/h
580 14-03-2019 03:00:00 4.46667 C 6.1 g/m*3 2.97 C 6.43333 km/h
581 14-03-2019 04:00:00 5.05 C 6.36 g/m*3 3.25 C 7.78333 km/h
582 14-03-2019 05:00:00 5.73333 C 6.54 g/m*3 3.75 C 9 km/h
583 14-03-2019 06:00:00 6.13333 C 6.53 g/m*3 4.26 C 8.85833 km/h
584 14-03-2019 07:00:00 6.35 C 6.48 g/m*3 3.55 C 14.1 km/h
585 14-03-2019 08:00:00 6.70833 C 6.51 g/m*3 4.22 C 12.625 km/h
586 14-03-2019 09:00:00 6.41667 C 6.63 g/m*3 3.93 C 12.23333 km/h
587 14-03-2019 10:00:00 6.55 C 6.64 g/m*3 3.62 C 15.3 km/h
588 14-03-2019 11:00:00 6.55833 C 6.71 g/m*3 3.74 C 14.5 km/h
589 14-03-2019 12:00:00 7.15 C 6.94 g/m*3 3.89 C 19.03333 km/h
590 14-03-2019 13:00:00 7.30833 C 7 g/m*3 3.32 C 26.825 km/h
591 14-03-2019 14:00:00 7.33333 C 6.96 g/m*3 3.57 C 24.39167 km/h
592 14-03-2019 15:00:00 7.69167 C 7.31 g/m*3 4.45 C 20.1 km/h
593 14-03-2019 16:00:00 8.875 C 7.54 g/m*3 6.19 C 17.84167 km/h
594 14-03-2019 17:00:00 9.85833 C 7.88 g/m*3 7.53 C 16.76667 km/h
595 14-03-2019 18:00:00 9.875 C 7.7 g/m*3 8.54 C 9.68333 km/h
596 14-03-2019 19:00:00 9.54167 C 7.07 g/m*3 7.4 C 14.61667 km/h
597 14-03-2019 20:00:00 7.96667 C 7.02 g/m*3 6.37 C 9.13333 km/h
598 14-03-2019 21:00:00 8.2 C 6.95 g/m*3 7.35 C 6.16667 km/h
599 14-03-2019 22:00:00 8.38333 C 6.76 g/m*3 6.4 C 11.7 km/h
600 14-03-2019 23:00:00 8.11667 C 6.6 g/m*3 6.08 C 11.69167 km/h
Sensor: Nr:Datum:Temp:Abs-Feuchte:Windchill:Wind:
Aussen-T/F 601 15-03-2019 00:00:00 7.11667 C 6.48 g/m*3 5.42 C 8.88333 km/h
602 15-03-2019 01:00:00 6.38333 C 6.39 g/m*3 4.55 C 8.86667 km/h
603 15-03-2019 02:00:00 6.86667 C 6.57 g/m*3 5.62 C 6.84167 km/h
604 15-03-2019 03:00:00 6.40833 C 6.49 g/m*3 6.41 C 4.81667 km/h
605 15-03-2019 04:00:00 6.04167 C 6.5 g/m*3 6.04 C 4 km/h
606 15-03-2019 05:00:00 7.00833 C 6.79 g/m*3 5.24 C 9.13333 km/h
607 15-03-2019 06:00:00 7.225 C 7.08 g/m*3 7.23 C 4.16667 km/h
608 15-03-2019 07:00:00 7.125 C 7.25 g/m*3 5.43 C 8.85833 km/h
609 15-03-2019 08:00:00 7.49167 C 7.52 g/m*3 6.02 C 8.19167 km/h
610 15-03-2019 09:00:00 8.2 C 7.87 g/m*3 5.67 C 15.16667 km/h
611 15-03-2019 10:00:00 9.375 C 8.49 g/m*3 6.96 C 16.5 km/h
612 15-03-2019 11:00:00 11.05 C 9.2 g/m*3 11.05 C 18.63333 km/h
613 15-03-2019 12:00:00 12.38333 C 9.66 g/m*3 12.38 C 17.03333 km/h
614 15-03-2019 13:00:00 13.11667 C 9.66 g/m*3 13.12 C 18.9 km/h
615 15-03-2019 14:00:00 13.66667 C 9.56 g/m*3 13.67 C 21.43333 km/h
616 15-03-2019 15:00:00 13.51667 C 9.69 g/m*3 13.52 C 17.70833 km/h
617 15-03-2019 16:00:00 13.38333 C 9.52 g/m*3 13.38 C 19.03333 km/h
618 15-03-2019 17:00:00 13.03333 C 9.4 g/m*3 13.03 C 16.23333 km/h
619 15-03-2019 18:00:00 12.70833 C 9.38 g/m*3 12.71 C 20.10833 km/h
620 15-03-2019 19:00:00 12.64167 C 9.38 g/m*3 12.64 C 14.63333 km/h
621 15-03-2019 20:00:00 12.10833 C 9.45 g/m*3 12.11 C 14.23333 km/h
622 15-03-2019 21:00:00 12.25 C 9.38 g/m*3 12.25 C 14.23333 km/h
623 15-03-2019 22:00:00 12.4 C 9.31 g/m*3 12.4 C 12.61667 km/h
624 15-03-2019 23:00:00 11.85833 C 9.28 g/m*3 11.86 C 7.78333 km/h
625 16-03-2019 00:00:00 11.575 C 9.18 g/m*3 11.58 C 13.29167 km/h
Sensor: Nr:Datum:Temp:Abs-Feuchte:Windchill:Wind:
Aussen-T/F 626 16-03-2019 01:00:00 9.79167 C 8.51 g/m*3 7.84 C 13.56667 km/h
627 16-03-2019 02:00:00 8.93333 C 8.09 g/m*3 7.29 C 10.35 km/h
628 16-03-2019 03:00:00 8.41667 C 7.96 g/m*3 8.42 C 1.86667 km/h
629 16-03-2019 04:00:00 8.3 C 8.01 g/m*3 8.3 C 0 km/h
630 16-03-2019 05:00:00 8.3 C 8.01 g/m*3 8.3 C 0 km/h
631 16-03-2019 06:00:00 8.73333 C 8.35 g/m*3 8.73 C 4.7 km/h
632 16-03-2019 07:00:00 9.88333 C 8.87 g/m*3 7.65 C 15.96667 km/h
633 16-03-2019 08:00:00 10.375 C 8.96 g/m*3 8.85 C 11.41667 km/h
634 16-03-2019 09:00:00 10.71667 C 9.02 g/m*3 8.87 C 14.35833 km/h
635 16-03-2019 10:00:00 10.84167 C 8.92 g/m*3 9.04 C 14.23333 km/h
636 16-03-2019 11:00:00 10.825 C 8.84 g/m*3 8.69 C 17.16667 km/h
637 16-03-2019 12:00:00 11.46667 C 8.66 g/m*3 11.47 C 19.18333 km/h
638 16-03-2019 13:00:00 11.75833 C 8.4 g/m*3 11.76 C 17.7 km/h
639 16-03-2019 14:00:00 11.125 C 8.15 g/m*3 11.13 C 19.30833 km/h
640 16-03-2019 15:00:00 10.94167 C 7.84 g/m*3 9.32 C 13.025 km/h
641 16-03-2019 16:00:00 10.99167 C 7.75 g/m*3 9.43 C 12.625 km/h
642 16-03-2019 17:00:00 10.9 C 7.58 g/m*3 9.28 C 12.9 km/h
643 16-03-2019 18:00:00 10.69167 C 7.5 g/m*3 9.12 C 12.225 km/h
644 16-03-2019 19:00:00 10.43333 C 7.34 g/m*3 8.53 C 14.36667 km/h
645 16-03-2019 20:00:00 10.31667 C 7.24 g/m*3 8.57 C 12.88333 km/h
646 16-03-2019 21:00:00 10.10833 C 7.39 g/m*3 8 C 15.43333 km/h
647 16-03-2019 22:00:00 10.09167 C 7.47 g/m*3 7.57 C 19.16667 km/h
648 16-03-2019 23:00:00 10.11667 C 7.48 g/m*3 7.68 C 18.36667 km/h
649 17-03-2019 00:00:00 10.29167 C 7.45 g/m*3 7.92 C 18.23333 km/h
650 17-03-2019 01:00:00 10.425 C 7.43 g/m*3 7.84 C 20.775 km/h
Sensor: Nr:Datum:Temp:Abs-Feuchte:Windchill:Wind:
Aussen-T/F 651 17-03-2019 02:00:00 10.20833 C 7.39 g/m*3 8.06 C 15.96667 km/h
652 17-03-2019 03:00:00 10.19167 C 7.32 g/m*3 8.37 C 13.3 km/h
653 17-03-2019 04:00:00 10.11667 C 7.2 g/m*3 7.99 C 15.56667 km/h
654 17-03-2019 05:00:00 10.28333 C 7.15 g/m*3 7.99 C 17.43333 km/h
655 17-03-2019 06:00:00 10.23333 C 7.08 g/m*3 8.12 C 15.69167 km/h
656 17-03-2019 07:00:00 10.24167 C 7.25 g/m*3 7.88 C 17.975 km/h
657 17-03-2019 08:00:00 10.2 C 7.5 g/m*3 8.11 C 15.43333 km/h
658 17-03-2019 09:00:00 10.26667 C 7.61 g/m*3 7.97 C 17.43333 km/h
659 17-03-2019 10:00:00 9.89167 C 7.71 g/m*3 7.65 C 16.1 km/h
660 17-03-2019 11:00:00 8.075 C 6.98 g/m*3 5.88 C 12.63333 km/h
661 17-03-2019 12:00:00 8.78333 C 6.87 g/m*3 6.59 C 13.7 km/h
662 17-03-2019 13:00:00 9.80833 C 7.03 g/m*3 8.07 C 12.1 km/h
663 17-03-2019 14:00:00 10.71667 C 6.35 g/m*3 8.59 C 16.9 km/h
664 17-03-2019 15:00:00 11.01667 C 6.55 g/m*3 11.02 C 15.03333 km/h
665 17-03-2019 16:00:00 10.05 C 6.09 g/m*3 7.78 C 16.64167 km/h
666 17-03-2019 17:00:00 7.89167 C 5.7 g/m*3 5.48 C 13.81667 km/h
667 17-03-2019 18:00:00 7.01667 C 5.86 g/m*3 4.53 C 13.03333 km/h
668 17-03-2019 19:00:00 5.95833 C 5.83 g/m*3 3.9 C 9.53333 km/h
669 17-03-2019 20:00:00 4.51667 C 5.85 g/m*3 2.52 C 8.19167 km/h
670 17-03-2019 21:00:00 4.025 C 5.76 g/m*3 2.33 C 6.825 km/h
671 17-03-2019 22:00:00 3.875 C 5.66 g/m*3 1.39 C 9.68333 km/h
672 17-03-2019 23:00:00 3.83333 C 5.53 g/m*3 1.71 C 8.20833 km/h
673 18-03-2019 00:00:00 2.95 C 5.33 g/m*3 1.35 C 6.04167 km/h
674 18-03-2019 01:00:00 2.55 C 5.29 g/m*3 0.4 C 7.50833 km/h
675 18-03-2019 02:00:00 3.225 C 5.49 g/m*3 -0.07 C 12.89167 km/h
Sensor: Nr:Datum:Temp:Abs-Feuchte:Windchill:Wind:
Aussen-T/F 676 18-03-2019 03:00:00 3.61667 C 5.47 g/m*3 1.77 C 7.1 km/h
677 18-03-2019 04:00:00 3.25 C 5.41 g/m*3 2.02 C 5.2 km/h
678 18-03-2019 05:00:00 3.10833 C 5.37 g/m*3 0.82 C 8.33333 km/h
679 18-03-2019 06:00:00 3.95833 C 5.48 g/m*3 0.95 C 12.23333 km/h
680 18-03-2019 07:00:00 4.225 C 5.58 g/m*3 1.35 C 11.825 km/h
681 18-03-2019 08:00:00 5.04167 C 5.84 g/m*3 2.19 C 12.63333 km/h
682 18-03-2019 09:00:00 5.06667 C 6.11 g/m*3 2.84 C 9.54167 km/h
683 18-03-2019 10:00:00 6.36667 C 6.37 g/m*3 3.99 C 11.55 km/h
684 18-03-2019 11:00:00 7.74167 C 6.29 g/m*3 5.14 C 14.9 km/h
685 18-03-2019 12:00:00 8.06667 C 5.97 g/m*3 5.44 C 15.7 km/h
686 18-03-2019 13:00:00 6.66667 C 6.43 g/m*3 5.21 C 7.51667 km/h
687 18-03-2019 14:00:00 8.43333 C 6.18 g/m*3 6.72 C 10.21667 km/h
688 18-03-2019 15:00:00 6.71667 C 6.54 g/m*3 6.72 C 4.55 km/h
689 18-03-2019 16:00:00 6.875 C 6.62 g/m*3 6.88 C 3.75 km/h
690 18-03-2019 17:00:00 7.95833 C 6.13 g/m*3 6.97 C 6.56667 km/h
691 18-03-2019 18:00:00 7.49167 C 6.03 g/m*3 7.49 C 2.66667 km/h
692 18-03-2019 19:00:00 5.20833 C 5.88 g/m*3 5.21 C 4.53333 km/h
693 18-03-2019 20:00:00 4.01667 C 5.47 g/m*3 4.02 C 3.86667 km/h
694 18-03-2019 21:00:00 3.09167 C 5.26 g/m*3 3.09 C 1.6 km/h
695 18-03-2019 22:00:00 2.04167 C 5 g/m*3 2.04 C 0.66667 km/h
696 18-03-2019 23:00:00 1.48333 C 4.93 g/m*3 1.48 C 0 km/h
697 19-03-2019 00:00:00 0.93333 C 4.77 g/m*3 0.93 C 0 km/h
698 19-03-2019 01:00:00 0.35833 C 4.62 g/m*3 0.36 C 0 km/h
699 19-03-2019 02:00:00 -0.04167 C 4.53 g/m*3 -0.04 C 0 km/h
700 19-03-2019 03:00:00 -0.3 C 4.46 g/m*3 -0.3 C 0 km/h
Sensor: Nr:Datum:Temp:Abs-Feuchte:Windchill:Wind:
Aussen-T/F 701 19-03-2019 04:00:00 -0.70833 C 4.34 g/m*3 -0.71 C 0 km/h
702 19-03-2019 05:00:00 -1.03333 C 4.25 g/m*3 -1.03 C 0 km/h
703 19-03-2019 06:00:00 -1.2 C 4.22 g/m*3 -1.2 C 0 km/h
704 19-03-2019 07:00:00 -0.375 C 4.49 g/m*3 -0.38 C 0.8 km/h
705 19-03-2019 08:00:00 -0.04167 C 4.59 g/m*3 -0.04 C 0 km/h
706 19-03-2019 09:00:00 0.675 C 4.83 g/m*3 0.68 C 0.13333 km/h
707 19-03-2019 10:00:00 2.36667 C 5.39 g/m*3 2.37 C 0 km/h
708 19-03-2019 11:00:00 5.125 C 5.92 g/m*3 5.13 C 1.60833 km/h
709 19-03-2019 12:00:00 7.29167 C 5.42 g/m*3 7.29 C 3.75 km/h
710 19-03-2019 13:00:00 8.93333 C 5.14 g/m*3 7.8 C 7.78333 km/h
711 19-03-2019 14:00:00 9.975 C 5.3 g/m*3 9.7 C 5.09167 km/h
712 19-03-2019 15:00:00 10.15 C 5.05 g/m*3 9.12 C 8.33333 km/h
713 19-03-2019 16:00:00 11.51667 C 5.01 g/m*3 11.52 C 4.96667 km/h
714 19-03-2019 17:00:00 12.00833 C 4.83 g/m*3 12.01 C 6.85 km/h
715 19-03-2019 18:00:00 9.65 C 5.58 g/m*3 9.65 C 0 km/h
716 19-03-2019 19:00:00 5.6 C 5.46 g/m*3 5.6 C 0 km/h
717 19-03-2019 20:00:00 4.4 C 5.32 g/m*3 4.4 C 0 km/h
718 19-03-2019 21:00:00 3.1 C 5.09 g/m*3 3.1 C 0 km/h
719 19-03-2019 22:00:00 2.025 C 4.84 g/m*3 2.03 C 0 km/h
720 19-03-2019 23:00:00 1.68333 C 4.77 g/m*3 1.68 C 0.13333 km/h
721 20-03-2019 00:00:00 0.8 C 4.56 g/m*3 0.8 C 0 km/h
722 20-03-2019 01:00:00 0.35833 C 4.51 g/m*3 0.36 C 0 km/h
723 20-03-2019 02:00:00 -0.16667 C 4.38 g/m*3 -0.17 C 0 km/h
724 20-03-2019 03:00:00 -0.55 C 4.29 g/m*3 -0.55 C 0 km/h
725 20-03-2019 04:00:00 -0.90833 C 4.22 g/m*3 -0.91 C 0 km/h
Sensor: Nr:Datum:Temp:Abs-Feuchte:Windchill:Wind:
Aussen-T/F 726 20-03-2019 05:00:00 -1.10833 C 4.18 g/m*3 -1.11 C 0 km/h
727 20-03-2019 06:00:00 -1.225 C 4.17 g/m*3 -1.23 C 0 km/h
728 20-03-2019 07:00:00 -1.08333 C 4.22 g/m*3 -1.08 C 0 km/h
729 20-03-2019 08:00:00 -0.675 C 4.37 g/m*3 -0.68 C 0 km/h
730 20-03-2019 09:00:00 0.575 C 4.79 g/m*3 0.57 C 0 km/h
731 20-03-2019 10:00:00 4.26667 C 5.82 g/m*3 4.27 C 0 km/h
732 20-03-2019 11:00:00 8.875 C 6.06 g/m*3 8.88 C 1.73333 km/h
733 20-03-2019 12:00:00 11.63333 C 5.89 g/m*3 11.63 C 5.9 km/h
734 20-03-2019 13:00:00 13.15833 C 5.54 g/m*3 13.16 C 6.70833 km/h
735 20-03-2019 14:00:00 13.75833 C 5.52 g/m*3 13.76 C 6.55833 km/h
736 20-03-2019 15:00:00 13.64167 C 5.61 g/m*3 13.64 C 6.85833 km/h
737 20-03-2019 16:00:00 14.11667 C 5.86 g/m*3 14.12 C 8.075 km/h
738 20-03-2019 17:00:00 14.83333 C 6.28 g/m*3 14.83 C 1.6 km/h
739 20-03-2019 18:00:00 11.88333 C 6.7 g/m*3 11.88 C 0 km/h
740 20-03-2019 19:00:00 8.5 C 6.26 g/m*3 8.5 C 0 km/h
741 20-03-2019 20:00:00 6.85 C 6.08 g/m*3 6.85 C 0 km/h
742 20-03-2019 21:00:00 5.43333 C 5.85 g/m*3 5.43 C 0 km/h
743 20-03-2019 22:00:00 4.725 C 5.7 g/m*3 4.72 C 0 km/h
744 20-03-2019 23:00:00 3.81667 C 5.49 g/m*3 3.82 C 0 km/h
745 21-03-2019 00:00:00 3.31667 C 5.39 g/m*3 3.32 C 0.13333 km/h
746 21-03-2019 01:00:00 2.55 C 5.14 g/m*3 2.55 C 0 km/h
747 21-03-2019 02:00:00 1.81667 C 4.99 g/m*3 1.82 C 0 km/h
748 21-03-2019 03:00:00 1.30833 C 4.87 g/m*3 1.31 C 0 km/h
749 21-03-2019 04:00:00 0.99167 C 4.82 g/m*3 0.99 C 0 km/h
750 21-03-2019 05:00:00 0.61667 C 4.72 g/m*3 0.62 C 0 km/h
Sensor: Nr:Datum:Temp:Abs-Feuchte:Windchill:Wind:
Aussen-T/F 751 21-03-2019 06:00:00 0.33333 C 4.66 g/m*3 0.33 C 0 km/h
752 21-03-2019 07:00:00 0.6 C 4.76 g/m*3 0.6 C 0 km/h
753 21-03-2019 08:00:00 1.24167 C 5.01 g/m*3 1.24 C 0 km/h
754 21-03-2019 09:00:00 2.50833 C 5.46 g/m*3 2.51 C 0 km/h
755 21-03-2019 10:00:00 5.54167 C 6.37 g/m*3 5.54 C 0.13333 km/h
756 21-03-2019 11:00:00 9.275 C 6.78 g/m*3 9.28 C 0.26667 km/h
757 21-03-2019 12:00:00 12.99167 C 6.11 g/m*3 12.99 C 7.525 km/h
758 21-03-2019 13:00:00 15.43333 C 5.73 g/m*3 15.43 C 4.95833 km/h
759 21-03-2019 14:00:00 16.23333 C 5.45 g/m*3 16.23 C 5.89167 km/h
760 21-03-2019 15:00:00 16.43333 C 5.45 g/m*3 16.43 C 5.625 km/h
761 21-03-2019 16:00:00 17.625 C 5.67 g/m*3 17.63 C 7.775 km/h
762 21-03-2019 17:00:00 18.01667 C 5.84 g/m*3 18.02 C 6.575 km/h
763 21-03-2019 18:00:00 14.68333 C 6.62 g/m*3 14.68 C 5.2 km/h
764 21-03-2019 19:00:00 10.96667 C 6.42 g/m*3 10.97 C 3.33333 km/h
765 21-03-2019 20:00:00 9.20833 C 6.41 g/m*3 9.21 C 0.66667 km/h
766 21-03-2019 21:00:00 7.65 C 6.05 g/m*3 7.65 C 0 km/h
767 21-03-2019 22:00:00 6.15833 C 5.77 g/m*3 6.16 C 0 km/h
768 21-03-2019 23:00:00 5.26667 C 5.67 g/m*3 5.27 C 0 km/h
769 22-03-2019 00:00:00 4.425 C 5.54 g/m*3 4.43 C 0 km/h
770 22-03-2019 01:00:00 3.69167 C 5.43 g/m*3 3.69 C 0 km/h
771 22-03-2019 02:00:00 3.03333 C 5.27 g/m*3 3.03 C 0 km/h
772 22-03-2019 03:00:00 2.20833 C 5.08 g/m*3 2.21 C 0 km/h
773 22-03-2019 04:00:00 1.74167 C 5.02 g/m*3 1.74 C 0 km/h
774 22-03-2019 05:00:00 1.53333 C 5 g/m*3 1.53 C 0 km/h
775 22-03-2019 06:00:00 1.06667 C 4.86 g/m*3 1.07 C 0 km/h
Sensor: Nr:Datum:Temp:Abs-Feuchte:Windchill:Wind:
Aussen-T/F 776 22-03-2019 07:00:00 1.24167 C 4.96 g/m*3 1.24 C 0 km/h
777 22-03-2019 08:00:00 1.95833 C 5.26 g/m*3 1.96 C 0 km/h
778 22-03-2019 09:00:00 3.70833 C 5.94 g/m*3 3.71 C 0 km/h
779 22-03-2019 10:00:00 7.06667 C 7.02 g/m*3 7.07 C 0 km/h
780 22-03-2019 11:00:00 11.70833 C 7.63 g/m*3 11.71 C 0 km/h
781 22-03-2019 12:00:00 15.65 C 7.08 g/m*3 15.65 C 3.225 km/h
782 22-03-2019 13:00:00 18.11667 C 6.47 g/m*3 18.12 C 10.20833 km/h
783 22-03-2019 14:00:00 19.29167 C 5.97 g/m*3 19.29 C 7.38333 km/h
784 22-03-2019 15:00:00 19.26667 C 6.4 g/m*3 19.27 C 9.55 km/h
785 22-03-2019 16:00:00 19.83333 C 6.46 g/m*3 19.83 C 5.75833 km/h
786 22-03-2019 17:00:00 20.95833 C 6.47 g/m*3 20.96 C 6.16667 km/h
787 22-03-2019 18:00:00 16.7 C 7.19 g/m*3 16.7 C 4.53333 km/h
788 22-03-2019 19:00:00 12.225 C 6.86 g/m*3 12.23 C 5.46667 km/h
789 22-03-2019 20:00:00 10.825 C 6.74 g/m*3 10.83 C 4.66667 km/h
790 22-03-2019 21:00:00 9.1 C 6.45 g/m*3 9.1 C 0.4 km/h
791 22-03-2019 22:00:00 7.775 C 6.35 g/m*3 7.78 C 1.06667 km/h
792 22-03-2019 23:00:00 6.66667 C 6.08 g/m*3 6.67 C 0 km/h
793 23-03-2019 00:00:00 5.5 C 5.83 g/m*3 5.5 C 0 km/h
794 23-03-2019 01:00:00 4.74167 C 5.71 g/m*3 4.74 C 0 km/h
795 23-03-2019 02:00:00 4.05 C 5.62 g/m*3 4.05 C 0 km/h
796 23-03-2019 03:00:00 3.69167 C 5.54 g/m*3 3.69 C 0 km/h
797 23-03-2019 04:00:00 3.425 C 5.51 g/m*3 3.43 C 0 km/h
798 23-03-2019 05:00:00 3.28333 C 5.44 g/m*3 3.28 C 0 km/h
799 23-03-2019 06:00:00 2.525 C 5.25 g/m*3 2.53 C 0 km/h
800 23-03-2019 07:00:00 4.06667 C 6.02 g/m*3 4.07 C 3.08333 km/h
Sensor: Nr:Datum:Temp:Abs-Feuchte:Windchill:Wind:
Aussen-T/F 801 23-03-2019 08:00:00 6.20833 C 6.99 g/m*3 6.21 C 3.075 km/h
802 23-03-2019 09:00:00 6.63333 C 7.14 g/m*3 6.63 C 0 km/h
803 23-03-2019 10:00:00 7.18333 C 7.35 g/m*3 6.31 C 5.75 km/h
804 23-03-2019 11:00:00 7.53333 C 7.43 g/m*3 6.67 C 5.89167 km/h
805 23-03-2019 12:00:00 8.125 C 7.5 g/m*3 7.23 C 6.3 km/h
806 23-03-2019 13:00:00 8.775 C 7.5 g/m*3 7.74 C 7.25833 km/h
807 23-03-2019 14:00:00 9.45 C 7.39 g/m*3 8.03 C 9.7 km/h
808 23-03-2019 15:00:00 10.08333 C 7.32 g/m*3 8.9 C 9.025 km/h
809 23-03-2019 16:00:00 10.425 C 7.21 g/m*3 9.29 C 9.15833 km/h
810 23-03-2019 17:00:00 10.425 C 7.16 g/m*3 9.64 C 7.375 km/h
811 23-03-2019 18:00:00 9.175 C 6.9 g/m*3 9.18 C 2.4 km/h
812 23-03-2019 19:00:00 6.80833 C 6.51 g/m*3 6.81 C 3.2 km/h
813 23-03-2019 20:00:00 5.38333 C 6.19 g/m*3 5.38 C 0.13333 km/h
814 23-03-2019 21:00:00 4.33333 C 5.93 g/m*3 4.33 C 0 km/h
815 23-03-2019 22:00:00 3.55833 C 5.74 g/m*3 3.56 C 0 km/h
816 23-03-2019 23:00:00 3.075 C 5.62 g/m*3 3.08 C 0 km/h
817 24-03-2019 00:00:00 2.4 C 5.39 g/m*3 2.4 C 0 km/h
818 24-03-2019 01:00:00 1.9 C 5.23 g/m*3 1.9 C 0 km/h
819 24-03-2019 02:00:00 1.425 C 5.08 g/m*3 1.43 C 0 km/h
820 24-03-2019 03:00:00 0.96667 C 4.92 g/m*3 0.97 C 0 km/h
821 24-03-2019 04:00:00 0.89167 C 4.94 g/m*3 0.89 C 0 km/h
822 24-03-2019 05:00:00 1.725 C 5.24 g/m*3 1.73 C 0.4 km/h
823 24-03-2019 07:00:00 2.78182 C 5.62 g/m*3 2.78 C 0.29091 km/h
824 24-03-2019 08:00:00 3.66667 C 6.02 g/m*3 3.67 C 0.13333 km/h
825 24-03-2019 09:00:00 4.85 C 6.44 g/m*3 4.85 C 2.53333 km/h
Sensor: Nr:Datum:Temp:Abs-Feuchte:Windchill:Wind:
Aussen-T/F 826 24-03-2019 10:00:00 6.875 C 7.1 g/m*3 6.88 C 3.46667 km/h
827 24-03-2019 11:00:00 9.54167 C 7.8 g/m*3 9.54 C 4.81667 km/h
828 24-03-2019 12:00:00 11.74167 C 8.07 g/m*3 11.74 C 9.53333 km/h
829 24-03-2019 13:00:00 10.88333 C 8.07 g/m*3 9.16 C 13.7 km/h
830 24-03-2019 14:00:00 10.64167 C 8.08 g/m*3 9.95 C 7.10833 km/h
831 24-03-2019 15:00:00 11.09167 C 7.88 g/m*3 11.09 C 8.74167 km/h
832 24-03-2019 16:00:00 12.03333 C 7.65 g/m*3 12.03 C 9.80833 km/h
833 24-03-2019 17:00:00 12.28333 C 7.05 g/m*3 12.28 C 10.625 km/h
834 24-03-2019 18:00:00 11.30833 C 6.37 g/m*3 11.31 C 8.6 km/h
835 24-03-2019 19:00:00 9.075 C 5.77 g/m*3 8.47 C 5.775 km/h
836 24-03-2019 20:00:00 7.18333 C 5.55 g/m*3 7.18 C 4.4 km/h
837 24-03-2019 21:00:00 5.59167 C 5.39 g/m*3 5.59 C 0.93333 km/h
838 24-03-2019 22:00:00 4.23333 C 5.21 g/m*3 4.23 C 0.8 km/h
839 24-03-2019 23:00:00 3.56667 C 5.11 g/m*3 3.57 C 2.53333 km/h
840 25-03-2019 00:00:00 3.35 C 5.02 g/m*3 3.35 C 2.93333 km/h
841 25-03-2019 01:00:00 1.875 C 4.76 g/m*3 1.88 C 0.53333 km/h
842 25-03-2019 02:00:00 1.89167 C 4.9 g/m*3 0.46 C 5.225 km/h
843 25-03-2019 03:00:00 2.29167 C 4.99 g/m*3 0.45 C 6.43333 km/h
844 25-03-2019 04:00:00 2.85833 C 5.07 g/m*3 0.76 C 7.50833 km/h
845 25-03-2019 05:00:00 3.675 C 5.13 g/m*3 0.61 C 12.23333 km/h
846 25-03-2019 06:00:00 3.74167 C 5.19 g/m*3 1.46 C 8.75 km/h
847 25-03-2019 07:00:00 4.38333 C 5.53 g/m*3 2.15 C 9.01667 km/h
848 25-03-2019 08:00:00 4.56667 C 6.01 g/m*3 2.83 C 7.25 km/h
849 25-03-2019 09:00:00 6.15 C 6.25 g/m*3 3.41 C 13.43333 km/h
850 25-03-2019 10:00:00 7.41667 C 5.92 g/m*3 4.58 C 16.1 km/h
Sensor: Nr:Datum:Temp:Abs-Feuchte:Windchill:Wind:
Aussen-T/F 851 25-03-2019 11:00:00 7.375 C 6.01 g/m*3 4.62 C 15.43333 km/h
852 25-03-2019 12:00:00 7.725 C 6.31 g/m*3 4.41 C 20.90833 km/h
853 25-03-2019 13:00:00 7.55 C 6.48 g/m*3 4.34 C 19.45 km/h
854 25-03-2019 14:00:00 7.65833 C 6.21 g/m*3 4.6 C 18.38333 km/h
855 25-03-2019 15:00:00 7.18333 C 6.57 g/m*3 4.89 C 12.08333 km/h
856 25-03-2019 16:00:00 7.29167 C 6.64 g/m*3 5.02 C 12.08333 km/h
857 25-03-2019 17:00:00 5.71667 C 6.41 g/m*3 3.83 C 8.58333 km/h
858 25-03-2019 18:00:00 5.3 C 6.46 g/m*3 5.3 C 3.20833 km/h
859 25-03-2019 19:00:00 5.04167 C 6.39 g/m*3 5.04 C 2.53333 km/h
860 25-03-2019 20:00:00 5.1 C 6.48 g/m*3 5.1 C 2.26667 km/h
861 25-03-2019 21:00:00 5.24167 C 6.56 g/m*3 5.24 C 4.29167 km/h
862 25-03-2019 22:00:00 5.15833 C 6.39 g/m*3 5.16 C 4.675 km/h
863 25-03-2019 23:00:00 4.65 C 6.2 g/m*3 4.65 C 1.06667 km/h
864 26-03-2019 00:00:00 4.49167 C 6.21 g/m*3 4.49 C 2 km/h
865 26-03-2019 01:00:00 4.525 C 6.19 g/m*3 4.53 C 0.53333 km/h
866 26-03-2019 02:00:00 4.375 C 6.19 g/m*3 4.38 C 0.13333 km/h
867 26-03-2019 03:00:00 4.64167 C 6.3 g/m*3 4.64 C 0.66667 km/h
868 26-03-2019 04:00:00 4.91667 C 6.42 g/m*3 4.92 C 1.33333 km/h
869 26-03-2019 05:00:00 5.00833 C 6.37 g/m*3 5.01 C 2.93333 km/h
870 26-03-2019 06:00:00 4.99167 C 6.23 g/m*3 4.99 C 2.94167 km/h
871 26-03-2019 07:00:00 5.06667 C 6.15 g/m*3 5.07 C 2.13333 km/h
872 26-03-2019 08:00:00 5.55 C 6 g/m*3 5.55 C 4.95 km/h
873 26-03-2019 09:00:00 6.225 C 5.91 g/m*3 4.69 C 7.53333 km/h
874 26-03-2019 10:00:00 6.98333 C 5.91 g/m*3 4.78 C 11.29167 km/h
875 26-03-2019 11:00:00 7.26667 C 5.66 g/m*3 5.69 C 8.46667 km/h
Sensor: Nr:Datum:Temp:Abs-Feuchte:Windchill:Wind:
Aussen-T/F 876 26-03-2019 12:00:00 8.46667 C 5.93 g/m*3 6.59 C 11.16667 km/h
877 26-03-2019 13:00:00 8.85 C 5.76 g/m*3 7.15 C 10.625 km/h
878 26-03-2019 14:00:00 8.875 C 5.68 g/m*3 6.88 C 12.49167 km/h
879 26-03-2019 15:00:00 9.03333 C 5.88 g/m*3 7.8 C 8.34167 km/h
880 26-03-2019 16:00:00 9.49167 C 5.89 g/m*3 7.62 C 12.5 km/h
881 26-03-2019 17:00:00 8.43333 C 6.05 g/m*3 7.16 C 8.05 km/h
882 26-03-2019 18:00:00 8.11667 C 6.16 g/m*3 7.38 C 5.75833 km/h
883 26-03-2019 19:00:00 7.59167 C 6.33 g/m*3 7.59 C 0.8 km/h
884 26-03-2019 20:00:00 7.075 C 6.4 g/m*3 7.08 C 0.4 km/h
885 26-03-2019 21:00:00 6.81667 C 6.44 g/m*3 6.82 C 0.13333 km/h
886 26-03-2019 22:00:00 6.51667 C 6.48 g/m*3 6.52 C 0 km/h
887 26-03-2019 23:00:00 6.24167 C 6.42 g/m*3 6.24 C 0.26667 km/h
888 27-03-2019 00:00:00 6.10833 C 6.4 g/m*3 6.11 C 0.8 km/h
889 27-03-2019 01:00:00 5.575 C 6.29 g/m*3 5.58 C 0 km/h
890 27-03-2019 02:00:00 5.25 C 6.25 g/m*3 5.25 C 0 km/h
891 27-03-2019 03:00:00 4.9 C 6.12 g/m*3 4.9 C 0 km/h
892 27-03-2019 04:00:00 4.05833 C 5.81 g/m*3 4.06 C 0.13333 km/h
893 27-03-2019 05:00:00 2.91667 C 5.43 g/m*3 2.92 C 0.53333 km/h
894 27-03-2019 06:00:00 2.1 C 5.23 g/m*3 2.1 C 0 km/h
895 27-03-2019 07:00:00 2.6 C 5.47 g/m*3 2.6 C 0.26667 km/h
896 27-03-2019 08:00:00 3.88333 C 5.97 g/m*3 3.88 C 0.53333 km/h
897 27-03-2019 09:00:00 5.8 C 6.58 g/m*3 5.8 C 1.6 km/h
898 27-03-2019 10:00:00 8.16667 C 7 g/m*3 8.17 C 2.93333 km/h
899 27-03-2019 11:00:00 9.13333 C 6.8 g/m*3 8.58 C 5.625 km/h
900 27-03-2019 12:00:00 10.05 C 6.55 g/m*3 9.49 C 6.16667 km/h
Sensor: Nr:Datum:Temp:Abs-Feuchte:Windchill:Wind:
Aussen-T/F 901 27-03-2019 13:00:00 10.8 C 6.28 g/m*3 9.64 C 9.68333 km/h
902 27-03-2019 14:00:00 11.05 C 6.13 g/m*3 11.05 C 6.44167 km/h
903 27-03-2019 15:00:00 11.10833 C 6.07 g/m*3 11.11 C 7.51667 km/h
904 27-03-2019 16:00:00 11.23333 C 6.02 g/m*3 11.23 C 6.3 km/h
905 27-03-2019 17:00:00 10.975 C 5.99 g/m*3 10.77 C 5.33333 km/h
906 27-03-2019 18:00:00 9.83333 C 6.38 g/m*3 9.83 C 0.8 km/h
907 27-03-2019 19:00:00 7.64167 C 6.24 g/m*3 7.64 C 3.46667 km/h
908 27-03-2019 20:00:00 6.49167 C 6.12 g/m*3 6.49 C 3.86667 km/h
909 27-03-2019 21:00:00 5.69167 C 6.04 g/m*3 5.69 C 1.33333 km/h
910 27-03-2019 22:00:00 4.725 C 5.79 g/m*3 4.72 C 0.4 km/h
911 27-03-2019 23:00:00 3.475 C 5.52 g/m*3 3.48 C 0 km/h
912 28-03-2019 00:00:00 2.925 C 5.43 g/m*3 2.93 C 0.53333 km/h
913 28-03-2019 01:00:00 2.475 C 5.3 g/m*3 2.48 C 0 km/h
914 28-03-2019 02:00:00 1.975 C 5.16 g/m*3 1.98 C 0 km/h
915 28-03-2019 03:00:00 1.60833 C 5.07 g/m*3 1.61 C 0 km/h
916 28-03-2019 04:00:00 1.375 C 5.01 g/m*3 1.38 C 0.13333 km/h
917 28-03-2019 05:00:00 1.13333 C 4.95 g/m*3 1.13 C 0 km/h
918 28-03-2019 06:00:00 1.59167 C 5.13 g/m*3 1.59 C 0 km/h
919 28-03-2019 07:00:00 2.11667 C 5.32 g/m*3 2.12 C 0.26667 km/h
920 28-03-2019 08:00:00 2.79167 C 5.55 g/m*3 2.79 C 1.33333 km/h
921 28-03-2019 09:00:00 4.425 C 6.07 g/m*3 4.43 C 2.66667 km/h
922 28-03-2019 10:00:00 7.30833 C 6.69 g/m*3 7.31 C 0.4 km/h
923 28-03-2019 11:00:00 10.325 C 7.27 g/m*3 10.33 C 3.475 km/h
924 28-03-2019 12:00:00 12.53333 C 7.36 g/m*3 12.53 C 8.33333 km/h
925 28-03-2019 13:00:00 13.21667 C 7.57 g/m*3 13.22 C 8.33333 km/h
Sensor: Nr:Datum:Temp:Abs-Feuchte:Windchill:Wind:
Aussen-T/F 926 28-03-2019 14:00:00 13.5 C 7.52 g/m*3 13.5 C 10.75833 km/h
927 28-03-2019 15:00:00 13.4 C 7.4 g/m*3 13.4 C 8.60833 km/h
928 28-03-2019 16:00:00 13.45833 C 7.32 g/m*3 13.46 C 9.01667 km/h
929 28-03-2019 17:00:00 13.19167 C 7.32 g/m*3 13.19 C 6.70833 km/h
930 28-03-2019 18:00:00 12.16667 C 7.58 g/m*3 12.17 C 2.53333 km/h
931 28-03-2019 19:00:00 10.36667 C 7.52 g/m*3 10.37 C 0.93333 km/h
932 28-03-2019 20:00:00 10.23333 C 7.49 g/m*3 10.23 C 0.53333 km/h
933 28-03-2019 21:00:00 9.50833 C 7.27 g/m*3 9.51 C 0 km/h
934 28-03-2019 22:00:00 7.88333 C 6.88 g/m*3 7.88 C 0.53333 km/h
935 28-03-2019 23:00:00 6.3 C 6.5 g/m*3 6.3 C 0 km/h
936 29-03-2019 00:00:00 5.28333 C 6.27 g/m*3 5.28 C 0 km/h
937 29-03-2019 01:00:00 4.35 C 6 g/m*3 4.35 C 0 km/h
938 29-03-2019 02:00:00 3.85833 C 5.89 g/m*3 3.86 C 0 km/h
939 29-03-2019 03:00:00 3.05833 C 5.61 g/m*3 3.06 C 0 km/h
940 29-03-2019 04:00:00 2.89167 C 5.61 g/m*3 2.89 C 0 km/h
941 29-03-2019 05:00:00 2.18333 C 5.34 g/m*3 2.18 C 0 km/h
942 29-03-2019 06:00:00 2.075 C 5.31 g/m*3 2.08 C 0 km/h
943 29-03-2019 07:00:00 2.175 C 5.39 g/m*3 2.17 C 0 km/h
944 29-03-2019 08:00:00 2.93333 C 5.69 g/m*3 2.93 C 0 km/h
945 29-03-2019 09:00:00 4.94167 C 6.56 g/m*3 4.94 C 0 km/h
946 29-03-2019 10:00:00 8.09167 C 7.98 g/m*3 8.09 C 0.53333 km/h
947 29-03-2019 11:00:00 12.48333 C 8.54 g/m*3 12.48 C 9.79167 km/h
948 29-03-2019 12:00:00 14.475 C 8.29 g/m*3 14.48 C 8.46667 km/h
949 29-03-2019 13:00:00 15.93333 C 8.14 g/m*3 15.93 C 10.225 km/h
950 29-03-2019 14:00:00 16.83333 C 7.91 g/m*3 16.83 C 10.89167 km/h
Sensor: Nr:Datum:Temp:Abs-Feuchte:Windchill:Wind:
Aussen-T/F 951 29-03-2019 15:00:00 17.475 C 7.8 g/m*3 17.48 C 9.68333 km/h
952 29-03-2019 16:00:00 18.41667 C 7.82 g/m*3 18.42 C 8.71667 km/h
953 29-03-2019 17:00:00 18.94167 C 7.7 g/m*3 18.94 C 4.53333 km/h
954 29-03-2019 18:00:00 16.95833 C 7.77 g/m*3 16.96 C 2.675 km/h
955 29-03-2019 19:00:00 11.55 C 7.26 g/m*3 11.55 C 5.46667 km/h
956 29-03-2019 20:00:00 9.86667 C 7.1 g/m*3 9.87 C 1.6 km/h
957 29-03-2019 21:00:00 8.10833 C 6.77 g/m*3 8.11 C 0 km/h
958 29-03-2019 22:00:00 6.7 C 6.42 g/m*3 6.7 C 0 km/h
959 29-03-2019 23:00:00 5.575 C 6.15 g/m*3 5.58 C 0 km/h
960 30-03-2019 00:00:00 4.59167 C 5.94 g/m*3 4.59 C 0 km/h
961 30-03-2019 01:00:00 4 C 5.82 g/m*3 4 C 0 km/h
962 30-03-2019 02:00:00 3.45 C 5.66 g/m*3 3.45 C 0 km/h
963 30-03-2019 03:00:00 2.8 C 5.49 g/m*3 2.8 C 0 km/h
964 30-03-2019 04:00:00 2.48333 C 5.4 g/m*3 2.48 C 0 km/h
965 30-03-2019 05:00:00 1.875 C 5.19 g/m*3 1.88 C 0 km/h
966 30-03-2019 06:00:00 1.73333 C 5.18 g/m*3 1.73 C 0 km/h
967 30-03-2019 07:00:00 2.11667 C 5.36 g/m*3 2.12 C 0.13333 km/h
968 30-03-2019 08:00:00 3.35833 C 5.85 g/m*3 3.36 C 0.26667 km/h
969 30-03-2019 09:00:00 5.45 C 6.77 g/m*3 5.45 C 0 km/h
970 30-03-2019 10:00:00 8.84167 C 7.93 g/m*3 8.84 C 0 km/h
971 30-03-2019 11:00:00 13.74167 C 8.36 g/m*3 13.74 C 5.225 km/h
972 30-03-2019 12:00:00 17.6 C 7.5 g/m*3 17.6 C 14.76667 km/h
973 30-03-2019 13:00:00 19.30833 C 6.85 g/m*3 19.31 C 14.76667 km/h
974 30-03-2019 14:00:00 19.93333 C 6.57 g/m*3 19.93 C 16.63333 km/h
975 30-03-2019 15:00:00 20.41667 C 6.55 g/m*3 20.42 C 13.96667 km/h
Sensor: Nr:Datum:Temp:Abs-Feuchte:Windchill:Wind:
Aussen-T/F 976 30-03-2019 16:00:00 20.54167 C 6.94 g/m*3 20.54 C 8.85 km/h
977 30-03-2019 17:00:00 19.46667 C 7.22 g/m*3 19.47 C 4.29167 km/h
978 30-03-2019 18:00:00 17.30833 C 7.89 g/m*3 17.31 C 1.86667 km/h
979 30-03-2019 19:00:00 14.88333 C 7.55 g/m*3 14.88 C 0.8 km/h
980 30-03-2019 20:00:00 13.79167 C 7.66 g/m*3 13.79 C 2.66667 km/h
981 30-03-2019 21:00:00 12.4 C 7.6 g/m*3 12.4 C 0.93333 km/h
982 30-03-2019 22:00:00 11.125 C 7.57 g/m*3 11.13 C 0 km/h
983 30-03-2019 23:00:00 10.80833 C 7.47 g/m*3 10.81 C 0 km/h
984 31-03-2019 00:00:00 9.55833 C 7.04 g/m*3 9.56 C 0.4 km/h
985 31-03-2019 01:00:00 8.38333 C 6.93 g/m*3 8.38 C 0 km/h
986 31-03-2019 02:00:00 7.30833 C 6.64 g/m*3 7.31 C 0.4 km/h
987 31-03-2019 04:00:00 6.45 C 6.42 g/m*3 6.45 C 0.13333 km/h
988 31-03-2019 05:00:00 5.15 C 6.1 g/m*3 5.15 C 0.13333 km/h
989 31-03-2019 06:00:00 4.95 C 6.13 g/m*3 4.95 C 0.4 km/h
990 31-03-2019 07:00:00 4.78333 C 6.08 g/m*3 4.78 C 0.4 km/h
991 31-03-2019 08:00:00 4.70833 C 6.13 g/m*3 4.71 C 0 km/h
992 31-03-2019 09:00:00 5.50833 C 6.53 g/m*3 5.51 C 0 km/h
993 31-03-2019 10:00:00 8 C 7.54 g/m*3 8 C 0 km/h
994 31-03-2019 11:00:00 11.51667 C 8.13 g/m*3 11.52 C 0.26667 km/h
995 31-03-2019 12:00:00 14.56667 C 8.23 g/m*3 14.57 C 3.2 km/h
996 31-03-2019 13:00:00 16.74167 C 7.93 g/m*3 16.74 C 5.76667 km/h
997 31-03-2019 14:00:00 18.34167 C 7.9 g/m*3 18.34 C 7.91667 km/h
998 31-03-2019 15:00:00 18.825 C 7.77 g/m*3 18.83 C 9.81667 km/h
999 31-03-2019 16:00:00 15.925 C 9.88 g/m*3 15.93 C 6.96667 km/h
1000 31-03-2019 17:00:00 14.2 C 10.95 g/m*3 14.2 C 1.86667 km/h
Sensor: Nr:Datum:Temp:Abs-Feuchte:Windchill:Wind:
Aussen-T/F 1001 31-03-2019 18:00:00 15.28333 C 9.93 g/m*3 15.28 C 4.95 km/h
1002 31-03-2019 19:00:00 12.74167 C 9 g/m*3 12.74 C 2.93333 km/h
1003 31-03-2019 20:00:00 10.11667 C 8.24 g/m*3 10.12 C 4.4 km/h
1004 31-03-2019 21:00:00 8.95 C 7.72 g/m*3 8.95 C 2.13333 km/h
1005 31-03-2019 22:00:00 8.04167 C 7.27 g/m*3 8.04 C 2 km/h
1006 31-03-2019 23:00:00 7.21667 C 6.92 g/m*3 7.22 C 0.8 km/h
1007 01-04-2019 00:00:00 6.36667 C 6.62 g/m*3 6.37 C 0 km/h
1008 01-04-2019 01:00:00 5.74167 C 6.37 g/m*3 5.74 C 0.26667 km/h
1009 01-04-2019 02:00:00 5.25 C 6.22 g/m*3 5.25 C 1.86667 km/h
1010 01-04-2019 03:00:00 4.69167 C 6.04 g/m*3 4.69 C 2.8 km/h
1011 01-04-2019 04:00:00 4.31667 C 5.9 g/m*3 4.32 C 1.73333 km/h
1012 01-04-2019 05:00:00 3.975 C 5.78 g/m*3 3.98 C 0.8 km/h
1013 01-04-2019 06:00:00 3.56667 C 5.67 g/m*3 3.57 C 0.4 km/h
1014 01-04-2019 07:00:00 3.15 C 5.54 g/m*3 3.15 C 0.8 km/h
1015 01-04-2019 08:00:00 3.16667 C 5.61 g/m*3 3.17 C 0 km/h
1016 01-04-2019 09:00:00 4.29167 C 6.01 g/m*3 4.29 C 0.66667 km/h
1017 01-04-2019 10:00:00 6.65 C 6.32 g/m*3 5.52 C 6.31667 km/h
1018 01-04-2019 11:00:00 9.53333 C 6.5 g/m*3 8.18 C 9.40833 km/h
1019 01-04-2019 12:00:00 11.28333 C 6.7 g/m*3 11.28 C 10.08333 km/h
1020 01-04-2019 13:00:00 13.00833 C 6.96 g/m*3 13.01 C 9.15833 km/h
1021 01-04-2019 14:00:00 14.91667 C 7.26 g/m*3 14.92 C 10.63333 km/h
1022 01-04-2019 15:00:00 16.39167 C 7.5 g/m*3 16.39 C 8.73333 km/h
1023 01-04-2019 16:00:00 17.5 C 7.53 g/m*3 17.5 C 6.15833 km/h
1024 01-04-2019 17:00:00 18.275 C 7.44 g/m*3 18.27 C 8.46667 km/h
1025 01-04-2019 18:00:00 17.875 C 7.22 g/m*3 17.88 C 7.65833 km/h
Sensor: Nr:Datum:Temp:Abs-Feuchte:Windchill:Wind:
Aussen-T/F 1026 01-04-2019 19:00:00 16 C 7.62 g/m*3 16 C 4.01667 km/h
1027 01-04-2019 20:00:00 11.775 C 7.41 g/m*3 11.78 C 5.2 km/h
1028 01-04-2019 21:00:00 10.15833 C 7.18 g/m*3 10.16 C 4.66667 km/h
1029 01-04-2019 22:00:00 9.35 C 6.95 g/m*3 9.35 C 2.26667 km/h
1030 01-04-2019 23:00:00 8.79167 C 6.73 g/m*3 8.79 C 1.86667 km/h
1031 02-04-2019 00:00:00 7.93333 C 6.63 g/m*3 7.93 C 0 km/h
1032 02-04-2019 01:00:00 7.04167 C 6.46 g/m*3 7.04 C 0 km/h
1033 02-04-2019 02:00:00 6.3 C 6.27 g/m*3 6.3 C 0 km/h
1034 02-04-2019 03:00:00 5.09167 C 5.98 g/m*3 5.09 C 0 km/h
1035 02-04-2019 04:00:00 4.39167 C 5.88 g/m*3 4.39 C 0 km/h
1036 02-04-2019 05:00:00 3.96667 C 5.78 g/m*3 3.97 C 0 km/h
1037 02-04-2019 06:00:00 3.88333 C 5.81 g/m*3 3.88 C 0 km/h
1038 02-04-2019 07:00:00 4.00833 C 5.91 g/m*3 4.01 C 0 km/h
1039 02-04-2019 08:00:00 4.98333 C 6.31 g/m*3 4.98 C 0 km/h
1040 02-04-2019 09:00:00 6.53333 C 6.71 g/m*3 6.53 C 0 km/h
1041 02-04-2019 10:00:00 8.71667 C 7.1 g/m*3 8.72 C 0 km/h
1042 02-04-2019 11:00:00 11.95 C 7.96 g/m*3 11.95 C 2.8 km/h
1043 02-04-2019 12:00:00 15.01667 C 8.57 g/m*3 15.02 C 4.01667 km/h
1044 02-04-2019 13:00:00 16.80833 C 8.7 g/m*3 16.81 C 6.175 km/h
1045 02-04-2019 14:00:00 17.975 C 8.91 g/m*3 17.98 C 9.55833 km/h
1046 02-04-2019 15:00:00 16.725 C 9.1 g/m*3 16.73 C 12.625 km/h
1047 02-04-2019 16:00:00 17.46667 C 8.58 g/m*3 17.47 C 16.36667 km/h
1048 02-04-2019 17:00:00 16.00833 C 8.99 g/m*3 16.01 C 9.15 km/h
1049 02-04-2019 18:00:00 16.08333 C 8.71 g/m*3 16.08 C 6.71667 km/h
1050 02-04-2019 19:00:00 15.35833 C 8.65 g/m*3 15.36 C 4.00833 km/h
Sensor: Nr:Datum:Temp:Abs-Feuchte:Windchill:Wind:
Aussen-T/F 1051 02-04-2019 20:00:00 14.03333 C 8.59 g/m*3 14.03 C 7.11667 km/h
1052 02-04-2019 21:00:00 13.50833 C 8.12 g/m*3 13.51 C 8.325 km/h
1053 02-04-2019 22:00:00 12.66667 C 7.79 g/m*3 12.67 C 6.84167 km/h
1054 02-04-2019 23:00:00 11.4 C 7.6 g/m*3 11.4 C 0.66667 km/h
1055 03-04-2019 00:00:00 10.50833 C 7.64 g/m*3 10.51 C 0.66667 km/h
1056 03-04-2019 01:00:00 10.275 C 7.62 g/m*3 10.28 C 0 km/h
1057 03-04-2019 02:00:00 9.90833 C 7.61 g/m*3 9.91 C 0 km/h
1058 03-04-2019 03:00:00 8.91667 C 7.43 g/m*3 8.92 C 0 km/h
1059 03-04-2019 04:00:00 8.875 C 7.54 g/m*3 8.88 C 0 km/h
1060 03-04-2019 05:00:00 8.6 C 7.44 g/m*3 8.6 C 0 km/h
1061 03-04-2019 06:00:00 8.075 C 7.3 g/m*3 8.07 C 0.53333 km/h
1062 03-04-2019 07:00:00 8.64167 C 7.32 g/m*3 8.64 C 0.53333 km/h
1063 03-04-2019 08:00:00 8.86667 C 7.52 g/m*3 8.87 C 3.35833 km/h
1064 03-04-2019 09:00:00 7.66667 C 7.32 g/m*3 5.96 C 9.4 km/h
1065 03-04-2019 10:00:00 7.025 C 7.11 g/m*3 7.03 C 2.80833 km/h
1066 03-04-2019 11:00:00 7.44167 C 7.33 g/m*3 7.44 C 1.2 km/h
1067 03-04-2019 12:00:00 8.33333 C 7.51 g/m*3 8.33 C 3.60833 km/h
1068 03-04-2019 13:00:00 9.475 C 7.56 g/m*3 9.48 C 3.6 km/h
1069 03-04-2019 14:00:00 9.43333 C 7.37 g/m*3 9.43 C 4.54167 km/h
1070 03-04-2019 15:00:00 10.05 C 7.52 g/m*3 9.35 C 6.7 km/h
1071 03-04-2019 16:00:00 10.2 C 7.47 g/m*3 10.2 C 4.675 km/h
1072 03-04-2019 17:00:00 9.45833 C 7.47 g/m*3 9.46 C 2.93333 km/h
1073 03-04-2019 18:00:00 7.93333 C 7.42 g/m*3 7.93 C 1.6 km/h
1074 03-04-2019 19:00:00 7.025 C 7.2 g/m*3 7.03 C 0.26667 km/h
1075 03-04-2019 20:00:00 6.45 C 7 g/m*3 6.45 C 0 km/h
Sensor: Nr:Datum:Temp:Abs-Feuchte:Windchill:Wind:
Aussen-T/F 1076 03-04-2019 21:00:00 6.23333 C 6.98 g/m*3 6.23 C 0 km/h
1077 03-04-2019 22:00:00 5.875 C 6.84 g/m*3 5.88 C 0.13333 km/h
1078 03-04-2019 23:00:00 5.63333 C 6.73 g/m*3 5.63 C 0.13333 km/h
1079 04-04-2019 00:00:00 5.65 C 6.77 g/m*3 5.65 C 0.4 km/h
1080 04-04-2019 01:00:00 5.325 C 6.64 g/m*3 5.33 C 1.06667 km/h
1081 04-04-2019 02:00:00 5.41667 C 6.71 g/m*3 5.42 C 2.13333 km/h
1082 04-04-2019 03:00:00 5.6 C 6.79 g/m*3 5.6 C 0 km/h
1083 04-04-2019 04:00:00 5.54167 C 6.76 g/m*3 5.54 C 0 km/h
1084 04-04-2019 05:00:00 5.60833 C 6.79 g/m*3 5.61 C 0 km/h
1085 04-04-2019 06:00:00 5.475 C 6.73 g/m*3 5.48 C 0 km/h
1086 04-04-2019 07:00:00 5.34167 C 6.67 g/m*3 5.34 C 0 km/h
1087 04-04-2019 08:00:00 5.61667 C 6.79 g/m*3 5.62 C 0 km/h
1088 04-04-2019 09:00:00 5.93333 C 6.97 g/m*3 5.93 C 0.66667 km/h
1089 04-04-2019 10:00:00 6.075 C 7 g/m*3 6.08 C 1.46667 km/h
1090 04-04-2019 11:00:00 6.65833 C 7.07 g/m*3 6.66 C 2.26667 km/h
1091 04-04-2019 12:00:00 6.95 C 6.91 g/m*3 6.17 C 5.375 km/h
1092 04-04-2019 13:00:00 6.69167 C 6.96 g/m*3 6.69 C 2.80833 km/h
1093 04-04-2019 14:00:00 6.4 C 6.84 g/m*3 6.4 C 4.14167 km/h
1094 04-04-2019 15:00:00 6.85833 C 6.99 g/m*3 6.86 C 0.4 km/h
1095 04-04-2019 16:00:00 7.08333 C 7.09 g/m*3 7.08 C 1.73333 km/h
1096 04-04-2019 17:00:00 7.43333 C 7.03 g/m*3 7.43 C 4.55 km/h
1097 04-04-2019 18:00:00 7.56667 C 6.85 g/m*3 7.57 C 3.475 km/h
1098 04-04-2019 19:00:00 7.25833 C 6.86 g/m*3 7.26 C 1.33333 km/h
1099 04-04-2019 20:00:00 5.95833 C 6.64 g/m*3 5.96 C 1.46667 km/h
1100 04-04-2019 21:00:00 5.29167 C 6.48 g/m*3 5.29 C 1.33333 km/h
Sensor: Nr:Datum:Temp:Abs-Feuchte:Windchill:Wind:
Aussen-T/F 1101 04-04-2019 22:00:00 5.08333 C 6.45 g/m*3 5.08 C 0.53333 km/h
1102 04-04-2019 23:00:00 4.575 C 6.24 g/m*3 4.58 C 0 km/h
1103 05-04-2019 00:00:00 4.10833 C 6.08 g/m*3 4.11 C 0 km/h
1104 05-04-2019 01:00:00 3.525 C 5.87 g/m*3 3.53 C 0 km/h
1105 05-04-2019 02:00:00 3.775 C 6.01 g/m*3 3.78 C 0 km/h
1106 05-04-2019 03:00:00 3.85833 C 6.05 g/m*3 3.86 C 0 km/h
1107 05-04-2019 04:00:00 4.06667 C 6.13 g/m*3 4.07 C 0 km/h
1108 05-04-2019 05:00:00 3.93333 C 6.08 g/m*3 3.93 C 0 km/h
1109 05-04-2019 06:00:00 3.9 C 6.06 g/m*3 3.9 C 0 km/h
1110 05-04-2019 07:00:00 4.13333 C 6.2 g/m*3 4.13 C 0 km/h
1111 05-04-2019 08:00:00 4.64167 C 6.44 g/m*3 4.64 C 0 km/h
1112 05-04-2019 09:00:00 5.3 C 6.72 g/m*3 5.3 C 3.06667 km/h
1113 05-04-2019 10:00:00 5.89167 C 6.89 g/m*3 5.89 C 1.2 km/h
1114 05-04-2019 11:00:00 7.16667 C 7.06 g/m*3 6.34 C 5.60833 km/h
1115 05-04-2019 12:00:00 8.025 C 7.1 g/m*3 6.87 C 7.23333 km/h
1116 05-04-2019 13:00:00 8.19167 C 7.07 g/m*3 8.19 C 4.54167 km/h
1117 05-04-2019 14:00:00 8.41667 C 7.1 g/m*3 8.42 C 3.46667 km/h
1118 05-04-2019 15:00:00 8.55 C 7.21 g/m*3 8.55 C 4.40833 km/h
1119 05-04-2019 16:00:00 8.58333 C 7.32 g/m*3 8.08 C 5.20833 km/h
1120 05-04-2019 17:00:00 8.41667 C 7.4 g/m*3 8.42 C 4.14167 km/h
1121 05-04-2019 18:00:00 8.3 C 7.49 g/m*3 8.3 C 2.94167 km/h
1122 05-04-2019 19:00:00 8.19167 C 7.55 g/m*3 8.19 C 0 km/h
1123 05-04-2019 20:00:00 7.925 C 7.55 g/m*3 7.93 C 0 km/h
1124 05-04-2019 21:00:00 7.69167 C 7.54 g/m*3 7.69 C 0 km/h
1125 05-04-2019 22:00:00 7.61667 C 7.58 g/m*3 7.62 C 0 km/h
Sensor: Nr:Datum:Temp:Abs-Feuchte:Windchill:Wind:
Aussen-T/F 1126 05-04-2019 23:00:00 7.6 C 7.61 g/m*3 7.6 C 0 km/h
1127 06-04-2019 00:00:00 7.45833 C 7.58 g/m*3 7.46 C 0 km/h
1128 06-04-2019 01:00:00 7.40833 C 7.63 g/m*3 7.41 C 0 km/h
1129 06-04-2019 02:00:00 7.225 C 7.54 g/m*3 7.23 C 0 km/h
1130 06-04-2019 03:00:00 6.14167 C 6.97 g/m*3 6.14 C 2.93333 km/h
1131 06-04-2019 04:00:00 5.15833 C 6.57 g/m*3 5.16 C 0.13333 km/h
1132 06-04-2019 05:00:00 5.01667 C 6.53 g/m*3 5.02 C 0 km/h
1133 06-04-2019 06:00:00 4.675 C 6.4 g/m*3 4.68 C 0 km/h
1134 06-04-2019 07:00:00 5.13333 C 6.63 g/m*3 5.13 C 0 km/h
1135 06-04-2019 08:00:00 5.71667 C 6.91 g/m*3 5.72 C 0.4 km/h
1136 06-04-2019 09:00:00 6.025 C 7.05 g/m*3 6.03 C 0.53333 km/h
1137 06-04-2019 10:00:00 7.325 C 7.69 g/m*3 7.33 C 0 km/h
1138 06-04-2019 11:00:00 9.825 C 8.4 g/m*3 9.09 C 6.70833 km/h
1139 06-04-2019 12:00:00 12.51667 C 8.42 g/m*3 12.52 C 5.89167 km/h
1140 06-04-2019 13:00:00 14.375 C 8.5 g/m*3 14.38 C 8.325 km/h
1141 06-04-2019 14:00:00 16.04167 C 8.47 g/m*3 16.04 C 8.85 km/h
1142 06-04-2019 15:00:00 15.96667 C 8.24 g/m*3 15.97 C 9.40833 km/h
1143 06-04-2019 16:00:00 15.81667 C 8.31 g/m*3 15.82 C 7.925 km/h
1144 06-04-2019 17:00:00 16.30833 C 8.41 g/m*3 16.31 C 8.05833 km/h
1145 06-04-2019 18:00:00 17.31667 C 8.61 g/m*3 17.32 C 6.175 km/h
1146 06-04-2019 19:00:00 16.46667 C 9.06 g/m*3 16.47 C 0.53333 km/h
1147 06-04-2019 20:00:00 12.50833 C 8.76 g/m*3 12.51 C 0 km/h
1148 06-04-2019 21:00:00 11.1 C 8.53 g/m*3 11.1 C 0 km/h
1149 06-04-2019 22:00:00 10.05 C 8.28 g/m*3 10.05 C 0 km/h
1150 06-04-2019 23:00:00 9.3 C 8.04 g/m*3 9.3 C 0 km/h
Sensor: Nr:Datum:Temp:Abs-Feuchte:Windchill:Wind:
Aussen-T/F 1151 07-04-2019 00:00:00 8.40833 C 7.77 g/m*3 8.41 C 0 km/h
1152 07-04-2019 01:00:00 7.75833 C 7.54 g/m*3 7.76 C 0 km/h
1153 07-04-2019 02:00:00 7.175 C 7.34 g/m*3 7.18 C 0 km/h
1154 07-04-2019 03:00:00 6.775 C 7.23 g/m*3 6.78 C 0 km/h
1155 07-04-2019 04:00:00 6.09167 C 6.91 g/m*3 6.09 C 0 km/h
1156 07-04-2019 05:00:00 5.68333 C 6.75 g/m*3 5.68 C 0 km/h
1157 07-04-2019 06:00:00 5.43333 C 6.71 g/m*3 5.43 C 0 km/h
1158 07-04-2019 07:00:00 4.68333 C 6.37 g/m*3 4.68 C 0 km/h
1159 07-04-2019 08:00:00 5.23333 C 6.64 g/m*3 5.23 C 0 km/h
1160 07-04-2019 09:00:00 6.14167 C 7.11 g/m*3 6.14 C 0.4 km/h
1161 07-04-2019 10:00:00 8.25 C 8.16 g/m*3 8.25 C 0.4 km/h
1162 07-04-2019 11:00:00 12.725 C 8.8 g/m*3 12.73 C 10.08333 km/h
1163 07-04-2019 12:00:00 15.79167 C 7.95 g/m*3 15.79 C 12.75833 km/h
1164 07-04-2019 13:00:00 17.00833 C 7.47 g/m*3 17.01 C 11.15833 km/h
1165 07-04-2019 14:00:00 18.25833 C 7.16 g/m*3 18.26 C 16.9 km/h
1166 07-04-2019 15:00:00 19.13333 C 6.83 g/m*3 19.13 C 12.225 km/h
1167 07-04-2019 16:00:00 20 C 6.81 g/m*3 20 C 11.68333 km/h
1168 07-04-2019 17:00:00 20.88333 C 7.02 g/m*3 20.88 C 8.31667 km/h
1169 07-04-2019 18:00:00 19.09167 C 7.91 g/m*3 19.09 C 5.775 km/h
1170 07-04-2019 19:00:00 16.95 C 8.97 g/m*3 16.95 C 0.13333 km/h
1171 07-04-2019 20:00:00 15.14167 C 8.86 g/m*3 15.14 C 2.8 km/h
1172 07-04-2019 21:00:00 14.49167 C 8.9 g/m*3 14.49 C 0.8 km/h
1173 07-04-2019 22:00:00 13.95 C 8.9 g/m*3 13.95 C 0 km/h
1174 07-04-2019 23:00:00 13.44167 C 9.12 g/m*3 13.44 C 0 km/h
1175 08-04-2019 00:00:00 12.95 C 9.18 g/m*3 12.95 C 0.13333 km/h
Sensor: Nr:Datum:Temp:Abs-Feuchte:Windchill:Wind:
Aussen-T/F 1176 08-04-2019 01:00:00 12.53333 C 9.12 g/m*3 12.53 C 0.13333 km/h
1177 08-04-2019 02:00:00 11.975 C 8.98 g/m*3 11.98 C 0.26667 km/h
1178 08-04-2019 03:00:00 11.60833 C 8.9 g/m*3 11.61 C 0.8 km/h
1179 08-04-2019 04:00:00 11.23333 C 8.83 g/m*3 11.23 C 0.13333 km/h
1180 08-04-2019 05:00:00 11.06667 C 8.85 g/m*3 11.07 C 0.13333 km/h
1181 08-04-2019 06:00:00 10.66667 C 8.69 g/m*3 10.67 C 0.13333 km/h
1182 08-04-2019 07:00:00 10.025 C 8.5 g/m*3 10.03 C 0 km/h
1183 08-04-2019 08:00:00 10.425 C 8.87 g/m*3 10.43 C 0 km/h
1184 08-04-2019 09:00:00 11.5 C 9.16 g/m*3 11.5 C 1.46667 km/h
1185 08-04-2019 10:00:00 12.45833 C 9.29 g/m*3 12.46 C 1.6 km/h
1186 08-04-2019 11:00:00 13.16667 C 9.47 g/m*3 13.17 C 1.46667 km/h
1187 08-04-2019 12:00:00 13.15 C 9.54 g/m*3 13.15 C 1.2 km/h
1188 08-04-2019 13:00:00 13.48333 C 9.73 g/m*3 13.48 C 1.06667 km/h
1189 08-04-2019 14:00:00 15.05 C 9.93 g/m*3 15.05 C 3.73333 km/h
1190 08-04-2019 15:00:00 16.80833 C 9.88 g/m*3 16.81 C 6.55833 km/h
1191 08-04-2019 16:00:00 17.05833 C 9.84 g/m*3 17.06 C 2.93333 km/h
1192 08-04-2019 17:00:00 15.05 C 10.8 g/m*3 15.05 C 0.53333 km/h
1193 08-04-2019 18:00:00 14.35833 C 10.75 g/m*3 14.36 C 0.93333 km/h
1194 08-04-2019 19:00:00 13.84167 C 10.29 g/m*3 13.84 C 1.6 km/h
1195 08-04-2019 20:00:00 12.875 C 10.06 g/m*3 12.88 C 0.4 km/h
1196 08-04-2019 21:00:00 11.425 C 9.52 g/m*3 11.43 C 3.86667 km/h
1197 08-04-2019 22:00:00 11.1 C 9.53 g/m*3 11.1 C 1.06667 km/h
1198 08-04-2019 23:00:00 10.93333 C 9.45 g/m*3 10.93 C 0.53333 km/h
1199 09-04-2019 00:00:00 10.20833 C 9.04 g/m*3 10.21 C 0.93333 km/h
1200 09-04-2019 01:00:00 10.16667 C 9.08 g/m*3 10.17 C 0.26667 km/h
Sensor: Nr:Datum:Temp:Abs-Feuchte:Windchill:Wind:
Aussen-T/F 1201 09-04-2019 02:00:00 10.44167 C 9.28 g/m*3 10.44 C 0 km/h
1202 09-04-2019 03:00:00 10.15833 C 9.11 g/m*3 10.16 C 0 km/h
1203 09-04-2019 04:00:00 9.73333 C 8.87 g/m*3 9.73 C 0 km/h
1204 09-04-2019 05:00:00 9.025 C 8.48 g/m*3 9.03 C 0 km/h
1205 09-04-2019 06:00:00 8.94167 C 8.47 g/m*3 8.94 C 0 km/h
1206 09-04-2019 07:00:00 9.30833 C 8.72 g/m*3 9.31 C 0 km/h
1207 09-04-2019 08:00:00 9.875 C 9.04 g/m*3 9.88 C 0 km/h
1208 09-04-2019 09:00:00 10.50833 C 9.41 g/m*3 10.51 C 0.53333 km/h
1209 09-04-2019 10:00:00 11.09167 C 9.65 g/m*3 11.09 C 1.2 km/h
1210 09-04-2019 11:00:00 11.90833 C 10.03 g/m*3 11.91 C 2.13333 km/h
1211 09-04-2019 12:00:00 12.83333 C 10.38 g/m*3 12.83 C 1.2 km/h
1212 09-04-2019 13:00:00 14.475 C 10.69 g/m*3 14.48 C 3.2 km/h
1213 09-04-2019 14:00:00 16.075 C 10.8 g/m*3 16.08 C 6.83333 km/h
1214 09-04-2019 15:00:00 16.325 C 10.83 g/m*3 16.33 C 5.49167 km/h
1215 09-04-2019 16:00:00 16.08333 C 10.79 g/m*3 16.08 C 5.475 km/h
1216 09-04-2019 17:00:00 15.85 C 10.69 g/m*3 15.85 C 0.66667 km/h
1217 09-04-2019 18:00:00 15.4 C 10.9 g/m*3 15.4 C 0.13333 km/h
1218 09-04-2019 19:00:00 14.58333 C 10.17 g/m*3 14.58 C 2.80833 km/h
1219 09-04-2019 20:00:00 13.625 C 9.69 g/m*3 13.63 C 0.93333 km/h
1220 09-04-2019 21:00:00 12.48333 C 9.24 g/m*3 12.48 C 0.4 km/h
1221 09-04-2019 22:00:00 12.36667 C 8.16 g/m*3 12.37 C 4.53333 km/h
1222 09-04-2019 23:00:00 12.16667 C 7.6 g/m*3 12.17 C 7.38333 km/h
1223 10-04-2019 00:00:00 10.925 C 7.85 g/m*3 10.93 C 2.94167 km/h
1224 10-04-2019 01:00:00 10.36667 C 7.52 g/m*3 10.37 C 4.28333 km/h
1225 10-04-2019 02:00:00 9.91667 C 7.56 g/m*3 9.92 C 1.6 km/h
Sensor: Nr:Datum:Temp:Abs-Feuchte:Windchill:Wind:
Aussen-T/F 1226 10-04-2019 03:00:00 9.775 C 7.29 g/m*3 9.78 C 3.35 km/h
1227 10-04-2019 04:00:00 8.79167 C 7.06 g/m*3 8.79 C 0.53333 km/h
1228 10-04-2019 05:00:00 7.34167 C 6.71 g/m*3 7.34 C 0.53333 km/h
1229 10-04-2019 06:00:00 6.50833 C 6.47 g/m*3 6.51 C 0.66667 km/h
1230 10-04-2019 07:00:00 6.6 C 6.37 g/m*3 6.6 C 0.26667 km/h
1231 10-04-2019 08:00:00 7.675 C 6.24 g/m*3 6.99 C 5.36667 km/h
1232 10-04-2019 09:00:00 8.50833 C 6.14 g/m*3 6.74 C 10.625 km/h
1233 10-04-2019 10:00:00 9.575 C 6.31 g/m*3 7.82 C 11.83333 km/h
1234 10-04-2019 11:00:00 11.18333 C 6.41 g/m*3 11.18 C 12.9 km/h
1235 10-04-2019 12:00:00 12.16667 C 6.12 g/m*3 12.17 C 11.01667 km/h
1236 10-04-2019 13:00:00 13.425 C 6.32 g/m*3 13.43 C 9.94167 km/h
1237 10-04-2019 14:00:00 14.24167 C 6.08 g/m*3 14.24 C 12.76667 km/h
1238 10-04-2019 15:00:00 15.1 C 6.04 g/m*3 15.1 C 13.43333 km/h
1239 10-04-2019 16:00:00 16.075 C 6.01 g/m*3 16.08 C 13.825 km/h
1240 10-04-2019 17:00:00 16.6 C 5.79 g/m*3 16.6 C 12.35833 km/h
1241 10-04-2019 18:00:00 15.94167 C 5.17 g/m*3 15.94 C 14.5 km/h
1242 10-04-2019 19:00:00 14.4 C 5.28 g/m*3 14.4 C 14.9 km/h
1243 10-04-2019 20:00:00 11.34167 C 5.8 g/m*3 11.34 C 3.20833 km/h
1244 10-04-2019 21:00:00 8.9 C 5.88 g/m*3 8.9 C 2.13333 km/h
1245 10-04-2019 22:00:00 7.38333 C 5.81 g/m*3 7.38 C 0.4 km/h
1246 10-04-2019 23:00:00 6.46667 C 5.71 g/m*3 6.47 C 0.66667 km/h
1247 11-04-2019 00:00:00 5.75 C 5.52 g/m*3 5.75 C 1.34167 km/h
1248 11-04-2019 01:00:00 5.03333 C 5.31 g/m*3 5.03 C 0.53333 km/h
1249 11-04-2019 02:00:00 4.4 C 5.15 g/m*3 4.4 C 1.2 km/h
1250 11-04-2019 03:00:00 3.85833 C 4.98 g/m*3 3.86 C 0 km/h
Sensor: Nr:Datum:Temp:Abs-Feuchte:Windchill:Wind:
Aussen-T/F 1251 11-04-2019 04:00:00 2.9 C 4.76 g/m*3 2.9 C 0 km/h
1252 11-04-2019 05:00:00 2.30833 C 4.64 g/m*3 2.31 C 0.26667 km/h
1253 11-04-2019 06:00:00 1.71667 C 4.54 g/m*3 1.72 C 0 km/h
1254 11-04-2019 07:00:00 1.21667 C 4.49 g/m*3 1.22 C 0 km/h
1255 11-04-2019 08:00:00 1.8 C 4.69 g/m*3 1.8 C 0 km/h
1256 11-04-2019 09:00:00 3.9 C 4.89 g/m*3 3.9 C 4.69167 km/h
1257 11-04-2019 10:00:00 6.76667 C 4.43 g/m*3 3.92 C 15.03333 km/h
1258 11-04-2019 11:00:00 8.1 C 4.14 g/m*3 5.23 C 17.70833 km/h
1259 11-04-2019 12:00:00 8.91667 C 4.03 g/m*3 6.41 C 16.36667 km/h
1260 11-04-2019 13:00:00 9.875 C 4.05 g/m*3 7.86 C 14.23333 km/h
1261 11-04-2019 14:00:00 11.01667 C 4.09 g/m*3 11.02 C 16.5 km/h
1262 11-04-2019 15:00:00 12 C 4.13 g/m*3 12 C 17.175 km/h
1263 11-04-2019 16:00:00 12.76667 C 4.04 g/m*3 12.77 C 16.36667 km/h
1264 11-04-2019 17:00:00 13.31667 C 4.02 g/m*3 13.32 C 14.76667 km/h
1265 11-04-2019 18:00:00 13.025 C 3.99 g/m*3 13.03 C 11.41667 km/h
1266 11-04-2019 19:00:00 11.95833 C 4.06 g/m*3 11.96 C 7.65833 km/h
1267 11-04-2019 20:00:00 8.95 C 4.36 g/m*3 8.95 C 2.4 km/h
1268 11-04-2019 21:00:00 6.225 C 4.52 g/m*3 6.23 C 2.26667 km/h
1269 11-04-2019 22:00:00 5.35 C 4.45 g/m*3 5.35 C 2.80833 km/h
1270 11-04-2019 23:00:00 5.48333 C 4.26 g/m*3 5.48 C 3.75 km/h
1271 12-04-2019 00:00:00 4.46667 C 4.12 g/m*3 3.34 C 5.35 km/h
1272 12-04-2019 01:00:00 3.54167 C 4.03 g/m*3 3.54 C 3.34167 km/h
1273 12-04-2019 02:00:00 2.15833 C 4.03 g/m*3 2.16 C 2.53333 km/h
1274 12-04-2019 03:00:00 1.60833 C 3.98 g/m*3 1.61 C 3.06667 km/h
1275 12-04-2019 04:00:00 2.15833 C 4.23 g/m*3 2.16 C 0.66667 km/h
Sensor: Nr:Datum:Temp:Abs-Feuchte:Windchill:Wind:
Aussen-T/F 1276 12-04-2019 05:00:00 2.70833 C 4.27 g/m*3 2.71 C 0 km/h
1277 12-04-2019 06:00:00 2.98333 C 4.21 g/m*3 2.98 C 0 km/h
1278 12-04-2019 07:00:00 3.475 C 4.1 g/m*3 3.48 C 3.075 km/h
1279 12-04-2019 08:00:00 4.63333 C 3.85 g/m*3 1.97 C 11.16667 km/h
1280 12-04-2019 09:00:00 5.03333 C 3.82 g/m*3 2.3 C 11.95833 km/h
1281 12-04-2019 10:00:00 5.49167 C 3.74 g/m*3 1.91 C 18.23333 km/h
1282 12-04-2019 11:00:00 5.98333 C 3.76 g/m*3 2.37 C 19.43333 km/h
1283 12-04-2019 12:00:00 6.78333 C 3.82 g/m*3 4.08 C 14.09167 km/h
1284 12-04-2019 13:00:00 7.15833 C 3.74 g/m*3 4.9 C 11.825 km/h
1285 12-04-2019 14:00:00 7.26667 C 3.69 g/m*3 4.83 C 13.03333 km/h
1286 12-04-2019 15:00:00 7.56667 C 3.73 g/m*3 5.26 C 12.63333 km/h
1287 12-04-2019 16:00:00 7.3 C 3.74 g/m*3 5.16 C 11.3 km/h
1288 12-04-2019 17:00:00 7.1 C 3.64 g/m*3 5.46 C 8.61667 km/h
1289 12-04-2019 18:00:00 6.83333 C 3.76 g/m*3 4.53 C 11.7 km/h
1290 12-04-2019 19:00:00 6.525 C 3.91 g/m*3 4.41 C 10.35833 km/h
1291 12-04-2019 20:00:00 6.06667 C 4 g/m*3 4.3 C 8.34167 km/h
1292 12-04-2019 21:00:00 5.55 C 4.25 g/m*3 4.34 C 6.04167 km/h
1293 12-04-2019 22:00:00 4.39167 C 4.34 g/m*3 4.39 C 0.26667 km/h
1294 12-04-2019 23:00:00 3.58333 C 4.25 g/m*3 3.58 C 0.13333 km/h
1295 13-04-2019 00:00:00 2.95 C 4.3 g/m*3 2.95 C 0.66667 km/h
1296 13-04-2019 01:00:00 2.875 C 4.31 g/m*3 2.88 C 2.13333 km/h
1297 13-04-2019 02:00:00 2.61667 C 4.39 g/m*3 2.62 C 1.6 km/h
1298 13-04-2019 03:00:00 2.30833 C 4.42 g/m*3 2.31 C 0.26667 km/h
1299 13-04-2019 04:00:00 2.6 C 4.48 g/m*3 2.6 C 2.275 km/h
1300 13-04-2019 05:00:00 2.54167 C 4.5 g/m*3 2.54 C 0.4 km/h
Sensor: Nr:Datum:Temp:Abs-Feuchte:Windchill:Wind:
Aussen-T/F 1301 13-04-2019 06:00:00 2.28333 C 4.56 g/m*3 2.28 C 0.93333 km/h
1302 13-04-2019 07:00:00 2.5 C 4.6 g/m*3 2.5 C 2 km/h
1303 13-04-2019 08:00:00 3.125 C 4.63 g/m*3 1.24 C 6.975 km/h
1304 13-04-2019 09:00:00 3.60833 C 4.54 g/m*3 1.68 C 7.375 km/h
1305 13-04-2019 10:00:00 4.75833 C 4.42 g/m*3 2.83 C 8.075 km/h
1306 13-04-2019 11:00:00 5.36667 C 4.25 g/m*3 3.66 C 7.65 km/h
1307 13-04-2019 12:00:00 5.96667 C 4.15 g/m*3 3.58 C 11.15 km/h
1308 13-04-2019 13:00:00 5.75833 C 4.51 g/m*3 3.55 C 10.075 km/h
1309 13-04-2019 14:00:00 4.69167 C 5.15 g/m*3 2.3 C 9.93333 km/h
1310 13-04-2019 15:00:00 5.61667 C 5.3 g/m*3 3.85 C 8.05 km/h
1311 13-04-2019 16:00:00 6.21667 C 5.06 g/m*3 3.51 C 13.29167 km/h
1312 13-04-2019 17:00:00 4.55 C 5.59 g/m*3 3.33 C 5.63333 km/h
1313 13-04-2019 18:00:00 6.29167 C 5.7 g/m*3 6.29 C 4.28333 km/h
1314 13-04-2019 19:00:00 5.59167 C 5.48 g/m*3 5.59 C 1.73333 km/h
1315 13-04-2019 20:00:00 4.63333 C 5.35 g/m*3 4.63 C 2.54167 km/h
1316 13-04-2019 21:00:00 3.075 C 5 g/m*3 3.08 C 0 km/h
1317 13-04-2019 22:00:00 1.56667 C 4.72 g/m*3 1.57 C 0 km/h
1318 13-04-2019 23:00:00 1.04167 C 4.68 g/m*3 1.04 C 0 km/h
1319 14-04-2019 00:00:00 0.475 C 4.56 g/m*3 0.48 C 0 km/h
1320 14-04-2019 01:00:00 0.45 C 4.63 g/m*3 0.45 C 0 km/h
1321 14-04-2019 02:00:00 1.23333 C 4.92 g/m*3 1.23 C 0.13333 km/h
1322 14-04-2019 03:00:00 1.575 C 5.02 g/m*3 1.58 C 0.53333 km/h
1323 14-04-2019 04:00:00 1.63333 C 5.04 g/m*3 1.63 C 0.26667 km/h
1324 14-04-2019 05:00:00 1.56667 C 5.05 g/m*3 1.57 C 0.66667 km/h
1325 14-04-2019 06:00:00 1.25833 C 4.97 g/m*3 1.26 C 0 km/h
Sensor: Nr:Datum:Temp:Abs-Feuchte:Windchill:Wind:
Aussen-T/F 1326 14-04-2019 07:00:00 1.225 C 5.01 g/m*3 1.23 C 0 km/h
1327 14-04-2019 08:00:00 1.5 C 5.11 g/m*3 1.5 C 0 km/h
1328 14-04-2019 09:00:00 2.66667 C 5.57 g/m*3 2.67 C 0.13333 km/h
1329 14-04-2019 10:00:00 4.15 C 6.06 g/m*3 4.15 C 4.69167 km/h
1330 14-04-2019 11:00:00 6.00833 C 6.14 g/m*3 4.71 C 6.575 km/h
1331 14-04-2019 12:00:00 7.71667 C 5.62 g/m*3 5.62 C 11.55833 km/h
1332 14-04-2019 13:00:00 8.99167 C 5.14 g/m*3 7.21 C 11.275 km/h
1333 14-04-2019 14:00:00 10.43333 C 5.05 g/m*3 8.63 C 13.56667 km/h
1334 14-04-2019 15:00:00 11.46667 C 4.99 g/m*3 11.47 C 12.89167 km/h
1335 14-04-2019 16:00:00 12.08333 C 4.9 g/m*3 12.08 C 12.63333 km/h
1336 14-04-2019 17:00:00 12.50833 C 4.81 g/m*3 12.51 C 13.69167 km/h
1337 14-04-2019 18:00:00 12.06667 C 4.87 g/m*3 12.07 C 12.625 km/h
1338 14-04-2019 19:00:00 10.99167 C 5.18 g/m*3 9.87 C 9.66667 km/h
1339 14-04-2019 20:00:00 8.25 C 5.41 g/m*3 8.25 C 2.40833 km/h
1340 14-04-2019 21:00:00 5.925 C 5.5 g/m*3 5.93 C 2.14167 km/h
1341 14-04-2019 22:00:00 4.61667 C 5.42 g/m*3 4.62 C 1.86667 km/h
1342 14-04-2019 23:00:00 4.06667 C 5.39 g/m*3 4.07 C 1.6 km/h
1343 15-04-2019 00:00:00 4.11667 C 5.51 g/m*3 4.12 C 0.93333 km/h
1344 15-04-2019 01:00:00 5.075 C 5.83 g/m*3 5.08 C 0.53333 km/h
1345 15-04-2019 02:00:00 5.64167 C 5.91 g/m*3 5.64 C 0.26667 km/h
1346 15-04-2019 03:00:00 4.81667 C 5.71 g/m*3 4.82 C 0.66667 km/h
1347 15-04-2019 04:00:00 4.78333 C 5.81 g/m*3 4.78 C 0 km/h
1348 15-04-2019 05:00:00 4.26667 C 5.68 g/m*3 4.27 C 0.4 km/h
1349 15-04-2019 06:00:00 4.48333 C 5.87 g/m*3 4.48 C 0 km/h
1350 15-04-2019 07:00:00 5.1 C 6.13 g/m*3 5.1 C 0 km/h
Sensor: Nr:Datum:Temp:Abs-Feuchte:Windchill:Wind:
Aussen-T/F 1351 15-04-2019 08:00:00 5.98333 C 6.38 g/m*3 5.98 C 2.14167 km/h
1352 15-04-2019 09:00:00 7.175 C 6.61 g/m*3 5.98 C 6.84167 km/h
1353 15-04-2019 10:00:00 8.34167 C 6.78 g/m*3 6.68 C 9.83333 km/h
1354 15-04-2019 11:00:00 10.15833 C 7.1 g/m*3 9.48 C 6.70833 km/h
1355 15-04-2019 12:00:00 12.475 C 7.23 g/m*3 12.48 C 13.025 km/h
1356 15-04-2019 13:00:00 14.29167 C 7.15 g/m*3 14.29 C 15.16667 km/h
1357 15-04-2019 14:00:00 16.025 C 7.25 g/m*3 16.02 C 14.23333 km/h
1358 15-04-2019 15:00:00 17.53333 C 6.95 g/m*3 17.53 C 16.63333 km/h
1359 15-04-2019 16:00:00 18.31667 C 7 g/m*3 18.32 C 14.75833 km/h
1360 15-04-2019 17:00:00 18.95833 C 6.68 g/m*3 18.96 C 11.7 km/h
1361 15-04-2019 18:00:00 19.13333 C 6.32 g/m*3 19.13 C 11.95833 km/h
1362 15-04-2019 19:00:00 18.19167 C 6.42 g/m*3 18.19 C 5.89167 km/h
1363 15-04-2019 20:00:00 14.2 C 6.99 g/m*3 14.2 C 3.6 km/h
1364 15-04-2019 21:00:00 11.575 C 6.81 g/m*3 11.58 C 3.6 km/h
1365 15-04-2019 22:00:00 10.24167 C 6.5 g/m*3 10.24 C 0.53333 km/h
1366 15-04-2019 23:00:00 9.24167 C 6.19 g/m*3 9.24 C 3.6 km/h
1367 16-04-2019 00:00:00 8.16667 C 5.98 g/m*3 8.17 C 4.66667 km/h
1368 16-04-2019 01:00:00 7.25833 C 5.82 g/m*3 7.26 C 2.93333 km/h
1369 16-04-2019 02:00:00 6.48333 C 5.69 g/m*3 6.48 C 2.53333 km/h
1370 16-04-2019 03:00:00 6.06667 C 5.55 g/m*3 6.07 C 2 km/h
1371 16-04-2019 04:00:00 5.83333 C 5.4 g/m*3 5.83 C 2.66667 km/h
1372 16-04-2019 05:00:00 5.50833 C 5.35 g/m*3 5.51 C 2.93333 km/h
1373 16-04-2019 06:00:00 4.99167 C 5.27 g/m*3 4.99 C 1.46667 km/h
1374 16-04-2019 07:00:00 3.91667 C 5.23 g/m*3 3.92 C 0 km/h
1375 16-04-2019 08:00:00 4.51667 C 5.48 g/m*3 4.52 C 0.4 km/h
Sensor: Nr:Datum:Temp:Abs-Feuchte:Windchill:Wind:
Aussen-T/F 1376 16-04-2019 09:00:00 6.2 C 5.94 g/m*3 6.2 C 0.66667 km/h
1377 16-04-2019 10:00:00 10.39167 C 6.13 g/m*3 10.39 C 3.875 km/h
1378 16-04-2019 11:00:00 13.69167 C 6.06 g/m*3 13.69 C 6.85833 km/h
1379 16-04-2019 12:00:00 15.59167 C 6.26 g/m*3 15.59 C 9.28333 km/h
1380 16-04-2019 13:00:00 17.025 C 6.68 g/m*3 17.02 C 9.41667 km/h
1381 16-04-2019 14:00:00 18.3 C 7.24 g/m*3 18.3 C 9.14167 km/h
1382 16-04-2019 15:00:00 19.025 C 7.4 g/m*3 19.02 C 8.45833 km/h
1383 16-04-2019 16:00:00 18.85833 C 7.5 g/m*3 18.86 C 7.24167 km/h
1384 16-04-2019 17:00:00 18.09167 C 8.11 g/m*3 18.09 C 16.36667 km/h
1385 16-04-2019 18:00:00 15.5 C 8.21 g/m*3 15.5 C 12.1 km/h
1386 16-04-2019 19:00:00 14.63333 C 8.39 g/m*3 14.63 C 2.55 km/h
1387 16-04-2019 20:00:00 13.25833 C 8.37 g/m*3 13.26 C 0.13333 km/h
1388 16-04-2019 21:00:00 12.29167 C 8.25 g/m*3 12.29 C 0.8 km/h
1389 16-04-2019 22:00:00 11.825 C 8.35 g/m*3 11.83 C 0.66667 km/h
1390 16-04-2019 23:00:00 11.475 C 8.29 g/m*3 11.48 C 0 km/h
1391 17-04-2019 00:00:00 11.01667 C 8.31 g/m*3 11.02 C 0 km/h
1392 17-04-2019 01:00:00 10.725 C 8.68 g/m*3 10.73 C 1.86667 km/h
1393 17-04-2019 02:00:00 10.25833 C 8.74 g/m*3 10.26 C 0.26667 km/h
1394 17-04-2019 03:00:00 9.91667 C 8.72 g/m*3 9.92 C 0 km/h
1395 17-04-2019 04:00:00 9.73333 C 8.71 g/m*3 9.73 C 0 km/h
1396 17-04-2019 05:00:00 9.60833 C 8.71 g/m*3 9.61 C 0 km/h
1397 17-04-2019 06:00:00 9.66667 C 8.77 g/m*3 9.67 C 0 km/h
1398 17-04-2019 07:00:00 10 C 9.02 g/m*3 10 C 0.4 km/h
1399 17-04-2019 08:00:00 10.64167 C 9.39 g/m*3 10.64 C 2.275 km/h
1400 17-04-2019 09:00:00 11.36667 C 9.81 g/m*3 11.37 C 3.2 km/h
Sensor: Nr:Datum:Temp:Abs-Feuchte:Windchill:Wind:
Aussen-T/F 1401 17-04-2019 10:00:00 12.30833 C 10.16 g/m*3 12.31 C 2.675 km/h
1402 17-04-2019 11:00:00 13.04167 C 10.32 g/m*3 13.04 C 4.80833 km/h
1403 17-04-2019 12:00:00 13.675 C 10.3 g/m*3 13.68 C 5.23333 km/h
1404 17-04-2019 13:00:00 14.88333 C 10.47 g/m*3 14.88 C 6.98333 km/h
1405 17-04-2019 14:00:00 16.18333 C 10.25 g/m*3 16.18 C 7.24167 km/h
1406 17-04-2019 15:00:00 17.19167 C 10.21 g/m*3 17.19 C 7.9 km/h
1407 17-04-2019 16:00:00 18.00833 C 9.67 g/m*3 18.01 C 13.01667 km/h
1408 17-04-2019 17:00:00 18.225 C 9.74 g/m*3 18.23 C 7.91667 km/h
1409 17-04-2019 18:00:00 18.16667 C 9.51 g/m*3 18.17 C 5.24167 km/h
1410 17-04-2019 19:00:00 16.38333 C 10.26 g/m*3 16.38 C 0 km/h
1411 17-04-2019 20:00:00 13.575 C 9.15 g/m*3 13.58 C 2.13333 km/h
1412 17-04-2019 21:00:00 11.65 C 8.36 g/m*3 11.65 C 3.2 km/h
1413 17-04-2019 22:00:00 10.36667 C 8 g/m*3 10.37 C 0 km/h
1414 17-04-2019 23:00:00 9.375 C 7.68 g/m*3 9.38 C 0 km/h
1415 18-04-2019 00:00:00 8.70833 C 7.58 g/m*3 8.71 C 0 km/h
1416 18-04-2019 01:00:00 8.75833 C 7.65 g/m*3 8.76 C 0 km/h
1417 18-04-2019 02:00:00 8.55 C 7.51 g/m*3 8.55 C 0 km/h
1418 18-04-2019 03:00:00 8.01667 C 7.15 g/m*3 8.02 C 0 km/h
1419 18-04-2019 04:00:00 7.16667 C 6.89 g/m*3 7.17 C 0 km/h
1420 18-04-2019 05:00:00 6.875 C 6.9 g/m*3 6.88 C 0 km/h
1421 18-04-2019 06:00:00 6.76667 C 6.9 g/m*3 6.77 C 0 km/h
1422 18-04-2019 07:00:00 7.44167 C 7.08 g/m*3 7.44 C 0 km/h
1423 18-04-2019 08:00:00 8.475 C 7.49 g/m*3 8.48 C 0 km/h
1424 18-04-2019 09:00:00 9.88333 C 7.78 g/m*3 9.88 C 2 km/h
1425 18-04-2019 10:00:00 12.95 C 8.06 g/m*3 12.95 C 7.38333 km/h
Sensor: Nr:Datum:Temp:Abs-Feuchte:Windchill:Wind:
Aussen-T/F 1426 18-04-2019 11:00:00 16.38333 C 7.92 g/m*3 16.38 C 10.60833 km/h
1427 18-04-2019 12:00:00 17.65833 C 7.83 g/m*3 17.66 C 12.20833 km/h
1428 18-04-2019 13:00:00 18.76667 C 7.61 g/m*3 18.77 C 12.76667 km/h
1429 18-04-2019 14:00:00 19.91667 C 7.29 g/m*3 19.92 C 15.03333 km/h
1430 18-04-2019 15:00:00 21.35 C 7.23 g/m*3 21.35 C 14.63333 km/h
1431 18-04-2019 16:00:00 22.525 C 6.83 g/m*3 22.53 C 13.7 km/h
1432 18-04-2019 17:00:00 23.375 C 6.88 g/m*3 23.38 C 12.35833 km/h
1433 18-04-2019 18:00:00 23.40833 C 6.89 g/m*3 23.41 C 10.48333 km/h
1434 18-04-2019 19:00:00 22.28333 C 7.18 g/m*3 22.28 C 6.04167 km/h
1435 18-04-2019 20:00:00 18.05833 C 8.09 g/m*3 18.06 C 4 km/h
1436 18-04-2019 21:00:00 15.33333 C 7.77 g/m*3 15.33 C 4.8 km/h
1437 18-04-2019 22:00:00 14.23333 C 7.54 g/m*3 14.23 C 4.8 km/h
1438 18-04-2019 23:00:00 13.08333 C 7.44 g/m*3 13.08 C 2.4 km/h
1439 19-04-2019 00:00:00 11.55833 C 7.45 g/m*3 11.56 C 0 km/h
1440 19-04-2019 01:00:00 10.70833 C 7.37 g/m*3 10.71 C 0.26667 km/h
1441 19-04-2019 02:00:00 11.01667 C 7.17 g/m*3 11.02 C 3.33333 km/h
1442 19-04-2019 03:00:00 10.29167 C 7.05 g/m*3 10.29 C 1.86667 km/h
1443 19-04-2019 04:00:00 9.61667 C 6.99 g/m*3 9.62 C 0.13333 km/h
1444 19-04-2019 05:00:00 8.24167 C 6.84 g/m*3 8.24 C 0 km/h
1445 19-04-2019 06:00:00 7.04167 C 6.51 g/m*3 7.04 C 0 km/h
1446 19-04-2019 07:00:00 6.65 C 6.58 g/m*3 6.65 C 0 km/h
1447 19-04-2019 08:00:00 6.85 C 6.8 g/m*3 6.85 C 0 km/h
1448 19-04-2019 09:00:00 8.975 C 7.61 g/m*3 8.98 C 0.66667 km/h
1449 19-04-2019 10:00:00 13.525 C 7.82 g/m*3 13.53 C 7.66667 km/h
1450 19-04-2019 11:00:00 17.95833 C 7.47 g/m*3 17.96 C 14.1 km/h
Sensor: Nr:Datum:Temp:Abs-Feuchte:Windchill:Wind:
Aussen-T/F 1451 19-04-2019 12:00:00 19.9 C 7.13 g/m*3 19.9 C 13.7 km/h
1452 19-04-2019 13:00:00 21.36667 C 6.41 g/m*3 21.37 C 12.35 km/h
1453 19-04-2019 14:00:00 22.44167 C 6.24 g/m*3 22.44 C 15.43333 km/h
1454 19-04-2019 15:00:00 23.675 C 5.75 g/m*3 23.68 C 14.63333 km/h
1455 19-04-2019 16:00:00 24.89167 C 5.51 g/m*3 24.89 C 13.825 km/h
1456 19-04-2019 17:00:00 25.28333 C 5.26 g/m*3 25.28 C 12.76667 km/h
1457 19-04-2019 18:00:00 25.50833 C 5.29 g/m*3 25.51 C 9.83333 km/h
1458 19-04-2019 19:00:00 24.25 C 5.77 g/m*3 24.25 C 4.95833 km/h
1459 19-04-2019 20:00:00 19.21667 C 6.74 g/m*3 19.22 C 4.66667 km/h
1460 19-04-2019 21:00:00 15.875 C 6.68 g/m*3 15.88 C 2.93333 km/h
1461 19-04-2019 22:00:00 13.33333 C 6.74 g/m*3 13.33 C 0.8 km/h
1462 19-04-2019 23:00:00 11.73333 C 6.73 g/m*3 11.73 C 1.2 km/h
1463 20-04-2019 00:00:00 10.40833 C 6.81 g/m*3 10.41 C 0.4 km/h
1464 20-04-2019 01:00:00 9.45833 C 6.91 g/m*3 9.46 C 0 km/h
1465 20-04-2019 02:00:00 8.55833 C 6.93 g/m*3 8.56 C 0 km/h
1466 20-04-2019 03:00:00 7.64167 C 6.79 g/m*3 7.64 C 0 km/h
1467 20-04-2019 04:00:00 6.85 C 6.68 g/m*3 6.85 C 0 km/h
1468 20-04-2019 05:00:00 6.23333 C 6.58 g/m*3 6.23 C 0 km/h
1469 20-04-2019 06:00:00 5.775 C 6.48 g/m*3 5.78 C 0 km/h
1470 20-04-2019 07:00:00 5.85833 C 6.61 g/m*3 5.86 C 0.13333 km/h
1471 20-04-2019 08:00:00 6.48333 C 6.92 g/m*3 6.48 C 0 km/h
1472 20-04-2019 09:00:00 8.16667 C 7.71 g/m*3 8.17 C 0 km/h
1473 20-04-2019 10:00:00 11.68333 C 8.74 g/m*3 11.68 C 1.33333 km/h
1474 20-04-2019 11:00:00 16.725 C 9.1 g/m*3 16.73 C 3.46667 km/h
1475 20-04-2019 12:00:00 20.225 C 8.22 g/m*3 20.23 C 6.7 km/h
Sensor: Nr:Datum:Temp:Abs-Feuchte:Windchill:Wind:
Aussen-T/F 1476 20-04-2019 13:00:00 22.05 C 7.07 g/m*3 22.05 C 10.61667 km/h
1477 20-04-2019 14:00:00 23.275 C 6.04 g/m*3 23.28 C 11.95 km/h
1478 20-04-2019 15:00:00 24.25833 C 6.13 g/m*3 24.26 C 11.96667 km/h
1479 20-04-2019 16:00:00 25.21667 C 6.21 g/m*3 25.22 C 12.36667 km/h
1480 20-04-2019 17:00:00 25.30833 C 5.89 g/m*3 25.31 C 14.1 km/h
1481 20-04-2019 18:00:00 25.39167 C 5.55 g/m*3 25.39 C 10.89167 km/h
1482 20-04-2019 19:00:00 24.575 C 6.03 g/m*3 24.58 C 5.5 km/h
1483 20-04-2019 20:00:00 19.875 C 7.41 g/m*3 19.88 C 3.6 km/h
1484 20-04-2019 21:00:00 16.175 C 7.52 g/m*3 16.18 C 0.66667 km/h
1485 20-04-2019 22:00:00 13.81667 C 7.54 g/m*3 13.82 C 0 km/h
1486 20-04-2019 23:00:00 12.90833 C 7.4 g/m*3 12.91 C 0 km/h
1487 21-04-2019 00:00:00 12.84167 C 7.27 g/m*3 12.84 C 0 km/h
1488 21-04-2019 01:00:00 12.48333 C 7.18 g/m*3 12.48 C 0 km/h
1489 21-04-2019 02:00:00 11.36667 C 7.19 g/m*3 11.37 C 0 km/h
1490 21-04-2019 03:00:00 10.81667 C 7.23 g/m*3 10.82 C 0 km/h
1491 21-04-2019 04:00:00 9.23333 C 7.01 g/m*3 9.23 C 0 km/h
1492 21-04-2019 05:00:00 7.375 C 6.74 g/m*3 7.38 C 0 km/h
1493 21-04-2019 06:00:00 6.45 C 6.56 g/m*3 6.45 C 0 km/h
1494 21-04-2019 07:00:00 6.68333 C 6.77 g/m*3 6.68 C 0 km/h
1495 21-04-2019 08:00:00 7.16667 C 7.04 g/m*3 7.17 C 0 km/h
1496 21-04-2019 09:00:00 8.675 C 7.73 g/m*3 8.68 C 0 km/h
1497 21-04-2019 10:00:00 11.98333 C 8.67 g/m*3 11.98 C 0 km/h
1498 21-04-2019 11:00:00 16.48333 C 8.88 g/m*3 16.48 C 1.2 km/h
1499 21-04-2019 12:00:00 19.65833 C 7.65 g/m*3 19.66 C 5.08333 km/h
1500 21-04-2019 13:00:00 21.525 C 6.63 g/m*3 21.53 C 7.65833 km/h
Sensor: Nr:Datum:Temp:Abs-Feuchte:Windchill:Wind:
Aussen-T/F 1501 21-04-2019 14:00:00 22.98333 C 6.16 g/m*3 22.98 C 8.2 km/h
1502 21-04-2019 15:00:00 24.46667 C 6.78 g/m*3 24.47 C 9.81667 km/h
1503 21-04-2019 16:00:00 25.73333 C 6.32 g/m*3 25.73 C 11.41667 km/h
1504 21-04-2019 17:00:00 25.94167 C 5.95 g/m*3 25.94 C 11.825 km/h
1505 21-04-2019 18:00:00 26.13333 C 5.97 g/m*3 26.13 C 7.50833 km/h
1506 21-04-2019 19:00:00 24.58333 C 6.37 g/m*3 24.58 C 4.95 km/h
1507 21-04-2019 20:00:00 19.69167 C 6.89 g/m*3 19.69 C 3.6 km/h
1508 21-04-2019 21:00:00 16.725 C 7.21 g/m*3 16.73 C 2.26667 km/h
1509 21-04-2019 22:00:00 13.85833 C 7.54 g/m*3 13.86 C 0 km/h
1510 21-04-2019 23:00:00 12.21667 C 7.25 g/m*3 12.22 C 0 km/h
1511 22-04-2019 00:00:00 10.54167 C 7.03 g/m*3 10.54 C 0 km/h
1512 22-04-2019 01:00:00 9.24167 C 6.98 g/m*3 9.24 C 0 km/h
1513 22-04-2019 02:00:00 8.2 C 6.91 g/m*3 8.2 C 0.13333 km/h
1514 22-04-2019 03:00:00 7.56667 C 6.83 g/m*3 7.57 C 0.13333 km/h
1515 22-04-2019 04:00:00 6.64167 C 6.65 g/m*3 6.64 C 0 km/h
1516 22-04-2019 05:00:00 5.89167 C 6.51 g/m*3 5.89 C 0 km/h
1517 22-04-2019 06:00:00 5.475 C 6.43 g/m*3 5.48 C 0 km/h
1518 22-04-2019 07:00:00 5.74167 C 6.63 g/m*3 5.74 C 0 km/h
1519 22-04-2019 08:00:00 6.54167 C 6.99 g/m*3 6.54 C 0 km/h
1520 22-04-2019 09:00:00 8.40833 C 7.81 g/m*3 8.41 C 0.8 km/h
1521 22-04-2019 10:00:00 12.55 C 8.39 g/m*3 12.55 C 3.075 km/h
1522 22-04-2019 11:00:00 17.96667 C 7.52 g/m*3 17.97 C 11.825 km/h
1523 22-04-2019 12:00:00 20.89167 C 6.96 g/m*3 20.89 C 12.76667 km/h
1524 22-04-2019 13:00:00 22.65 C 5.99 g/m*3 22.65 C 14.36667 km/h
1525 22-04-2019 14:00:00 23.45 C 6.13 g/m*3 23.45 C 15.3 km/h
Sensor: Nr:Datum:Temp:Abs-Feuchte:Windchill:Wind:
Aussen-T/F 1526 22-04-2019 15:00:00 24.375 C 6.32 g/m*3 24.38 C 15.03333 km/h
1527 22-04-2019 16:00:00 25.49167 C 6.11 g/m*3 25.49 C 15.83333 km/h
1528 22-04-2019 17:00:00 25.70833 C 5.93 g/m*3 25.71 C 12.9 km/h
1529 22-04-2019 18:00:00 24.4 C 6.25 g/m*3 24.4 C 4.55833 km/h
1530 22-04-2019 19:00:00 21.4 C 7.8 g/m*3 21.4 C 2 km/h
1531 22-04-2019 20:00:00 19.55 C 7.24 g/m*3 19.55 C 5.50833 km/h
1532 22-04-2019 21:00:00 16.975 C 7.06 g/m*3 16.98 C 3.46667 km/h
1533 22-04-2019 22:00:00 15.15 C 6.63 g/m*3 15.15 C 3.74167 km/h
1534 22-04-2019 23:00:00 15.04167 C 6.34 g/m*3 15.04 C 5.36667 km/h
1535 23-04-2019 00:00:00 13.175 C 6.4 g/m*3 13.18 C 2.13333 km/h
1536 23-04-2019 01:00:00 11.55 C 6.45 g/m*3 11.55 C 0.53333 km/h
1537 23-04-2019 02:00:00 10.31667 C 6.42 g/m*3 10.32 C 0.66667 km/h
1538 23-04-2019 03:00:00 9.7 C 6.31 g/m*3 9.7 C 0 km/h
1539 23-04-2019 04:00:00 9.15833 C 6.39 g/m*3 9.16 C 0 km/h
1540 23-04-2019 05:00:00 8.83333 C 6.38 g/m*3 8.83 C 0 km/h
1541 23-04-2019 06:00:00 8.31667 C 6.41 g/m*3 8.32 C 0 km/h
1542 23-04-2019 07:00:00 8.99167 C 6.81 g/m*3 8.99 C 0 km/h
1543 23-04-2019 08:00:00 10.325 C 7.31 g/m*3 10.33 C 0 km/h
1544 23-04-2019 09:00:00 12.53333 C 7.04 g/m*3 12.53 C 7.94167 km/h
1545 23-04-2019 10:00:00 14.025 C 7.28 g/m*3 14.03 C 9.95833 km/h
1546 23-04-2019 11:00:00 15.475 C 7.58 g/m*3 15.48 C 12.76667 km/h
1547 23-04-2019 12:00:00 17.04167 C 8.01 g/m*3 17.04 C 11.56667 km/h
1548 23-04-2019 13:00:00 18.89167 C 8.29 g/m*3 18.89 C 14.36667 km/h
1549 23-04-2019 14:00:00 20.44167 C 8.5 g/m*3 20.44 C 13.16667 km/h
1550 23-04-2019 15:00:00 21.76667 C 8.55 g/m*3 21.77 C 14.76667 km/h
Sensor: Nr:Datum:Temp:Abs-Feuchte:Windchill:Wind:
Aussen-T/F 1551 23-04-2019 16:00:00 23.1 C 8.79 g/m*3 23.1 C 10.875 km/h
1552 23-04-2019 17:00:00 23.4 C 8.97 g/m*3 23.4 C 8.475 km/h
1553 23-04-2019 18:00:00 21.775 C 8.86 g/m*3 21.78 C 7.91667 km/h
1554 23-04-2019 19:00:00 20.31667 C 9.21 g/m*3 20.32 C 2.93333 km/h
1555 23-04-2019 20:00:00 17.975 C 9.41 g/m*3 17.98 C 0.53333 km/h
1556 23-04-2019 21:00:00 16.08333 C 9.45 g/m*3 16.08 C 0.13333 km/h
1557 23-04-2019 22:00:00 15.54167 C 9.44 g/m*3 15.54 C 0 km/h
1558 23-04-2019 23:00:00 15.08333 C 9.3 g/m*3 15.08 C 0 km/h
1559 24-04-2019 00:00:00 14.425 C 9.31 g/m*3 14.43 C 0 km/h
1560 24-04-2019 01:00:00 12.65833 C 8.71 g/m*3 12.66 C 0 km/h
1561 24-04-2019 02:00:00 11.325 C 8.48 g/m*3 11.33 C 0 km/h
1562 24-04-2019 03:00:00 10.39167 C 8.33 g/m*3 10.39 C 0 km/h
1563 24-04-2019 04:00:00 9.89167 C 8.28 g/m*3 9.89 C 0 km/h
1564 24-04-2019 05:00:00 9.35 C 8.12 g/m*3 9.35 C 0 km/h
1565 24-04-2019 06:00:00 9.1 C 8.13 g/m*3 9.1 C 0.26667 km/h
1566 24-04-2019 07:00:00 9.66667 C 8.51 g/m*3 9.67 C 0 km/h
1567 24-04-2019 08:00:00 11.55833 C 9.01 g/m*3 11.56 C 0 km/h
1568 24-04-2019 09:00:00 13.39167 C 9.57 g/m*3 13.39 C 0 km/h
1569 24-04-2019 10:00:00 16.14167 C 10.2 g/m*3 16.14 C 0 km/h
1570 24-04-2019 11:00:00 18.73333 C 10.71 g/m*3 18.73 C 1.74167 km/h
1571 24-04-2019 12:00:00 21.425 C 9.5 g/m*3 21.43 C 9.14167 km/h
1572 24-04-2019 13:00:00 22.38333 C 9.03 g/m*3 22.38 C 9.14167 km/h
1573 24-04-2019 14:00:00 23.45 C 9.01 g/m*3 23.45 C 6.05 km/h
1574 24-04-2019 15:00:00 24.80833 C 8.88 g/m*3 24.81 C 6.56667 km/h
1575 24-04-2019 16:00:00 25.20833 C 9.14 g/m*3 25.21 C 6.15833 km/h
Sensor: Nr:Datum:Temp:Abs-Feuchte:Windchill:Wind:
Aussen-T/F 1576 24-04-2019 17:00:00 25.675 C 9.78 g/m*3 25.68 C 6.16667 km/h
1577 24-04-2019 18:00:00 19.91667 C 9.77 g/m*3 19.92 C 24.66667 km/h
1578 24-04-2019 19:00:00 13.875 C 9.24 g/m*3 13.88 C 28.94167 km/h
1579 24-04-2019 20:00:00 11.34167 C 8.8 g/m*3 11.34 C 16.225 km/h
1580 24-04-2019 21:00:00 9.85 C 8.55 g/m*3 9.85 C 1.86667 km/h
1581 24-04-2019 22:00:00 9.16667 C 8.33 g/m*3 9.17 C 0 km/h
1582 24-04-2019 23:00:00 9.00833 C 8.37 g/m*3 9.01 C 0 km/h
1583 25-04-2019 00:00:00 8.85833 C 8.3 g/m*3 8.86 C 0.4 km/h
1584 25-04-2019 01:00:00 8.125 C 7.92 g/m*3 8.13 C 0.66667 km/h
1585 25-04-2019 02:00:00 7.45 C 7.6 g/m*3 7.45 C 0 km/h
1586 25-04-2019 03:00:00 7.2 C 7.54 g/m*3 7.2 C 0 km/h
1587 25-04-2019 04:00:00 7.05833 C 7.47 g/m*3 7.06 C 0 km/h
1588 25-04-2019 05:00:00 7.10833 C 7.49 g/m*3 7.11 C 0 km/h
1589 25-04-2019 06:00:00 7.05833 C 7.53 g/m*3 7.06 C 0.4 km/h
1590 25-04-2019 07:00:00 7.85833 C 7.95 g/m*3 7.86 C 0.53333 km/h
1591 25-04-2019 08:00:00 9.16667 C 8.64 g/m*3 9.17 C 3.06667 km/h
1592 25-04-2019 09:00:00 10.63333 C 9.49 g/m*3 10.63 C 0.13333 km/h
1593 25-04-2019 10:00:00 11.54167 C 9.93 g/m*3 11.54 C 1.75 km/h
1594 25-04-2019 11:00:00 14.14167 C 9.69 g/m*3 14.14 C 8.06667 km/h
1595 25-04-2019 12:00:00 16.96667 C 9.24 g/m*3 16.97 C 8.60833 km/h
1596 25-04-2019 13:00:00 18.6 C 9.35 g/m*3 18.6 C 8.61667 km/h
1597 25-04-2019 14:00:00 20.25833 C 9.3 g/m*3 20.26 C 7.39167 km/h
1598 25-04-2019 15:00:00 21.525 C 9.32 g/m*3 21.53 C 8.19167 km/h
1599 25-04-2019 16:00:00 22.125 C 10.75 g/m*3 22.13 C 3.21667 km/h
1600 25-04-2019 17:00:00 21.35 C 11.08 g/m*3 21.35 C 6.725 km/h
Sensor: Nr:Datum:Temp:Abs-Feuchte:Windchill:Wind:
Aussen-T/F 1601 25-04-2019 18:00:00 20.55833 C 9.8 g/m*3 20.56 C 13.95833 km/h
1602 25-04-2019 19:00:00 16.88333 C 8.82 g/m*3 16.88 C 17.45 km/h
1603 25-04-2019 20:00:00 15.125 C 8.62 g/m*3 15.13 C 12.61667 km/h
1604 25-04-2019 21:00:00 13.85 C 8.64 g/m*3 13.85 C 7.125 km/h
1605 25-04-2019 22:00:00 13.04167 C 8.49 g/m*3 13.04 C 2.4 km/h
1606 25-04-2019 23:00:00 12.425 C 8.57 g/m*3 12.43 C 0 km/h
1607 26-04-2019 00:00:00 11.39167 C 8.43 g/m*3 11.39 C 0 km/h
1608 26-04-2019 01:00:00 10.93333 C 8.5 g/m*3 10.93 C 0 km/h
1609 26-04-2019 02:00:00 11.00833 C 8.44 g/m*3 11.01 C 0 km/h
1610 26-04-2019 03:00:00 10.98333 C 8.31 g/m*3 10.98 C 0 km/h
1611 26-04-2019 04:00:00 10.8 C 8.27 g/m*3 10.8 C 2.80833 km/h
1612 26-04-2019 05:00:00 10.4 C 8.38 g/m*3 10.4 C 2.80833 km/h
1613 26-04-2019 06:00:00 9.625 C 8.44 g/m*3 9.63 C 0.93333 km/h
1614 26-04-2019 07:00:00 9.5 C 8.55 g/m*3 9.5 C 0.93333 km/h
1615 26-04-2019 08:00:00 9.50833 C 8.62 g/m*3 9.51 C 0.8 km/h
1616 26-04-2019 09:00:00 9.99167 C 8.92 g/m*3 9.99 C 3.08333 km/h
1617 26-04-2019 10:00:00 10.275 C 9.08 g/m*3 10.28 C 3.48333 km/h
1618 26-04-2019 11:00:00 10.88333 C 9.29 g/m*3 10.88 C 4.55833 km/h
1619 26-04-2019 12:00:00 11.95833 C 9.42 g/m*3 11.96 C 8.73333 km/h
1620 26-04-2019 13:00:00 13.00833 C 9.36 g/m*3 13.01 C 9.68333 km/h
1621 26-04-2019 14:00:00 13.53333 C 9.16 g/m*3 13.53 C 10.9 km/h
1622 26-04-2019 15:00:00 13.525 C 8.98 g/m*3 13.53 C 9 km/h
1623 26-04-2019 16:00:00 15.06667 C 9.1 g/m*3 15.07 C 8.74167 km/h
1624 26-04-2019 17:00:00 15.74167 C 8.85 g/m*3 15.74 C 6.025 km/h
1625 26-04-2019 18:00:00 16.925 C 8.93 g/m*3 16.93 C 3.60833 km/h
Sensor: Nr:Datum:Temp:Abs-Feuchte:Windchill:Wind:
Aussen-T/F 1626 26-04-2019 19:00:00 15.84167 C 9.71 g/m*3 15.84 C 0 km/h
1627 26-04-2019 20:00:00 12.575 C 8.92 g/m*3 12.58 C 7.89167 km/h
1628 26-04-2019 21:00:00 10.89167 C 8.66 g/m*3 10.89 C 2.13333 km/h
1629 26-04-2019 22:00:00 10.45833 C 8.59 g/m*3 10.46 C 0 km/h
1630 26-04-2019 23:00:00 10.00833 C 8.49 g/m*3 10.01 C 0 km/h
1631 27-04-2019 00:00:00 9.20833 C 8.21 g/m*3 9.21 C 0 km/h
1632 27-04-2019 01:00:00 9.14167 C 8.27 g/m*3 9.14 C 0 km/h
1633 27-04-2019 02:00:00 8.575 C 7.99 g/m*3 8.57 C 0.26667 km/h
1634 27-04-2019 03:00:00 7.875 C 7.71 g/m*3 7.88 C 0 km/h
1635 27-04-2019 04:00:00 7.18333 C 7.39 g/m*3 7.18 C 0 km/h
1636 27-04-2019 05:00:00 6.64167 C 7.18 g/m*3 6.64 C 0 km/h
1637 27-04-2019 06:00:00 6.425 C 7.12 g/m*3 6.43 C 0 km/h
1638 27-04-2019 07:00:00 7.15 C 7.51 g/m*3 7.15 C 0 km/h
1639 27-04-2019 08:00:00 8.66667 C 8.36 g/m*3 8.67 C 0 km/h
1640 27-04-2019 09:00:00 10.16667 C 9.01 g/m*3 10.17 C 1.33333 km/h
1641 27-04-2019 10:00:00 11.30833 C 8.95 g/m*3 11.31 C 3.075 km/h
1642 27-04-2019 11:00:00 12.64167 C 8.49 g/m*3 12.64 C 11.14167 km/h
1643 27-04-2019 12:00:00 12.69167 C 9.08 g/m*3 12.69 C 9.29167 km/h
1644 27-04-2019 13:00:00 13.025 C 8.85 g/m*3 13.03 C 14.90833 km/h
1645 27-04-2019 14:00:00 9.525 C 8.21 g/m*3 8.62 C 7.24167 km/h
1646 27-04-2019 15:00:00 10.46667 C 8.71 g/m*3 10.47 C 3.475 km/h
1647 27-04-2019 16:00:00 11.75 C 8.58 g/m*3 11.75 C 6.85 km/h
1648 27-04-2019 17:00:00 12.35 C 8.56 g/m*3 12.35 C 6.84167 km/h
1649 27-04-2019 18:00:00 11.34167 C 8.22 g/m*3 11.34 C 5.89167 km/h
1650 27-04-2019 19:00:00 9.55833 C 8.23 g/m*3 8.92 C 6.16667 km/h
Sensor: Nr:Datum:Temp:Abs-Feuchte:Windchill:Wind:
Aussen-T/F 1651 27-04-2019 20:00:00 7.725 C 7.49 g/m*3 7.73 C 3.33333 km/h
1652 27-04-2019 21:00:00 7.3 C 7.41 g/m*3 7.3 C 0.8 km/h
1653 27-04-2019 22:00:00 6.76667 C 7.22 g/m*3 6.77 C 1.33333 km/h
1654 27-04-2019 23:00:00 6.84167 C 7.28 g/m*3 6.84 C 4.55833 km/h
1655 28-04-2019 00:00:00 6.86667 C 7.2 g/m*3 6.87 C 4.15 km/h
1656 28-04-2019 01:00:00 6.875 C 7.09 g/m*3 5.87 C 6.025 km/h
1657 28-04-2019 02:00:00 6.43333 C 6.8 g/m*3 5.45 C 5.76667 km/h
1658 28-04-2019 03:00:00 6.19167 C 6.63 g/m*3 5 C 6.30833 km/h
1659 28-04-2019 04:00:00 6.41667 C 6.58 g/m*3 4.26 C 10.475 km/h
1660 28-04-2019 05:00:00 6.26667 C 6.55 g/m*3 4.13 C 10.20833 km/h
1661 28-04-2019 06:00:00 6.2 C 6.53 g/m*3 4.7 C 7.39167 km/h
1662 28-04-2019 07:00:00 6.80833 C 6.75 g/m*3 5.45 C 7.25833 km/h
1663 28-04-2019 08:00:00 7.575 C 6.92 g/m*3 6.24 C 7.65833 km/h
1664 28-04-2019 09:00:00 7.93333 C 7.13 g/m*3 7.93 C 4.28333 km/h
1665 28-04-2019 10:00:00 8.90833 C 7.27 g/m*3 8.18 C 6.15 km/h
1666 28-04-2019 11:00:00 10 C 6.98 g/m*3 8.42 C 11.3 km/h
1667 28-04-2019 12:00:00 10.325 C 6.77 g/m*3 9.12 C 9.39167 km/h
1668 28-04-2019 13:00:00 11.3 C 6.83 g/m*3 11.3 C 8.61667 km/h
1669 28-04-2019 14:00:00 12.35 C 7.24 g/m*3 12.35 C 7.125 km/h
1670 28-04-2019 15:00:00 11.50833 C 7.58 g/m*3 11.51 C 6.56667 km/h
1671 28-04-2019 16:00:00 10.375 C 8.07 g/m*3 10.11 C 5.23333 km/h
1672 28-04-2019 17:00:00 11.44167 C 8.14 g/m*3 11.44 C 2.54167 km/h
1673 28-04-2019 18:00:00 11.48333 C 7.7 g/m*3 11.48 C 6.73333 km/h
1674 28-04-2019 19:00:00 10.86667 C 7.54 g/m*3 10.24 C 6.975 km/h
1675 28-04-2019 20:00:00 9.65 C 7.37 g/m*3 9.65 C 1.475 km/h
Sensor: Nr:Datum:Temp:Abs-Feuchte:Windchill:Wind:
Aussen-T/F 1676 28-04-2019 21:00:00 7.30833 C 6.87 g/m*3 7.31 C 0 km/h
1677 28-04-2019 22:00:00 5.96667 C 6.55 g/m*3 5.97 C 0 km/h
1678 28-04-2019 23:00:00 5 C 6.27 g/m*3 5 C 0 km/h
1679 29-04-2019 00:00:00 4.41667 C 6.12 g/m*3 4.42 C 0 km/h
1680 29-04-2019 01:00:00 4.03333 C 5.99 g/m*3 4.03 C 0 km/h
1681 29-04-2019 02:00:00 3.425 C 5.8 g/m*3 3.43 C 0 km/h
1682 29-04-2019 03:00:00 3.675 C 5.91 g/m*3 3.68 C 0 km/h
1683 29-04-2019 04:00:00 3.54167 C 5.89 g/m*3 3.54 C 0 km/h
1684 29-04-2019 05:00:00 3.35833 C 5.85 g/m*3 3.36 C 4.26667 km/h
1685 29-04-2019 06:00:00 3.15 C 5.77 g/m*3 3.15 C 1.46667 km/h
1686 29-04-2019 07:00:00 3.225 C 5.79 g/m*3 3.23 C 1.73333 km/h
1687 29-04-2019 08:00:00 3.85833 C 6.07 g/m*3 3.86 C 4.26667 km/h
1688 29-04-2019 09:00:00 4.99167 C 6.59 g/m*3 4.99 C 4.13333 km/h
1689 29-04-2019 10:00:00 6.51667 C 7.15 g/m*3 6.52 C 2.4 km/h
1690 29-04-2019 11:00:00 8.7 C 7.85 g/m*3 8.7 C 2.4 km/h
1691 29-04-2019 12:00:00 11.925 C 8.18 g/m*3 11.93 C 5.48333 km/h
1692 29-04-2019 13:00:00 13.975 C 7.63 g/m*3 13.98 C 9.025 km/h
1693 29-04-2019 14:00:00 14.83333 C 7.25 g/m*3 14.83 C 9.69167 km/h
1694 29-04-2019 15:00:00 15.29167 C 7.35 g/m*3 15.29 C 9.68333 km/h
1695 29-04-2019 16:00:00 15.31667 C 7.23 g/m*3 15.32 C 11.43333 km/h
1696 29-04-2019 17:00:00 15.31667 C 7.29 g/m*3 15.32 C 11.7 km/h
1697 29-04-2019 18:00:00 13.69167 C 8.13 g/m*3 13.69 C 7.26667 km/h
1698 29-04-2019 19:00:00 11.075 C 8.86 g/m*3 11.08 C 1.2 km/h
1699 29-04-2019 20:00:00 10.25 C 8.74 g/m*3 10.25 C 0 km/h
1700 29-04-2019 21:00:00 10.13333 C 8.75 g/m*3 10.13 C 0.4 km/h
Sensor: Nr:Datum:Temp:Abs-Feuchte:Windchill:Wind:
Aussen-T/F 1701 29-04-2019 22:00:00 10.25833 C 8.76 g/m*3 10.26 C 2.675 km/h
1702 29-04-2019 23:00:00 10.65833 C 8.78 g/m*3 10.66 C 1.73333 km/h
1703 30-04-2019 00:00:00 10.98333 C 8.73 g/m*3 10.98 C 3.48333 km/h
1704 30-04-2019 01:00:00 11.16667 C 8.72 g/m*3 11.17 C 5.09167 km/h
1705 30-04-2019 02:00:00 10.85 C 8.73 g/m*3 10.85 C 4.01667 km/h
1706 30-04-2019 03:00:00 10.59167 C 8.68 g/m*3 10.59 C 2.94167 km/h
1707 30-04-2019 04:00:00 10.30833 C 8.52 g/m*3 10.31 C 2.275 km/h
1708 30-04-2019 05:00:00 10.18333 C 8.37 g/m*3 9.9 C 5.225 km/h
1709 30-04-2019 06:00:00 10.05833 C 8.38 g/m*3 10.06 C 3.89167 km/h
1710 30-04-2019 07:00:00 10.075 C 8.38 g/m*3 9.62 C 5.775 km/h
1711 30-04-2019 08:00:00 10.725 C 8.26 g/m*3 9.87 C 7.925 km/h
1712 30-04-2019 09:00:00 11.51667 C 7.94 g/m*3 11.52 C 10.225 km/h
1713 30-04-2019 10:00:00 12.61667 C 7.76 g/m*3 12.62 C 10.76667 km/h
1714 30-04-2019 11:00:00 13.60833 C 7.39 g/m*3 13.61 C 10.34167 km/h
1715 30-04-2019 12:00:00 14.5 C 7.26 g/m*3 14.5 C 12.225 km/h
1716 30-04-2019 13:00:00 15.65833 C 7.11 g/m*3 15.66 C 11.29167 km/h
1717 30-04-2019 14:00:00 16.86667 C 6.96 g/m*3 16.87 C 10.35 km/h
1718 30-04-2019 15:00:00 18.59167 C 7.21 g/m*3 18.59 C 12.9 km/h
1719 30-04-2019 16:00:00 20.025 C 7.07 g/m*3 20.02 C 12.23333 km/h
1720 30-04-2019 17:00:00 20.46667 C 7.37 g/m*3 20.47 C 11.425 km/h
1721 30-04-2019 18:00:00 20.24167 C 7.51 g/m*3 20.24 C 10.075 km/h
1722 30-04-2019 19:00:00 18.90833 C 7.92 g/m*3 18.91 C 10.09167 km/h
1723 30-04-2019 20:00:00 16.95833 C 8.22 g/m*3 16.96 C 6.96667 km/h
1724 30-04-2019 21:00:00 15.48333 C 8.56 g/m*3 15.48 C 5.625 km/h
1725 30-04-2019 22:00:00 14.225 C 8.66 g/m*3 14.23 C 7.925 km/h
Sensor: Nr:Datum:Temp:Abs-Feuchte:Windchill:Wind:
Aussen-T/F 1726 30-04-2019 23:00:00 12.65833 C 8.65 g/m*3 12.66 C 2.81667 km/h
1727 01-05-2019 00:00:00 11.25833 C 8.45 g/m*3 11.26 C 0.8 km/h
1728 01-05-2019 01:00:00 10.36667 C 8.22 g/m*3 10.37 C 0.66667 km/h
1729 01-05-2019 02:00:00 9.26667 C 7.91 g/m*3 9.27 C 0 km/h
1730 01-05-2019 03:00:00 8.45833 C 7.73 g/m*3 8.46 C 0.13333 km/h
1731 01-05-2019 04:00:00 8.075 C 7.62 g/m*3 8.07 C 0.4 km/h
1732 01-05-2019 05:00:00 6.95833 C 7.13 g/m*3 6.96 C 0 km/h
1733 01-05-2019 06:00:00 6.275 C 6.92 g/m*3 6.28 C 0.13333 km/h
1734 01-05-2019 07:00:00 6.79167 C 7.26 g/m*3 6.79 C 0.53333 km/h
1735 01-05-2019 08:00:00 7.9 C 7.79 g/m*3 7.9 C 0.8 km/h
1736 01-05-2019 09:00:00 8.89167 C 8.14 g/m*3 8.89 C 1.46667 km/h
1737 01-05-2019 10:00:00 10.11667 C 8.5 g/m*3 10.12 C 3.06667 km/h
1738 01-05-2019 11:00:00 11.40833 C 8.86 g/m*3 11.41 C 3.06667 km/h
1739 01-05-2019 12:00:00 13.80833 C 9.43 g/m*3 13.81 C 4.40833 km/h
1740 01-05-2019 13:00:00 16.03333 C 9.07 g/m*3 16.03 C 7.54167 km/h
1741 01-05-2019 14:00:00 17.69167 C 8.31 g/m*3 17.69 C 9.15833 km/h
1742 01-05-2019 15:00:00 19.35 C 8.11 g/m*3 19.35 C 9.40833 km/h
1743 01-05-2019 16:00:00 21.31667 C 8.18 g/m*3 21.32 C 7.40833 km/h
1744 01-05-2019 17:00:00 21.48333 C 8.34 g/m*3 21.48 C 8.05833 km/h
1745 01-05-2019 18:00:00 20.325 C 9.25 g/m*3 20.33 C 10.225 km/h
1746 01-05-2019 19:00:00 18.21667 C 9.06 g/m*3 18.22 C 7.65833 km/h
1747 01-05-2019 20:00:00 15.65833 C 8.45 g/m*3 15.66 C 3.475 km/h
1748 01-05-2019 21:00:00 13.53333 C 8.59 g/m*3 13.53 C 5.90833 km/h
1749 01-05-2019 22:00:00 12.76667 C 8.71 g/m*3 12.77 C 2.81667 km/h
1750 01-05-2019 23:00:00 10.80833 C 8.45 g/m*3 10.81 C 0 km/h
Sensor: Nr:Datum:Temp:Abs-Feuchte:Windchill:Wind:
Aussen-T/F 1751 02-05-2019 00:00:00 9.98333 C 8.29 g/m*3 9.98 C 0 km/h
1752 02-05-2019 01:00:00 8.96667 C 7.95 g/m*3 8.97 C 0 km/h
1753 02-05-2019 02:00:00 8.23333 C 7.78 g/m*3 8.23 C 0 km/h
1754 02-05-2019 03:00:00 7.73333 C 7.6 g/m*3 7.73 C 0 km/h
1755 02-05-2019 04:00:00 7.025 C 7.3 g/m*3 7.03 C 0 km/h
1756 02-05-2019 05:00:00 6.325 C 6.99 g/m*3 6.33 C 0 km/h
1757 02-05-2019 06:00:00 5.89167 C 6.85 g/m*3 5.89 C 0 km/h
1758 02-05-2019 07:00:00 6.84167 C 7.36 g/m*3 6.84 C 0.8 km/h
1759 02-05-2019 08:00:00 8.325 C 8.08 g/m*3 8.32 C 2.13333 km/h
1760 02-05-2019 09:00:00 9.075 C 8.18 g/m*3 9.07 C 1.73333 km/h
1761 02-05-2019 10:00:00 10.725 C 8.12 g/m*3 10.73 C 3.2 km/h
1762 02-05-2019 11:00:00 12.15833 C 8.24 g/m*3 12.16 C 5.21667 km/h
1763 02-05-2019 12:00:00 12.925 C 8.35 g/m*3 12.93 C 6.98333 km/h
1764 02-05-2019 13:00:00 14.15 C 8.46 g/m*3 14.15 C 7.25833 km/h
1765 02-05-2019 14:00:00 15.85 C 8.81 g/m*3 15.85 C 6.96667 km/h
1766 02-05-2019 15:00:00 16.58333 C 8.62 g/m*3 16.58 C 9.69167 km/h
1767 02-05-2019 16:00:00 17.225 C 8.51 g/m*3 17.23 C 8.86667 km/h
1768 02-05-2019 17:00:00 17.75 C 7.79 g/m*3 17.75 C 9.28333 km/h
1769 02-05-2019 18:00:00 17.96667 C 7.18 g/m*3 17.97 C 9.425 km/h
1770 02-05-2019 19:00:00 15.54167 C 7.98 g/m*3 15.54 C 12.9 km/h
1771 02-05-2019 20:00:00 12.78333 C 8.61 g/m*3 12.78 C 8.175 km/h
1772 02-05-2019 21:00:00 11.44167 C 9.11 g/m*3 11.44 C 0.4 km/h
1773 02-05-2019 22:00:00 10.75833 C 8.96 g/m*3 10.76 C 2.93333 km/h
1774 02-05-2019 23:00:00 10.7 C 9.01 g/m*3 10.7 C 0.53333 km/h
1775 03-05-2019 00:00:00 10.6 C 9.01 g/m*3 10.6 C 2.93333 km/h
Sensor: Nr:Datum:Temp:Abs-Feuchte:Windchill:Wind:
Aussen-T/F 1776 03-05-2019 01:00:00 10.51667 C 8.41 g/m*3 9.44 C 8.88333 km/h
1777 03-05-2019 02:00:00 9.85 C 7.83 g/m*3 9.32 C 5.91667 km/h
1778 03-05-2019 03:00:00 9.375 C 7.74 g/m*3 9.38 C 2.675 km/h
1779 03-05-2019 04:00:00 9.16667 C 7.81 g/m*3 9.17 C 0.53333 km/h
1780 03-05-2019 05:00:00 9.28333 C 7.9 g/m*3 9.28 C 3.46667 km/h
1781 03-05-2019 06:00:00 9.25 C 7.86 g/m*3 9.25 C 3.475 km/h
1782 03-05-2019 07:00:00 9.25 C 7.67 g/m*3 8.71 C 5.63333 km/h
1783 03-05-2019 08:00:00 9.65833 C 7.68 g/m*3 9.14 C 5.76667 km/h
1784 03-05-2019 09:00:00 10.10833 C 7.52 g/m*3 8.86 C 9.425 km/h
1785 03-05-2019 10:00:00 10.78333 C 7.28 g/m*3 9.39 C 11.15833 km/h
1786 03-05-2019 11:00:00 11.16667 C 6.99 g/m*3 11.17 C 10.625 km/h
1787 03-05-2019 12:00:00 11.34167 C 7.05 g/m*3 11.34 C 8.61667 km/h
1788 03-05-2019 13:00:00 12.075 C 7.02 g/m*3 12.08 C 9.95 km/h
1789 03-05-2019 14:00:00 12.98333 C 6.74 g/m*3 12.98 C 14.9 km/h
1790 03-05-2019 15:00:00 14.38333 C 6.53 g/m*3 14.38 C 15.03333 km/h
1791 03-05-2019 16:00:00 15 C 6.54 g/m*3 15 C 13.16667 km/h
1792 03-05-2019 17:00:00 14.125 C 6.55 g/m*3 14.13 C 13.56667 km/h
1793 03-05-2019 18:00:00 13.64167 C 6.65 g/m*3 13.64 C 10.225 km/h
1794 03-05-2019 19:00:00 12.4 C 6.56 g/m*3 12.4 C 8.06667 km/h
1795 03-05-2019 20:00:00 11.18333 C 6.51 g/m*3 11.18 C 7.25 km/h
1796 03-05-2019 21:00:00 9.875 C 6.54 g/m*3 9.88 C 4.81667 km/h
1797 03-05-2019 22:00:00 9.375 C 6.71 g/m*3 9.38 C 3.075 km/h
1798 03-05-2019 23:00:00 8.65833 C 6.78 g/m*3 8.66 C 0.8 km/h
1799 04-05-2019 00:00:00 8.05833 C 6.78 g/m*3 8.06 C 0 km/h
1800 04-05-2019 01:00:00 7.625 C 6.71 g/m*3 7.63 C 0 km/h
Sensor: Nr:Datum:Temp:Abs-Feuchte:Windchill:Wind:
Aussen-T/F 1801 04-05-2019 02:00:00 7.575 C 6.82 g/m*3 7.58 C 0 km/h
1802 04-05-2019 03:00:00 7.43333 C 6.91 g/m*3 7.43 C 0 km/h
1803 04-05-2019 04:00:00 7.4 C 7.16 g/m*3 6.28 C 6.7 km/h
1804 04-05-2019 05:00:00 5.025 C 6.22 g/m*3 2.08 C 13.16667 km/h
1805 04-05-2019 06:00:00 3.74167 C 5.77 g/m*3 1.07 C 10.36667 km/h
1806 04-05-2019 07:00:00 3.23333 C 5.62 g/m*3 1.54 C 6.425 km/h
1807 04-05-2019 08:00:00 3.26667 C 5.68 g/m*3 2.08 C 5.08333 km/h
1808 04-05-2019 09:00:00 3.99167 C 5.97 g/m*3 3.99 C 3.74167 km/h
1809 04-05-2019 10:00:00 4.64167 C 6.04 g/m*3 2.92 C 7.25 km/h
1810 04-05-2019 11:00:00 5.00833 C 6.06 g/m*3 3.16 C 7.93333 km/h
1811 04-05-2019 12:00:00 5.93333 C 6.19 g/m*3 4.05 C 8.75 km/h
1812 04-05-2019 13:00:00 7.25833 C 6.17 g/m*3 5.59 C 8.88333 km/h
1813 04-05-2019 14:00:00 7.44167 C 6.19 g/m*3 4.75 C 15.04167 km/h
1814 04-05-2019 15:00:00 4.74167 C 5.96 g/m*3 3.2 C 6.70833 km/h
1815 04-05-2019 16:00:00 7.80833 C 6.95 g/m*3 6.87 C 6.3 km/h
1816 04-05-2019 17:00:00 10.13333 C 7.32 g/m*3 9.42 C 6.85 km/h
1817 04-05-2019 18:00:00 10.36667 C 5.83 g/m*3 8.33 C 15.3 km/h
1818 04-05-2019 19:00:00 9.3 C 6.04 g/m*3 7.26 C 13.43333 km/h
1819 04-05-2019 20:00:00 7.475 C 5.99 g/m*3 6.81 C 5.23333 km/h
1820 04-05-2019 21:00:00 6.49167 C 5.93 g/m*3 5.52 C 5.75833 km/h
1821 04-05-2019 22:00:00 5.00833 C 5.78 g/m*3 5.01 C 3.48333 km/h
1822 04-05-2019 23:00:00 3.8 C 5.63 g/m*3 3.8 C 2.94167 km/h
1823 05-05-2019 00:00:00 3.71667 C 5.72 g/m*3 3.72 C 2.14167 km/h
1824 05-05-2019 01:00:00 3.80833 C 5.82 g/m*3 3.81 C 0.53333 km/h
1825 05-05-2019 02:00:00 3.45833 C 5.68 g/m*3 3.46 C 0.8 km/h
Sensor: Nr:Datum:Temp:Abs-Feuchte:Windchill:Wind:
Aussen-T/F 1826 05-05-2019 03:00:00 3.68333 C 5.84 g/m*3 3.68 C 1.06667 km/h
1827 05-05-2019 04:00:00 3.69167 C 5.78 g/m*3 3.69 C 2.8 km/h
1828 05-05-2019 05:00:00 3.33333 C 5.59 g/m*3 3.33 C 3.625 km/h
1829 05-05-2019 06:00:00 2.73333 C 5.38 g/m*3 2.73 C 0.4 km/h
1830 05-05-2019 07:00:00 2.46667 C 5.35 g/m*3 2.47 C 0.26667 km/h
1831 05-05-2019 08:00:00 3.35833 C 5.73 g/m*3 2.03 C 5.475 km/h
1832 05-05-2019 09:00:00 4.73333 C 6.07 g/m*3 4.73 C 4.28333 km/h
1833 05-05-2019 10:00:00 5.84167 C 6.21 g/m*3 4.64 C 6.175 km/h
1834 05-05-2019 11:00:00 6.98333 C 6.46 g/m*3 5.66 C 7.23333 km/h
1835 05-05-2019 12:00:00 7.63333 C 6.51 g/m*3 6.25 C 7.90833 km/h
1836 05-05-2019 13:00:00 8.91667 C 6.42 g/m*3 7.45 C 9.4 km/h
1837 05-05-2019 14:00:00 9.29167 C 6.35 g/m*3 7.42 C 12.23333 km/h
1838 05-05-2019 15:00:00 9.86667 C 6.42 g/m*3 9.2 C 6.44167 km/h
1839 05-05-2019 16:00:00 12.39167 C 6.29 g/m*3 12.39 C 12.5 km/h
1840 05-05-2019 17:00:00 12.55833 C 6.48 g/m*3 12.56 C 11.83333 km/h
1841 05-05-2019 18:00:00 11.3 C 6.59 g/m*3 11.3 C 10.75 km/h
1842 05-05-2019 19:00:00 9.66667 C 6.45 g/m*3 8.75 C 7.39167 km/h
1843 05-05-2019 20:00:00 9.19167 C 6.42 g/m*3 8.08 C 7.90833 km/h
1844 05-05-2019 21:00:00 8.26667 C 6.4 g/m*3 7.76 C 5.075 km/h
1845 05-05-2019 22:00:00 7.15 C 6.27 g/m*3 7.15 C 2.54167 km/h
1846 05-05-2019 23:00:00 6.25 C 6.3 g/m*3 6.25 C 0.4 km/h
1847 06-05-2019 00:00:00 6.11667 C 6.33 g/m*3 6.12 C 0.26667 km/h
1848 06-05-2019 01:00:00 5.90833 C 6.32 g/m*3 5.91 C 2 km/h
1849 06-05-2019 02:00:00 5.1 C 6.01 g/m*3 5.1 C 1.6 km/h
1850 06-05-2019 03:00:00 4.25833 C 5.85 g/m*3 4.26 C 0.26667 km/h
Sensor: Nr:Datum:Temp:Abs-Feuchte:Windchill:Wind:
Aussen-T/F 1851 06-05-2019 04:00:00 3.59167 C 5.65 g/m*3 3.59 C 0 km/h
1852 06-05-2019 05:00:00 3.01667 C 5.5 g/m*3 3.02 C 0.4 km/h
1853 06-05-2019 06:00:00 3.14167 C 5.63 g/m*3 3.14 C 2 km/h
1854 06-05-2019 07:00:00 3.70833 C 5.86 g/m*3 3.71 C 4.81667 km/h
1855 06-05-2019 08:00:00 4.56667 C 6.1 g/m*3 4.57 C 4 km/h
1856 06-05-2019 09:00:00 6.31667 C 6.24 g/m*3 6.32 C 4.275 km/h
1857 06-05-2019 10:00:00 8.01667 C 6.11 g/m*3 7.18 C 6.04167 km/h
1858 06-05-2019 11:00:00 9.33333 C 6.01 g/m*3 9.33 C 4.275 km/h
1859 06-05-2019 12:00:00 10.05 C 5.61 g/m*3 9.29 C 6.975 km/h
1860 06-05-2019 13:00:00 10.95 C 5.6 g/m*3 9.96 C 8.86667 km/h
1861 06-05-2019 14:00:00 11.24167 C 5.59 g/m*3 11.24 C 9.26667 km/h
1862 06-05-2019 15:00:00 11.29167 C 5.83 g/m*3 11.29 C 9.15833 km/h
1863 06-05-2019 16:00:00 11.01667 C 6.05 g/m*3 11.02 C 9.14167 km/h
1864 06-05-2019 17:00:00 10.675 C 6 g/m*3 10.35 C 5.61667 km/h
1865 06-05-2019 18:00:00 11.425 C 6.3 g/m*3 11.43 C 4.275 km/h
1866 06-05-2019 19:00:00 10.75833 C 6.73 g/m*3 10.76 C 1.60833 km/h
1867 06-05-2019 20:00:00 9.18333 C 6.73 g/m*3 9.18 C 3.48333 km/h
1868 06-05-2019 21:00:00 8.26667 C 6.9 g/m*3 8.27 C 0.13333 km/h
1869 06-05-2019 22:00:00 7.75 C 6.96 g/m*3 7.75 C 0.26667 km/h
1870 06-05-2019 23:00:00 7.30833 C 6.86 g/m*3 7.31 C 0 km/h
1871 07-05-2019 00:00:00 7.29167 C 6.99 g/m*3 7.29 C 0.26667 km/h
1872 07-05-2019 01:00:00 7.04167 C 6.93 g/m*3 7.04 C 0 km/h
1873 07-05-2019 02:00:00 6.7 C 6.84 g/m*3 6.7 C 0 km/h
1874 07-05-2019 03:00:00 6.64167 C 6.81 g/m*3 6.64 C 0 km/h
1875 07-05-2019 04:00:00 6.35 C 6.7 g/m*3 6.35 C 0 km/h
Sensor: Nr:Datum:Temp:Abs-Feuchte:Windchill:Wind:
Aussen-T/F 1876 07-05-2019 05:00:00 6.16667 C 6.68 g/m*3 6.17 C 0 km/h
1877 07-05-2019 06:00:00 5.85833 C 6.57 g/m*3 5.86 C 0 km/h
1878 07-05-2019 07:00:00 6.38333 C 6.85 g/m*3 6.38 C 0 km/h
1879 07-05-2019 08:00:00 7.30833 C 7.06 g/m*3 7.31 C 0.26667 km/h
1880 07-05-2019 09:00:00 8.475 C 7.31 g/m*3 8.48 C 1.6 km/h
1881 07-05-2019 10:00:00 9.60833 C 7.32 g/m*3 9.13 C 5.6 km/h
1882 07-05-2019 11:00:00 10.575 C 6.99 g/m*3 10.58 C 4.53333 km/h
1883 07-05-2019 12:00:00 11.88333 C 6.4 g/m*3 11.88 C 7.11667 km/h
1884 07-05-2019 13:00:00 11.86667 C 6.2 g/m*3 11.87 C 6.14167 km/h
1885 07-05-2019 14:00:00 12.76667 C 6.17 g/m*3 12.77 C 6.83333 km/h
1886 07-05-2019 15:00:00 13.05833 C 5.99 g/m*3 13.06 C 9.81667 km/h
1887 07-05-2019 16:00:00 14.13333 C 6.16 g/m*3 14.13 C 6.71667 km/h
1888 07-05-2019 17:00:00 14.9 C 6.04 g/m*3 14.9 C 5.49167 km/h
1889 07-05-2019 18:00:00 14.94167 C 5.88 g/m*3 14.94 C 5.75 km/h
1890 07-05-2019 19:00:00 13.4 C 7.19 g/m*3 13.4 C 0.13333 km/h
1891 07-05-2019 20:00:00 11.275 C 6.41 g/m*3 11.28 C 0.8 km/h
1892 07-05-2019 21:00:00 9.01667 C 6.03 g/m*3 9.02 C 0 km/h
1893 07-05-2019 22:00:00 7.98333 C 6.27 g/m*3 7.98 C 0 km/h
1894 07-05-2019 23:00:00 6.93333 C 6.23 g/m*3 6.93 C 0 km/h
1895 08-05-2019 00:00:00 6.325 C 6.15 g/m*3 6.33 C 0 km/h
1896 08-05-2019 01:00:00 5.75 C 6.03 g/m*3 5.75 C 0 km/h
1897 08-05-2019 02:00:00 5.15 C 5.97 g/m*3 5.15 C 0 km/h
1898 08-05-2019 03:00:00 4.7 C 5.96 g/m*3 4.7 C 0 km/h
1899 08-05-2019 04:00:00 4.95 C 6.16 g/m*3 4.95 C 0 km/h
1900 08-05-2019 05:00:00 5.25 C 6.29 g/m*3 5.25 C 0 km/h
Sensor: Nr:Datum:Temp:Abs-Feuchte:Windchill:Wind:
Aussen-T/F 1901 08-05-2019 06:00:00 5.49167 C 6.41 g/m*3 5.49 C 0 km/h
1902 08-05-2019 07:00:00 6.21667 C 6.66 g/m*3 6.22 C 0.53333 km/h
1903 08-05-2019 08:00:00 7.49167 C 7.03 g/m*3 7.49 C 2 km/h
1904 08-05-2019 09:00:00 8.85 C 7.21 g/m*3 8.85 C 3.48333 km/h
1905 08-05-2019 10:00:00 9.025 C 7.7 g/m*3 9.03 C 1.46667 km/h
1906 08-05-2019 11:00:00 9.69167 C 8.24 g/m*3 9.69 C 0.8 km/h
1907 08-05-2019 12:00:00 11.325 C 9.05 g/m*3 11.33 C 4.41667 km/h
1908 08-05-2019 13:00:00 13.61667 C 9.77 g/m*3 13.62 C 5.89167 km/h
1909 08-05-2019 14:00:00 14.7 C 9.91 g/m*3 14.7 C 5.875 km/h
1910 08-05-2019 15:00:00 14.56667 C 9.86 g/m*3 14.57 C 5.35 km/h
1911 08-05-2019 16:00:00 13.39167 C 10.08 g/m*3 13.39 C 5.35 km/h
1912 08-05-2019 17:00:00 12.51667 C 10.05 g/m*3 12.52 C 3.06667 km/h
1913 08-05-2019 18:00:00 12.5 C 10.22 g/m*3 12.5 C 2 km/h
1914 08-05-2019 19:00:00 12.25833 C 10.13 g/m*3 12.26 C 0.13333 km/h
1915 08-05-2019 20:00:00 11.71667 C 9.84 g/m*3 11.72 C 0.4 km/h
1916 08-05-2019 21:00:00 10.95833 C 9.43 g/m*3 10.96 C 0.13333 km/h
1917 08-05-2019 22:00:00 10.14167 C 9 g/m*3 10.14 C 1.6 km/h
1918 08-05-2019 23:00:00 9.41667 C 8.56 g/m*3 9.42 C 2.53333 km/h
1919 09-05-2019 00:00:00 8.78333 C 8.22 g/m*3 8.78 C 3.48333 km/h
1920 09-05-2019 01:00:00 8.31667 C 7.99 g/m*3 8.32 C 1.6 km/h
1921 09-05-2019 02:00:00 7.425 C 7.55 g/m*3 7.43 C 0.13333 km/h
1922 09-05-2019 03:00:00 7.31667 C 7.57 g/m*3 7.32 C 0.26667 km/h
1923 09-05-2019 04:00:00 7.75833 C 7.81 g/m*3 7.76 C 1.475 km/h
1924 09-05-2019 05:00:00 7.80833 C 7.84 g/m*3 7.81 C 0 km/h
1925 09-05-2019 06:00:00 7.46667 C 7.63 g/m*3 7.47 C 0 km/h
Sensor: Nr:Datum:Temp:Abs-Feuchte:Windchill:Wind:
Aussen-T/F 1926 09-05-2019 07:00:00 8.7 C 8.33 g/m*3 8.7 C 0.13333 km/h
1927 09-05-2019 08:00:00 9.9 C 8.72 g/m*3 9.9 C 2.4 km/h
1928 09-05-2019 09:00:00 11.4 C 8.97 g/m*3 11.4 C 2.8 km/h
1929 09-05-2019 10:00:00 11.6 C 9.17 g/m*3 11.6 C 5.475 km/h
1930 09-05-2019 11:00:00 12.78333 C 9.4 g/m*3 12.78 C 6.56667 km/h
1931 09-05-2019 12:00:00 13.21667 C 9.7 g/m*3 13.22 C 6.43333 km/h
1932 09-05-2019 13:00:00 13.26667 C 9.67 g/m*3 13.27 C 8.60833 km/h
1933 09-05-2019 14:00:00 13.60833 C 9.43 g/m*3 13.61 C 5.35 km/h
1934 09-05-2019 15:00:00 13.43333 C 9.64 g/m*3 13.43 C 4.80833 km/h
1935 09-05-2019 16:00:00 13.80833 C 9.68 g/m*3 13.81 C 4.4 km/h
1936 09-05-2019 17:00:00 14.375 C 10.05 g/m*3 14.38 C 2.66667 km/h
1937 09-05-2019 18:00:00 15.625 C 10.57 g/m*3 15.63 C 5.76667 km/h
1938 09-05-2019 19:00:00 15.4 C 10.41 g/m*3 15.4 C 3.89167 km/h
1939 09-05-2019 20:00:00 13.70833 C 10.14 g/m*3 13.71 C 0.93333 km/h
1940 09-05-2019 21:00:00 11.66667 C 9.47 g/m*3 11.67 C 7.09167 km/h
1941 09-05-2019 22:00:00 10.89167 C 9.36 g/m*3 10.89 C 1.86667 km/h
1942 09-05-2019 23:00:00 10.76667 C 9.37 g/m*3 10.77 C 3.88333 km/h
1943 10-05-2019 00:00:00 10.525 C 9.23 g/m*3 10.53 C 1.2 km/h
1944 10-05-2019 01:00:00 9.51667 C 8.66 g/m*3 9.52 C 0.26667 km/h
1945 10-05-2019 02:00:00 8.85833 C 8.34 g/m*3 8.86 C 0.13333 km/h
1946 10-05-2019 03:00:00 8.16667 C 7.97 g/m*3 8.17 C 0 km/h
1947 10-05-2019 04:00:00 8.56667 C 8.25 g/m*3 8.57 C 0 km/h
1948 10-05-2019 05:00:00 8.28333 C 8.08 g/m*3 7.49 C 6.03333 km/h
1949 10-05-2019 06:00:00 8.40833 C 8.15 g/m*3 7.63 C 6.03333 km/h
1950 10-05-2019 07:00:00 8.75 C 8.29 g/m*3 8.75 C 2.675 km/h
Sensor: Nr:Datum:Temp:Abs-Feuchte:Windchill:Wind:
Aussen-T/F 1951 10-05-2019 08:00:00 9.175 C 8.39 g/m*3 8.71 C 5.36667 km/h
1952 10-05-2019 09:00:00 10.7 C 8.59 g/m*3 9.13 C 12.225 km/h
1953 10-05-2019 10:00:00 12.1 C 8.73 g/m*3 12.1 C 11.03333 km/h
1954 10-05-2019 11:00:00 13.23333 C 8.72 g/m*3 13.23 C 11.025 km/h
1955 10-05-2019 12:00:00 14.35 C 8.31 g/m*3 14.35 C 12.9 km/h
1956 10-05-2019 13:00:00 15.44167 C 7.9 g/m*3 15.44 C 12.23333 km/h
1957 10-05-2019 14:00:00 16.75 C 7.76 g/m*3 16.75 C 13.83333 km/h
1958 10-05-2019 15:00:00 17.21667 C 7.7 g/m*3 17.22 C 10.9 km/h
1959 10-05-2019 16:00:00 17.93333 C 7.55 g/m*3 17.93 C 8.05 km/h
1960 10-05-2019 17:00:00 17.6 C 7.32 g/m*3 17.6 C 9.80833 km/h
1961 10-05-2019 18:00:00 17.25 C 7.43 g/m*3 17.25 C 5.36667 km/h
1962 10-05-2019 19:00:00 17.18333 C 9.07 g/m*3 17.18 C 0.66667 km/h
1963 10-05-2019 20:00:00 14.175 C 8.72 g/m*3 14.18 C 0 km/h
1964 10-05-2019 21:00:00 12.35 C 8.43 g/m*3 12.35 C 0 km/h
1965 10-05-2019 22:00:00 11.76667 C 8.54 g/m*3 11.77 C 0 km/h
1966 10-05-2019 23:00:00 11.53333 C 8.62 g/m*3 11.53 C 0 km/h
1967 11-05-2019 00:00:00 11.04167 C 8.69 g/m*3 11.04 C 0.4 km/h
1968 11-05-2019 01:00:00 10.36667 C 8.77 g/m*3 10.37 C 0.13333 km/h
1969 11-05-2019 02:00:00 10.1 C 8.83 g/m*3 10.1 C 0 km/h
1970 11-05-2019 03:00:00 9.925 C 8.81 g/m*3 9.93 C 0.13333 km/h
1971 11-05-2019 04:00:00 9.7 C 8.76 g/m*3 9.7 C 0 km/h
1972 11-05-2019 05:00:00 9.775 C 8.87 g/m*3 9.78 C 0.26667 km/h
1973 11-05-2019 06:00:00 9.7 C 8.85 g/m*3 9.7 C 0.26667 km/h
1974 11-05-2019 07:00:00 9.7 C 8.85 g/m*3 9.7 C 0.4 km/h
1975 11-05-2019 08:00:00 9.65833 C 8.83 g/m*3 9.66 C 2.80833 km/h
Sensor: Nr:Datum:Temp:Abs-Feuchte:Windchill:Wind:
Aussen-T/F 1976 11-05-2019 09:00:00 9.70833 C 8.85 g/m*3 9.71 C 4.95 km/h
1977 11-05-2019 10:00:00 9.85833 C 8.94 g/m*3 9.49 C 5.35 km/h
1978 11-05-2019 11:00:00 10.13333 C 9.1 g/m*3 10.13 C 4.95 km/h
1979 11-05-2019 12:00:00 10.36667 C 9.1 g/m*3 9.27 C 8.875 km/h
1980 11-05-2019 13:00:00 9.79167 C 8.72 g/m*3 8.61 C 8.73333 km/h
1981 11-05-2019 14:00:00 9.76667 C 8.79 g/m*3 9.77 C 1.86667 km/h
1982 11-05-2019 15:00:00 9.91667 C 8.88 g/m*3 9.92 C 3.475 km/h
1983 11-05-2019 16:00:00 10.31667 C 9.2 g/m*3 10.32 C 1.6 km/h
1984 11-05-2019 17:00:00 10.95833 C 9.53 g/m*3 10.96 C 2.94167 km/h
1985 11-05-2019 18:00:00 11.79167 C 9.33 g/m*3 11.79 C 11.96667 km/h
1986 11-05-2019 19:00:00 12.1 C 8.75 g/m*3 12.1 C 14.36667 km/h
1987 11-05-2019 20:00:00 11.3 C 8.59 g/m*3 11.3 C 3.89167 km/h
1988 11-05-2019 21:00:00 9.44167 C 8.27 g/m*3 9.44 C 0 km/h
1989 11-05-2019 22:00:00 8.33333 C 7.84 g/m*3 8.33 C 0 km/h
1990 11-05-2019 23:00:00 7.65 C 7.62 g/m*3 7.65 C 0 km/h
1991 12-05-2019 00:00:00 7.41667 C 7.56 g/m*3 7.42 C 0.4 km/h
1992 12-05-2019 01:00:00 6.75 C 7.24 g/m*3 6.75 C 1.46667 km/h
1993 12-05-2019 02:00:00 6.43333 C 7 g/m*3 6.43 C 3.86667 km/h
1994 12-05-2019 03:00:00 5.66667 C 6.6 g/m*3 5.67 C 1.46667 km/h
1995 12-05-2019 04:00:00 4.70833 C 6.25 g/m*3 4.71 C 0.13333 km/h
1996 12-05-2019 05:00:00 4.225 C 6.11 g/m*3 4.22 C 0 km/h
1997 12-05-2019 06:00:00 4.45833 C 6.23 g/m*3 4.46 C 0.93333 km/h
1998 12-05-2019 07:00:00 5.68333 C 6.53 g/m*3 4.77 C 5.225 km/h
1999 12-05-2019 08:00:00 6.98333 C 6.62 g/m*3 5.69 C 7.1 km/h
2000 12-05-2019 09:00:00 8.125 C 6.56 g/m*3 6.03 C 12.09167 km/h
Sensor: Nr:Datum:Temp:Abs-Feuchte:Windchill:Wind:
Aussen-T/F 2001 12-05-2019 10:00:00 8.83333 C 6.48 g/m*3 6.89 C 12.1 km/h
2002 12-05-2019 11:00:00 9.58333 C 6.35 g/m*3 7.68 C 12.89167 km/h
2003 12-05-2019 12:00:00 10.54167 C 6.3 g/m*3 9.07 C 11.3 km/h
2004 12-05-2019 13:00:00 11.66667 C 6.28 g/m*3 11.67 C 12.76667 km/h
2005 12-05-2019 14:00:00 12.83333 C 6.15 g/m*3 12.83 C 12.1 km/h
2006 12-05-2019 15:00:00 14.13333 C 6.19 g/m*3 14.13 C 12.76667 km/h
2007 12-05-2019 16:00:00 15.25833 C 5.99 g/m*3 15.26 C 12.23333 km/h
2008 12-05-2019 17:00:00 14.83333 C 5.78 g/m*3 14.83 C 11.43333 km/h
2009 12-05-2019 18:00:00 15.19167 C 5.65 g/m*3 15.19 C 14.1 km/h
2010 12-05-2019 19:00:00 13.96667 C 5.43 g/m*3 13.97 C 12.35833 km/h
2011 12-05-2019 20:00:00 13.09167 C 5.62 g/m*3 13.09 C 5.775 km/h
2012 12-05-2019 21:00:00 9.68333 C 6.57 g/m*3 9.68 C 0.66667 km/h
2013 12-05-2019 22:00:00 8.375 C 6.5 g/m*3 8.38 C 0.26667 km/h
2014 12-05-2019 23:00:00 7.30833 C 6.21 g/m*3 7.31 C 0.53333 km/h
2015 13-05-2019 00:00:00 6.45 C 6.14 g/m*3 6.45 C 0 km/h
2016 13-05-2019 01:00:00 5.11667 C 6 g/m*3 5.12 C 0 km/h
2017 13-05-2019 02:00:00 4.15 C 5.82 g/m*3 4.15 C 0 km/h
2018 13-05-2019 03:00:00 3.60833 C 5.71 g/m*3 3.61 C 0 km/h
2019 13-05-2019 04:00:00 3.075 C 5.57 g/m*3 3.08 C 0.13333 km/h
2020 13-05-2019 05:00:00 2.64167 C 5.46 g/m*3 2.64 C 0.13333 km/h
2021 13-05-2019 06:00:00 2.30833 C 5.36 g/m*3 2.31 C 0 km/h
2022 13-05-2019 07:00:00 2.63333 C 5.52 g/m*3 2.63 C 0 km/h
2023 13-05-2019 08:00:00 4.26667 C 6.21 g/m*3 4.27 C 0 km/h
2024 13-05-2019 09:00:00 6.13333 C 6.62 g/m*3 6.13 C 0.53333 km/h
2025 13-05-2019 10:00:00 9.69167 C 5.33 g/m*3 9.11 C 6.04167 km/h
Sensor: Nr:Datum:Temp:Abs-Feuchte:Windchill:Wind:
Aussen-T/F 2026 13-05-2019 11:00:00 11.4 C 5 g/m*3 11.4 C 4.54167 km/h
2027 13-05-2019 12:00:00 13.43333 C 3.8 g/m*3 13.43 C 15.7 km/h
2028 13-05-2019 13:00:00 14.6 C 3.74 g/m*3 14.6 C 12.36667 km/h
2029 13-05-2019 14:00:00 15.575 C 4.12 g/m*3 15.58 C 11.025 km/h
2030 13-05-2019 15:00:00 17.19167 C 4.33 g/m*3 17.19 C 11.025 km/h
2031 13-05-2019 16:00:00 18.43333 C 4.56 g/m*3 18.43 C 15.56667 km/h
2032 13-05-2019 17:00:00 18.6 C 4.52 g/m*3 18.6 C 16.1 km/h
2033 13-05-2019 18:00:00 18.08333 C 4.45 g/m*3 18.08 C 16.36667 km/h
2034 13-05-2019 19:00:00 16.95833 C 4.74 g/m*3 16.96 C 17.03333 km/h
2035 13-05-2019 20:00:00 15.41667 C 4.57 g/m*3 15.42 C 12.76667 km/h
2036 13-05-2019 21:00:00 12.25 C 5.46 g/m*3 12.25 C 1.74167 km/h
2037 13-05-2019 22:00:00 9.325 C 5.48 g/m*3 9.32 C 0.13333 km/h
2038 13-05-2019 23:00:00 7.875 C 5.69 g/m*3 7.88 C 0 km/h
2039 14-05-2019 00:00:00 6.7 C 5.69 g/m*3 6.7 C 0 km/h
2040 14-05-2019 01:00:00 5.76667 C 5.54 g/m*3 5.77 C 0 km/h
2041 14-05-2019 02:00:00 4.74167 C 5.43 g/m*3 4.74 C 0 km/h
2042 14-05-2019 03:00:00 3.83333 C 5.32 g/m*3 3.83 C 0 km/h
2043 14-05-2019 04:00:00 3.18333 C 5.24 g/m*3 3.18 C 0 km/h
2044 14-05-2019 05:00:00 2.66667 C 5.17 g/m*3 2.67 C 0 km/h
2045 14-05-2019 06:00:00 2.41667 C 5.19 g/m*3 2.42 C 0 km/h
2046 14-05-2019 07:00:00 2.825 C 5.44 g/m*3 2.83 C 0 km/h
2047 14-05-2019 08:00:00 4.2 C 5.97 g/m*3 4.2 C 0 km/h
2048 14-05-2019 09:00:00 6.50833 C 6.44 g/m*3 6.51 C 1.46667 km/h
2049 14-05-2019 10:00:00 9.575 C 6.34 g/m*3 8.9 C 6.30833 km/h
2050 14-05-2019 11:00:00 12.65 C 5.64 g/m*3 12.65 C 15.7 km/h
Sensor: Nr:Datum:Temp:Abs-Feuchte:Windchill:Wind:
Aussen-T/F 2051 14-05-2019 12:00:00 13.45833 C 5.35 g/m*3 13.46 C 13.83333 km/h
2052 14-05-2019 13:00:00 14.21667 C 5.35 g/m*3 14.22 C 15.7 km/h
2053 14-05-2019 14:00:00 14.79167 C 5.44 g/m*3 14.79 C 15.83333 km/h
2054 14-05-2019 15:00:00 16.00833 C 5.43 g/m*3 16.01 C 13.96667 km/h
2055 14-05-2019 16:00:00 16.59167 C 5.24 g/m*3 16.59 C 15.69167 km/h
2056 14-05-2019 17:00:00 16.8 C 5.21 g/m*3 16.8 C 14.75833 km/h
2057 14-05-2019 18:00:00 16.475 C 5.22 g/m*3 16.48 C 9.53333 km/h
2058 14-05-2019 19:00:00 16.075 C 5.22 g/m*3 16.08 C 7.50833 km/h
2059 14-05-2019 20:00:00 13.73333 C 5.8 g/m*3 13.73 C 4.15833 km/h
2060 14-05-2019 21:00:00 10.35 C 5.82 g/m*3 10.35 C 0.53333 km/h
2061 14-05-2019 22:00:00 8.73333 C 5.89 g/m*3 8.73 C 0 km/h
2062 14-05-2019 23:00:00 7.69167 C 5.83 g/m*3 7.69 C 0 km/h
2063 15-05-2019 00:00:00 6.88333 C 5.65 g/m*3 6.88 C 0 km/h
2064 15-05-2019 01:00:00 5.89167 C 5.57 g/m*3 5.89 C 0 km/h
2065 15-05-2019 02:00:00 4.74167 C 5.44 g/m*3 4.74 C 0 km/h
2066 15-05-2019 03:00:00 3.98333 C 5.37 g/m*3 3.98 C 0 km/h
2067 15-05-2019 04:00:00 3.15 C 5.25 g/m*3 3.15 C 0 km/h
2068 15-05-2019 05:00:00 2.60833 C 5.15 g/m*3 2.61 C 0 km/h
2069 15-05-2019 06:00:00 2.325 C 5.17 g/m*3 2.33 C 0 km/h
2070 15-05-2019 07:00:00 2.75833 C 5.41 g/m*3 2.76 C 0 km/h
2071 15-05-2019 08:00:00 3.775 C 5.81 g/m*3 3.78 C 0 km/h
2072 15-05-2019 09:00:00 5.99167 C 6.19 g/m*3 5.99 C 2.81667 km/h
2073 15-05-2019 10:00:00 10.15833 C 5.19 g/m*3 9.15 C 8.19167 km/h
2074 15-05-2019 11:00:00 12.05 C 4.88 g/m*3 12.05 C 10.225 km/h
2075 15-05-2019 12:00:00 12.95 C 4.63 g/m*3 12.95 C 8.85833 km/h
Sensor: Nr:Datum:Temp:Abs-Feuchte:Windchill:Wind:
Aussen-T/F 2076 15-05-2019 13:00:00 14.08333 C 4.35 g/m*3 14.08 C 13.56667 km/h
2077 15-05-2019 14:00:00 14.95 C 4.75 g/m*3 14.95 C 15.96667 km/h
2078 15-05-2019 15:00:00 15.975 C 4.64 g/m*3 15.98 C 17.83333 km/h
2079 15-05-2019 16:00:00 17.19167 C 5.03 g/m*3 17.19 C 12.1 km/h
2080 15-05-2019 17:00:00 17.58333 C 4.96 g/m*3 17.58 C 14.1 km/h
2081 15-05-2019 18:00:00 17.38333 C 5.02 g/m*3 17.38 C 13.55833 km/h
2082 15-05-2019 19:00:00 16.55833 C 4.97 g/m*3 16.56 C 11.55 km/h
2083 15-05-2019 20:00:00 15.10833 C 5.45 g/m*3 15.11 C 4.69167 km/h
2084 15-05-2019 21:00:00 11.45833 C 5.85 g/m*3 11.46 C 1.74167 km/h
2085 15-05-2019 22:00:00 9.525 C 5.5 g/m*3 9.53 C 0.53333 km/h
2086 15-05-2019 23:00:00 8.09167 C 5.32 g/m*3 8.09 C 0.93333 km/h
2087 16-05-2019 00:00:00 7.39167 C 5.29 g/m*3 7.39 C 1.6 km/h
2088 16-05-2019 01:00:00 6.64167 C 5.56 g/m*3 6.64 C 0 km/h
2089 16-05-2019 02:00:00 5.725 C 5.61 g/m*3 5.73 C 0 km/h
2090 16-05-2019 03:00:00 5.58333 C 5.8 g/m*3 5.58 C 0 km/h
2091 16-05-2019 04:00:00 5.71667 C 5.95 g/m*3 5.72 C 0 km/h
2092 16-05-2019 05:00:00 5.83333 C 6.04 g/m*3 5.83 C 0 km/h
2093 16-05-2019 06:00:00 5.95 C 6.18 g/m*3 5.95 C 0.13333 km/h
2094 16-05-2019 07:00:00 6.64167 C 6.45 g/m*3 6.64 C 0 km/h
2095 16-05-2019 08:00:00 7.98333 C 6.84 g/m*3 7.98 C 0.13333 km/h
2096 16-05-2019 09:00:00 9.95 C 6.81 g/m*3 9.95 C 4.15 km/h
2097 16-05-2019 10:00:00 11.65833 C 6.56 g/m*3 11.66 C 8.45833 km/h
2098 16-05-2019 11:00:00 12.20833 C 6.32 g/m*3 12.21 C 8.33333 km/h
2099 16-05-2019 12:00:00 13.13333 C 6.73 g/m*3 13.13 C 8.875 km/h
2100 16-05-2019 13:00:00 14.68333 C 7.13 g/m*3 14.68 C 10.76667 km/h
Sensor: Nr:Datum:Temp:Abs-Feuchte:Windchill:Wind:
Aussen-T/F 2101 16-05-2019 14:00:00 15.4 C 7.34 g/m*3 15.4 C 10.48333 km/h
2102 16-05-2019 15:00:00 17.38333 C 7.71 g/m*3 17.38 C 10.08333 km/h
2103 16-05-2019 16:00:00 18.23333 C 7.73 g/m*3 18.23 C 8.45 km/h
2104 16-05-2019 17:00:00 16.90833 C 7.77 g/m*3 16.91 C 9.69167 km/h
2105 16-05-2019 18:00:00 15.44167 C 8.11 g/m*3 15.44 C 11.95 km/h
2106 16-05-2019 19:00:00 14.075 C 8.25 g/m*3 14.08 C 4.41667 km/h
2107 16-05-2019 20:00:00 12.56667 C 8.08 g/m*3 12.57 C 6.70833 km/h
2108 16-05-2019 21:00:00 11.175 C 7.69 g/m*3 11.18 C 8.21667 km/h
2109 16-05-2019 22:00:00 10.23333 C 7.8 g/m*3 10.23 C 4.29167 km/h
2110 16-05-2019 23:00:00 9.60833 C 7.91 g/m*3 9.61 C 0.66667 km/h
2111 17-05-2019 00:00:00 9.08333 C 8.06 g/m*3 9.08 C 0 km/h
2112 17-05-2019 01:00:00 8.79167 C 8.05 g/m*3 8.79 C 0 km/h
2113 17-05-2019 02:00:00 8.7 C 8.1 g/m*3 8.7 C 0 km/h
2114 17-05-2019 03:00:00 8.63333 C 8.11 g/m*3 8.63 C 0.53333 km/h
2115 17-05-2019 04:00:00 8.475 C 8.09 g/m*3 8.48 C 0.13333 km/h
2116 17-05-2019 05:00:00 8.36667 C 8.04 g/m*3 8.37 C 0 km/h
2117 17-05-2019 06:00:00 8.45 C 8.13 g/m*3 8.45 C 0 km/h
2118 17-05-2019 07:00:00 8.71667 C 8.31 g/m*3 8.72 C 0.4 km/h
2119 17-05-2019 08:00:00 8.96667 C 8.45 g/m*3 8.97 C 1.73333 km/h
2120 17-05-2019 09:00:00 9.29167 C 8.62 g/m*3 9.29 C 1.86667 km/h
2121 17-05-2019 10:00:00 9.625 C 8.81 g/m*3 9.63 C 4.825 km/h
2122 17-05-2019 11:00:00 10.2 C 9.05 g/m*3 10.2 C 3.86667 km/h
2123 17-05-2019 12:00:00 11.175 C 9.49 g/m*3 11.18 C 6.425 km/h
2124 17-05-2019 13:00:00 12.825 C 10 g/m*3 12.83 C 8.625 km/h
2125 17-05-2019 14:00:00 14.44167 C 10.43 g/m*3 14.44 C 6.58333 km/h
Sensor: Nr:Datum:Temp:Abs-Feuchte:Windchill:Wind:
Aussen-T/F 2126 17-05-2019 15:00:00 15.54167 C 10.58 g/m*3 15.54 C 7.26667 km/h
2127 17-05-2019 16:00:00 16.35 C 10.47 g/m*3 16.35 C 7.65833 km/h
2128 17-05-2019 17:00:00 17.35 C 10.47 g/m*3 17.35 C 6.70833 km/h
2129 17-05-2019 18:00:00 16.8 C 11.2 g/m*3 16.8 C 2 km/h
2130 17-05-2019 19:00:00 16.625 C 11.34 g/m*3 16.63 C 0.26667 km/h
2131 17-05-2019 20:00:00 13.975 C 10.28 g/m*3 13.98 C 0.26667 km/h
2132 17-05-2019 21:00:00 12.00833 C 9.56 g/m*3 12.01 C 0.26667 km/h
2133 17-05-2019 22:00:00 11.96667 C 9.78 g/m*3 11.97 C 0 km/h
2134 17-05-2019 23:00:00 12.05833 C 9.99 g/m*3 12.06 C 0.4 km/h

Maximal/Minimal-Werte vom 23.02.2003 - 18.05.2019

Sensor Min Max Avg
Temp
(Aussen-T/F)
-16.4 °C
20-12-2009  01:30:01
38.6 °C
04-07-2015  16:30:00
11.04 °C

Die Daten stammen von einer Davis Vantage Pro 2 Wetter-Station und werden unter Linux mit der Software wview2wettercgi und aufbereitet. Alle Angaben erfolgen ohne Gewähr für ihre Vollständigkeit oder Richtigkeit.
Kontakt: Rainer Krienke krienke@uni-koblenz.de . Meine Webseiten an der Uni Koblenz oder privat.
Version: $Revision: 0.78 $